Date StartTime U_cm/s V_cm/s W_cm/s Ustd_cm/s Vstd_cm/s Wstd_cm/s Uvar_(cm/s)^2 Vvar_(cm/s)^2 Wvar_(cm/s)^2 KE_(m/s)^2 TurbulentKE_(m/s)^2 HorizWindSpeed_cm/s FrictionSpeec_cm/s DragCoef SpeedOfSound_m/s SonicTemperature_C Pressure_mb 
11/01/2013  00:00:00      -99.291      -23.259       -5.779       28.918       20.214       13.734      836.263      408.600      188.613        0.593        0.072      101.979        8.808        0.007      334.902        5.181      867.774
11/01/2013  00:01:00      -96.551       -4.883      -15.627       37.996       24.070       17.700     1443.665      579.379      313.276        0.596        0.117       96.674       20.435        0.045      334.868        5.124      867.778
11/01/2013  00:02:00      -77.003      -29.184      -10.859       21.029       26.237       14.961      442.232      688.373      223.817        0.413        0.068       82.348        7.226        0.008      334.831        5.063      867.793
11/01/2013  00:03:00     -105.630      -28.746      -11.692       26.099       23.890       17.987      681.159      570.746      323.532        0.685        0.079      109.471       11.846        0.012      334.862        5.116      867.798
11/01/2013  00:04:00      -43.943      -28.847       -0.439       37.995       21.023       23.024     1443.650      441.975      530.100        0.259        0.121       52.565       23.221        0.195      334.951        5.263      867.796
11/01/2013  00:05:00      -92.122      -36.776      -12.439       19.284       18.075       16.417      371.872      326.716      269.512        0.548        0.048       99.192        8.187        0.007      334.892        5.165      867.786
11/01/2013  00:06:00     -102.233      -16.308      -14.090       15.739       20.771       17.055      247.722      431.442      290.882        0.594        0.049      103.525        9.393        0.008      334.864        5.117      867.791
11/01/2013  00:07:00     -113.385      -33.419      -11.532       25.616       24.910       15.008      656.188      620.509      225.233        0.780        0.075      118.207       13.761        0.014      334.850        5.095      867.800
11/01/2013  00:08:00     -124.701      -12.863      -14.414       27.142       19.367       20.050      736.715      375.092      402.014        0.872        0.076      125.363       10.565        0.007      334.773        4.965      867.789
11/01/2013  00:09:00     -122.306      -29.989      -11.129       27.468       30.047       17.247      754.489      902.826      297.473        0.897        0.098      125.929       12.500        0.010      334.809        5.025      867.772
11/01/2013  00:10:00      -93.311      -37.189       -3.584       36.361       30.131       23.021     1322.149      907.879      529.956        0.643        0.138      100.449       22.896        0.052      334.786        4.987      867.772
11/01/2013  00:11:00      -92.365      -14.895       -4.245       41.872       31.705       21.003     1753.281     1005.199      441.118        0.598        0.160       93.558       22.018        0.055      334.818        5.041      867.759
11/01/2013  00:12:00      -63.377      -12.270       -0.829       23.218       23.377       17.021      539.081      546.494      289.699        0.277        0.069       64.554       10.907        0.029      334.898        5.174      867.743
11/01/2013  00:13:00      -66.119      -23.337       -9.960       23.333       19.541       13.324      544.443      381.845      177.522        0.306        0.055       70.117        4.461        0.004      334.864        5.119      867.729
11/01/2013  00:14:00      -48.334      -28.724      -13.709       24.484       15.631       14.991      599.476      244.337      224.726        0.221        0.053       56.224       14.108        0.063      334.853        5.100      867.718
11/01/2013  00:15:00      -65.082      -34.704      -14.115       24.822       16.872       12.885      616.116      284.672      166.013        0.335        0.053       73.756        5.558        0.006      334.827        5.055      867.708
11/01/2013  00:16:00      -47.618      -36.714       -9.973       28.424       30.738       16.690      807.910      944.841      278.561        0.287        0.102       60.128        5.460        0.008      334.892        5.164      867.695
11/01/2013  00:17:00      -46.775      -23.040       -7.842       27.270       19.267       17.252      743.662      371.212      297.631        0.210        0.071       52.142       16.584        0.101      334.862        5.114      867.684
11/01/2013  00:18:00      -26.673      -18.097       13.369       24.464       18.820       24.193      598.484      354.195      585.313        0.138        0.077       32.233       14.775        0.210      334.832        5.066      867.680
11/01/2013  00:19:00      -44.298      -24.857      -14.723       29.289       26.360       17.442      857.873      694.830      304.238        0.233        0.093       50.795        9.344        0.034      334.869        5.125      867.685
11/01/2013  00:20:00      -69.322      -32.216      -11.015       30.735       20.454       18.070      944.634      418.373      326.536        0.383        0.084       76.442       12.970        0.029      334.825        5.053      867.673
11/01/2013  00:21:00      -94.272      -48.167       -8.993       12.622       18.772       11.965      159.304      352.386      143.170        0.597        0.033      105.864        6.843        0.004      334.820        5.045      867.667
11/01/2013  00:22:00      -59.830      -43.246       -8.762       34.009       18.551       19.776     1156.641      344.150      391.110        0.371        0.095       73.823       22.680        0.094      334.833        5.066      867.676
11/01/2013  00:23:00      -85.092      -43.087      -11.849       21.056       12.252        9.206      443.341      150.100       84.742        0.496        0.034       95.379        2.304        0.001      334.846        5.088      867.677
11/01/2013  00:24:00      -93.654      -38.588      -10.157       14.645       11.374        8.133      214.483      129.370       66.152        0.539        0.021      101.292        6.167        0.004      334.843        5.085      867.673
11/01/2013  00:25:00      -95.346      -55.055      -13.147       15.246       14.624        9.329      232.427      213.868       87.031        0.641        0.027      110.099        3.281        0.001      334.928        5.225      867.681
11/01/2013  00:26:00      -91.574      -52.325       -5.363       32.347       20.398       13.503     1046.314      416.093      182.324        0.640        0.082      105.469       11.544        0.012      334.876        5.138      867.682
11/01/2013  00:27:00      -77.147      -65.156        2.814       47.559       32.946       20.595     2261.883     1085.414      424.148        0.699        0.189      100.980       24.132        0.057      334.882        5.148      867.678
11/01/2013  00:28:00      -75.831      -67.245        0.702       56.275       45.958       26.702     3166.929     2112.152      712.994        0.813        0.300      101.352       29.789        0.086      334.856        5.105      867.669
11/01/2013  00:29:00      -87.614      -60.308        0.280       49.934       31.809       21.387     2493.444     1011.824      457.395        0.764        0.198      106.363       19.688        0.034      334.802        5.016      867.664
11/01/2013  00:30:00     -109.340      -79.271       -8.585       53.739       37.406       27.517     2887.854     1399.209      757.175        1.168        0.252      135.052       30.635        0.051      334.817        5.039      867.667
11/01/2013  00:31:00     -111.815      -72.661       -5.098       50.545       35.807       24.981     2554.819     1282.138      624.054        1.113        0.223      133.349       28.319        0.045      334.812        5.031      867.647
11/01/2013  00:32:00      -61.182      -52.989        2.105       49.792       36.061       24.685     2479.229     1300.394      609.357        0.547        0.219       80.939       22.411        0.077      334.791        4.998      867.642
11/01/2013  00:33:00      -52.725      -62.088       12.682       53.136       27.390       24.914     2823.413      750.204      620.721        0.549        0.210       81.454       28.661        0.124      334.752        4.931      867.643
11/01/2013  00:34:00      -69.821      -46.302        7.386       47.080       35.735       21.417     2216.486     1276.972      458.702        0.551        0.198       83.779       21.140        0.064      334.726        4.888      867.639
11/01/2013  00:35:00      -63.356      -46.457       11.505       40.118       29.260       24.659     1609.439      856.140      608.056        0.469        0.154       78.564       21.993        0.078      334.696        4.839      867.640
11/01/2013  00:36:00     -118.738      -54.559        1.255       37.320       36.594       27.221     1392.815     1339.145      740.989        1.027        0.174      130.673       18.077        0.019      334.702        4.848      867.642
11/01/2013  00:37:00     -129.202      -69.527        1.700       48.849       37.542       22.788     2386.177     1409.378      519.290        1.292        0.216      146.721       23.495        0.026      334.647        4.757      867.645
11/01/2013  00:38:00      -72.505      -53.389        4.578       40.421       31.761       19.911     1633.858     1008.759      396.456        0.558        0.152       90.041       19.402        0.046      334.669        4.792      867.656
11/01/2013  00:39:00      -71.436      -53.291        8.775       46.064       31.428       30.114     2121.930      987.741      906.829        0.602        0.201       89.124       25.996        0.085      334.652        4.765      867.657
11/01/2013  00:40:00      -29.934      -57.833       19.505       33.799       45.617       25.877     1142.385     2080.915      669.631        0.426        0.195       65.121       23.921        0.135      334.701        4.848      867.656
11/01/2013  00:41:00     -109.808      -68.685        4.750       46.996       31.155       26.828     2208.585      970.615      719.735        1.035        0.195      129.520       22.101        0.029      334.693        4.833      867.653
11/01/2013  00:42:00      -97.922      -55.316       11.564       48.118       36.495       31.055     2315.380     1331.900      964.424        0.870        0.231      112.466       25.653        0.052      334.680        4.811      867.644
11/01/2013  00:43:00      -88.561      -67.499        3.085       48.655       30.345       26.542     2367.309      920.808      704.491        0.820        0.200      111.351       20.350        0.033      334.651        4.763      867.638
11/01/2013  00:44:00      -69.576      -60.569        9.072       56.819       40.317       25.166     3228.383     1625.438      633.348        0.704        0.274       92.246       24.341        0.070      334.652        4.766      867.624
11/01/2013  00:45:00     -108.750      -96.267       -0.734       43.039       40.562       21.790     1852.395     1645.240      474.818        1.253        0.199      145.237       20.289        0.020      334.638        4.741      867.615
11/01/2013  00:46:00     -107.239      -73.221       -2.408       30.078       42.983       22.646      904.716     1847.570      512.862        1.007        0.163      129.851       19.726        0.023      334.610        4.697      867.612
11/01/2013  00:47:00     -122.983      -78.235       -7.065       35.607       28.718       18.142     1267.886      824.699      329.137        1.186        0.121      145.758       10.057        0.005      334.623        4.717      867.613
11/01/2013  00:48:00     -108.526      -44.025       -3.067       36.467       23.352       20.109     1329.840      545.293      404.390        0.800        0.114      117.116       19.615        0.028      334.572        4.631      867.608
11/01/2013  00:49:00      -89.524      -48.660        0.634       42.396       30.906       17.485     1797.382      955.205      305.713        0.672        0.153      101.894       22.289        0.048      334.605        4.687      867.606
11/01/2013  00:50:00      -93.065      -40.773        3.986       34.633       28.355       21.491     1199.436      803.999      461.844        0.640        0.123      101.604       19.584        0.037      334.614        4.703      867.608
11/01/2013  00:51:00      -82.797      -31.261        1.297       33.491       25.617       17.655     1121.671      656.214      311.706        0.496        0.104       88.502       14.095        0.025      334.571        4.631      867.617
11/01/2013  00:52:00      -97.946      -51.851        2.594       33.535       22.987       17.652     1124.595      528.381      311.604        0.713        0.098      110.824       14.418        0.017      334.539        4.578      867.617
11/01/2013  00:53:00      -55.693      -40.560        6.896       37.434       32.600       21.522     1401.279     1062.792      463.175        0.386        0.146       68.897       20.554        0.089      334.560        4.613      867.607
11/01/2013  00:54:00      -86.429      -52.644        0.401       29.466       22.280       17.249      868.239      496.386      297.534        0.595        0.083      101.200       17.172        0.029      334.566        4.623      867.590
11/01/2013  00:55:00     -106.616      -62.305      -10.878       27.064       19.624       13.828      732.486      385.094      191.205        0.834        0.065      123.486        5.562        0.002      334.584        4.652      867.583
11/01/2013  00:56:00     -121.834      -52.587       -6.322       26.977       19.615       17.999      727.740      384.747      323.952        0.954        0.072      132.698       15.398        0.013      334.473        4.469      867.557
11/01/2013  00:57:00     -130.152      -59.178       -8.545       26.421       23.172       15.623      698.056      536.952      244.064        1.100        0.074      142.974       15.337        0.012      334.455        4.440      867.540
11/01/2013  00:58:00     -138.410      -52.826       -6.578       25.890       20.518       17.881      670.306      420.995      319.745        1.170        0.071      148.148       11.853        0.006      334.423        4.387      867.544
11/01/2013  00:59:00     -117.509      -21.214       -9.543       38.804       25.829       20.192     1505.781      667.140      407.724        0.846        0.129      119.408       17.447        0.021      334.352        4.268      867.545
11/01/2013  01:00:00     -114.912      -24.331       -7.218       31.585       19.004       17.364      997.612      361.143      301.506        0.775        0.083      117.460       16.171        0.019      334.344        4.255      867.547
11/01/2013  01:01:00     -117.954      -39.262       -7.823       18.089       18.962       19.344      327.206      359.576      374.201        0.829        0.053      124.317       11.211        0.008      334.395        4.341      867.540
11/01/2013  01:02:00     -131.693      -27.068       -9.709       13.580       15.759        9.698      184.404      248.362       94.059        0.935        0.026      134.446        6.833        0.003      334.439        4.412      867.531
11/01/2013  01:03:00     -103.583      -34.488       -3.370       21.272       18.871       17.177      452.516      356.124      295.053        0.652        0.055      109.173       14.317        0.017      334.437        4.410      867.529
11/01/2013  01:04:00     -118.264      -36.150      -11.179       14.874       16.908       12.220      221.243      285.865      149.325        0.804        0.033      123.666        6.956        0.003      334.417        4.377      867.529
11/01/2013  01:05:00     -110.715      -31.663       -6.044       17.505       17.793       10.502      306.410      316.584      110.295        0.701        0.037      115.154        8.910        0.006      334.380        4.315      867.523
11/01/2013  01:06:00      -96.106      -37.272       -3.538       19.836       18.439       13.898      393.470      340.006      193.159        0.578        0.046      103.080       10.391        0.010      334.384        4.323      867.520
11/01/2013  01:07:00      -97.771      -67.258       -9.474       24.497       20.931       13.853      600.085      438.095      191.892        0.770        0.062      118.671       10.228        0.007      334.461        4.449      867.512
11/01/2013  01:08:00      -60.464      -48.261       -3.297       36.502       25.843       23.519     1332.372      667.874      553.147        0.427        0.128       77.363       24.816        0.103      334.434        4.405      867.525
11/01/2013  01:09:00      -81.526      -52.873       -7.242       27.623       19.066       15.606      763.038      363.520      243.557        0.543        0.069       97.170       15.323        0.025      334.524        4.553      867.531
11/01/2013  01:10:00      -69.051      -40.875       -8.970       24.152       18.380       11.350      583.335      337.841      128.825        0.378        0.052       80.242        5.532        0.005      334.468        4.460      867.528
11/01/2013  01:11:00      -79.698      -21.752       -1.197       19.513       21.727       12.952      380.760      472.061      167.743        0.392        0.051       82.613        8.599        0.011      334.405        4.357      867.515
11/01/2013  01:12:00     -100.920      -46.923       -4.699       13.847       16.492       10.609      191.745      271.992      112.543        0.649        0.029      111.295        6.478        0.003      334.402        4.351      867.504
11/01/2013  01:13:00      -57.367      -38.119       -6.138       34.309       19.152       15.027     1177.135      366.816      225.815        0.328        0.088       68.877        6.002        0.008      334.340        4.251      867.507
11/01/2013  01:14:00       -6.688      -16.751       14.656       26.543       18.727       14.287      704.516      350.690      204.122        0.090        0.063       18.037       14.258        0.625      334.330        4.232      867.510
11/01/2013  01:15:00       -2.258      -17.167       11.532       27.300       18.359       18.334      745.309      337.055      336.147        0.093        0.071       17.315       12.350        0.509      334.392        4.336      867.504
11/01/2013  01:16:00      -60.080      -34.288        0.532       36.019       19.869       14.437     1297.394      394.763      208.435        0.334        0.095       69.175        6.741        0.009      334.418        4.380      867.492
11/01/2013  01:17:00      -13.072      -22.825        9.065       24.314       20.078       17.082      591.172      403.144      291.795        0.103        0.064       26.303       16.414        0.389      334.430        4.400      867.476
11/01/2013  01:18:00      -59.048      -50.451       -2.855       29.096       30.276       16.784      846.573      916.666      281.697        0.404        0.102       77.666       21.030        0.073      334.400        4.348      867.466
11/01/2013  01:19:00      -33.605      -50.574        6.726       27.307       22.344       16.713      745.693      499.262      279.337        0.263        0.076       60.721       13.931        0.053      334.429        4.397      867.470
11/01/2013  01:20:00      -48.298      -21.153        3.648       31.073       13.176       14.708      965.537      173.599      216.332        0.207        0.068       52.728       18.411        0.122      334.391        4.332      867.475
11/01/2013  01:21:00      -63.022      -37.517       -6.436       11.038       16.044       10.120      121.831      257.420      102.419        0.295        0.024       73.344        2.936        0.002      334.340        4.248      867.470
11/01/2013  01:22:00      -67.001      -29.285       -3.805       24.848       15.010       11.298      617.421      225.303      127.634        0.317        0.049       73.121       12.433        0.029      334.330        4.232      867.473
11/01/2013  01:23:00      -12.393      -23.931        8.837       17.117       15.083       16.772      292.978      227.511      281.291        0.080        0.040       26.950       10.470        0.151      334.381        4.319      867.484
11/01/2013  01:24:00      -38.036      -12.465       -0.689       14.300        7.756        7.000      204.500       60.148       48.995        0.096        0.016       40.027        6.732        0.028      334.378        4.312      867.496
11/01/2013  01:25:00      -55.901      -14.362       -7.147        7.232        9.926        7.363       52.306       98.526       54.217        0.179        0.010       57.717        4.822        0.007      334.367        4.293      867.508
11/01/2013  01:26:00      -72.846       -6.110       -8.221        8.745        6.966        6.699       76.483       48.524       44.871        0.279        0.008       73.101        3.659        0.003      334.273        4.138      867.520
11/01/2013  01:27:00      -50.843      -11.750       -3.233       17.774       13.398        8.994      315.914      179.498       80.900        0.165        0.029       52.183        8.146        0.024      334.303        4.187      867.523
11/01/2013  01:28:00      -52.832       -9.807       -2.081       12.827       11.604       10.325      164.522      134.657      106.609        0.165        0.020       53.735        8.326        0.024      334.274        4.138      867.527
11/01/2013  01:29:00      -49.238        0.764       -1.521        8.936       10.251        8.760       79.859      105.091       76.744        0.134        0.013       49.244        4.629        0.009      334.244        4.088      867.529
11/01/2013  01:30:00      -39.513      -19.498       -5.189        8.992        7.502        6.234       80.863       56.284       38.864        0.107        0.009       44.062        2.198        0.002      334.315        4.206      867.531
11/01/2013  01:31:00      -43.182       -6.786       -2.846       10.504       12.018        7.676      110.334      144.435       58.928        0.112        0.016       43.712        6.992        0.026      334.363        4.286      867.538
11/01/2013  01:32:00      -15.198       -9.773        3.279       15.623       11.214        8.168      244.076      125.757       66.719        0.039        0.022       18.070        5.109        0.080      334.280        4.149      867.554
11/01/2013  01:33:00      -40.938      -13.305       -0.532       10.320        9.725        6.555      106.502       94.578       42.972        0.105        0.012       43.046        4.444        0.011      334.283        4.152      867.569
11/01/2013  01:34:00      -46.229       -2.103       -6.529        9.353        9.596        7.688       87.470       92.084       59.106        0.121        0.012       46.277        4.801        0.011      334.211        4.035      867.569
11/01/2013  01:35:00      -35.832        5.116       -2.887        6.878        6.908        5.038       47.308       47.714       25.381        0.072        0.006       36.195        3.110        0.007      334.219        4.047      867.583
11/01/2013  01:36:00      -26.882       -2.104       -3.951        8.601        9.181        8.003       73.985       84.297       64.052        0.048        0.011       26.964        4.036        0.022      334.177        3.979      867.591
11/01/2013  01:37:00      -20.420        1.987       -0.850        7.222        6.642        6.743       52.161       44.110       45.464        0.028        0.007       20.516        4.154        0.041      334.167        3.961      867.598
11/01/2013  01:38:00      -25.054        6.299       -2.225        6.117        4.107        4.912       37.418       16.870       24.127        0.038        0.004       25.834        3.616        0.020      334.156        3.939      867.619
11/01/2013  01:39:00      -24.209        2.009       -6.809        4.224        3.555        4.793       17.843       12.641       22.975        0.034        0.003       24.292        2.135        0.008      334.201        4.017      867.637
11/01/2013  01:40:00      -33.856       -3.304       -4.655        7.442        5.490        7.199       55.379       30.141       51.820        0.066        0.007       34.017        2.427        0.005      334.185        3.992      867.648
11/01/2013  01:41:00      -23.699       -4.696       -5.938        8.535        5.601        6.067       72.852       31.375       36.813        0.038        0.007       24.160        5.283        0.048      334.163        3.953      867.657
11/01/2013  01:42:00      -25.087        8.040       -4.137        4.974        5.334        3.768       24.738       28.446       14.195        0.039        0.003       26.344        3.388        0.017      334.134        3.908      867.664
11/01/2013  01:43:00      -28.102        4.094       -5.693        8.910        5.016        5.063       79.382       25.159       25.632        0.048        0.007       28.398        5.352        0.036      334.103        3.855      867.662
11/01/2013  01:44:00      -21.440        5.909       -3.461       14.150        8.312        5.363      200.217       69.084       28.757        0.040        0.015       22.239        6.638        0.089      334.142        3.920      867.661
11/01/2013  01:45:00        5.428        5.839        1.711        8.306        8.799        6.467       68.989       77.417       41.818        0.013        0.009        7.972        4.022        0.254      334.211        4.036      867.659
11/01/2013  01:46:00       22.407       25.334        8.889        9.218        9.645        6.062       84.973       93.033       36.752        0.072        0.011       33.821        6.009        0.032      334.301        4.184      867.644
11/01/2013  01:47:00       29.061       15.742        1.640        4.701        7.102        3.294       22.102       50.437       10.850        0.059        0.004       33.051        2.648        0.006      334.362        4.287      867.635
11/01/2013  01:48:00       14.190        2.595        1.413        7.776        3.385        4.120       60.466       11.456       16.978        0.015        0.004       14.425        3.267        0.051      334.339        4.247      867.633
11/01/2013  01:49:00      -10.511        2.063        0.358        7.450        2.879        3.543       55.503        8.291       12.550        0.010        0.004       10.711        1.278        0.014      334.266        4.126      867.634
11/01/2013  01:50:00      -31.372       -8.995       -3.482       12.853        7.822        6.410      165.190       61.189       41.094        0.067        0.013       32.636        5.382        0.027      334.010        3.701      867.641
11/01/2013  01:51:00      -42.157      -15.721      -10.213        9.431        7.524        7.793       88.953       56.604       60.728        0.117        0.010       44.993        4.089        0.008      333.925        3.561      867.646
11/01/2013  01:52:00      -47.479       -7.404       -9.142        9.700        9.666       10.009       94.094       93.437      100.179        0.134        0.014       48.053        1.349        0.001      333.889        3.502      867.651
11/01/2013  01:53:00      -53.228      -10.245       -7.758        7.721        6.398        4.967       59.613       40.931       24.672        0.156        0.006       54.205        3.267        0.004      333.928        3.567      867.651
11/01/2013  01:54:00      -48.965      -12.350       -9.270       10.447        9.127        6.359      109.135       83.305       40.431        0.143        0.012       50.498        3.765        0.006      333.916        3.547      867.651
11/01/2013  01:55:00      -60.216      -25.555      -12.381        7.529        7.434        8.670       56.693       55.269       75.163        0.231        0.009       65.414        3.269        0.002      333.837        3.412      867.651
11/01/2013  01:56:00      -80.236      -17.634       -9.650       11.539       10.589       11.222      133.156      112.125      125.942        0.361        0.019       82.151        8.745        0.011      333.858        3.450      867.646
11/01/2013  01:57:00      -92.119      -21.053      -13.679        9.564        9.746        7.252       91.467       94.977       52.592        0.468        0.012       94.494        3.871        0.002      333.890        3.502      867.652
11/01/2013  01:58:00      -94.674      -15.387      -14.069       13.455       13.136        7.815      181.038      172.567       61.076        0.491        0.021       95.917        6.195        0.004      333.961        3.620      867.662
11/01/2013  01:59:00      -91.600       -8.604      -12.989       10.171        9.250        8.585      103.439       85.568       73.706        0.445        0.013       92.004        4.911        0.003      333.922        3.556      867.671
11/01/2013  02:00:00      -74.397      -10.827      -10.151       11.573        9.192        7.653      133.944       84.493       58.569        0.302        0.014       75.181        5.185        0.005      333.973        3.642      867.674
11/01/2013  02:01:00      -61.302       -8.434      -10.466       11.103        9.054        6.849      123.285       81.967       46.904        0.210        0.013       61.880        1.295        0.000      334.017        3.712      867.678
11/01/2013  02:02:00      -57.259      -14.765      -11.209       11.771        9.790       10.146      138.551       95.852      102.938        0.198        0.017       59.132        6.643        0.013      333.961        3.620      867.685
11/01/2013  02:03:00      -90.342      -14.507      -11.901        9.767        8.335        7.551       95.386       69.476       57.017        0.437        0.011       91.499        4.665        0.003      334.025        3.726      867.682
11/01/2013  02:04:00      -72.947      -17.994      -13.657       13.600       11.592        5.588      184.949      134.366       31.228        0.309        0.018       75.133        5.055        0.005      333.971        3.637      867.692
11/01/2013  02:05:00      -70.008      -11.015      -10.187        7.338        8.865        5.643       53.849       78.590       31.840        0.265        0.008       70.870        3.341        0.002      333.942        3.591      867.682
11/01/2013  02:06:00      -56.951       -7.378      -10.890       17.037        8.294        6.195      290.253       68.784       38.383        0.191        0.020       57.427        3.013        0.003      333.902        3.523      867.685
11/01/2013  02:07:00      -77.645      -20.067      -13.089        7.182        7.040        5.740       51.575       49.557       32.949        0.337        0.007       80.196        2.968        0.001      334.018        3.713      867.686
11/01/2013  02:08:00      -75.796      -21.884      -10.843        7.404        7.924        5.723       54.818       62.785       32.748        0.325        0.008       78.892        3.390        0.002      334.024        3.725      867.691
11/01/2013  02:09:00      -87.974      -12.787      -14.598        8.186        9.317        6.928       67.005       86.799       47.997        0.416        0.010       88.898        1.838        0.000      334.019        3.715      867.701
11/01/2013  02:10:00     -115.907       -1.863      -16.461       19.797        8.247        9.820      391.935       68.006       96.433        0.713        0.028      115.922        8.033        0.005      333.922        3.555      867.699
11/01/2013  02:11:00     -111.285       -4.266      -14.105       22.912       14.038       14.273      524.975      197.052      203.705        0.676        0.046      111.367       14.147        0.016      333.851        3.437      867.714
11/01/2013  02:12:00     -100.756      -15.092      -13.503       20.965       19.592       12.151      439.529      383.853      147.643        0.577        0.049      101.880        7.371        0.005      333.761        3.287      867.718
11/01/2013  02:13:00     -100.422      -19.859       -7.635       24.670       25.770       14.964      608.619      664.093      223.915        0.602        0.075      102.367       13.394        0.017      333.647        3.099      867.708
11/01/2013  02:14:00      -99.127      -31.048       -8.217       33.793       33.966       18.769     1141.946     1153.720      352.271        0.675        0.132      103.875       16.127        0.024      333.756        3.279      867.690
11/01/2013  02:15:00     -122.218      -22.277       -6.749       44.872       36.223       24.287     2013.534     1312.095      589.874        0.970        0.196      124.231       22.706        0.033      333.761        3.286      867.677
11/01/2013  02:16:00     -117.512      -24.757       -7.008       39.320       27.785       22.515     1546.093      771.979      506.940        0.865        0.141      120.092       21.983        0.034      333.741        3.253      867.667
11/01/2013  02:17:00     -112.904      -51.353       -7.440       37.291       36.930       21.085     1390.642     1363.799      444.557        0.932        0.160      124.034       14.785        0.014      333.759        3.283      867.674
11/01/2013  02:18:00     -105.225      -48.381       -4.389       36.612       27.017       16.222     1340.465      729.922      263.166        0.788        0.117      115.814       15.502        0.018      333.738        3.251      867.667
11/01/2013  02:19:00     -125.525      -12.686       -6.899       28.432       27.051       20.687      808.351      731.762      427.958        0.897        0.098      126.164       18.815        0.022      333.683        3.158      867.657
11/01/2013  02:20:00     -109.670      -25.010       -7.945       33.246       20.234       18.510     1105.324      409.401      342.610        0.729        0.093      112.486       17.982        0.026      333.725        3.228      867.653
11/01/2013  02:21:00     -106.363      -19.794       -7.387       40.182       19.285       18.901     1614.615      371.905      357.230        0.705        0.117      108.189       20.660        0.036      333.799        3.351      867.662
11/01/2013  02:22:00      -99.118      -18.757       -2.784       34.448       25.195       21.329     1186.699      634.802      454.930        0.623        0.114      100.877       21.737        0.046      333.740        3.252      867.680
11/01/2013  02:23:00      -75.493      -33.143       -1.656       36.276       23.867       16.839     1315.958      569.651      283.556        0.448        0.108       82.448       18.726        0.052      333.752        3.273      867.688
11/01/2013  02:24:00      -84.280      -16.425       -6.875       39.361       28.779       16.855     1549.312      828.209      284.100        0.504        0.133       85.865       15.395        0.032      333.837        3.413      867.701
11/01/2013  02:25:00     -104.332       -7.651       -3.286       34.356       28.136       21.378     1180.323      791.633      457.026        0.669        0.121      104.612       20.732        0.039      333.841        3.421      867.707
11/01/2013  02:26:00     -105.872      -29.109       -4.040       26.351       28.562       15.829      694.399      815.783      250.545        0.692        0.088      109.801       13.330        0.015      333.833        3.408      867.699
11/01/2013  02:27:00     -121.549      -33.058       -5.447       27.693       31.353       18.234      766.882      982.988      332.465        0.899        0.104      125.965       10.232        0.007      333.814        3.376      867.674
11/01/2013  02:28:00     -121.978      -43.212       -6.672       21.314       24.597       12.883      454.281      605.028      165.977        0.901        0.061      129.405        9.152        0.005      333.818        3.382      867.655
11/01/2013  02:29:00     -142.582      -42.034      -10.317       21.993       27.582       15.280      483.706      760.767      233.488        1.184        0.074      148.649       13.074        0.008      333.732        3.240      867.639
11/01/2013  02:30:00      -98.712      -61.656        0.318       33.810       33.000       16.425     1143.094     1089.014      269.788        0.802        0.125      116.385        9.865        0.007      333.759        3.283      867.635
11/01/2013  02:31:00      -96.366      -16.959       -1.888       40.613       29.666       20.313     1649.378      880.048      412.609        0.626        0.147       97.846       19.768        0.041      333.662        3.123      867.628
11/01/2013  02:32:00      -60.248        7.248        3.557       46.341       30.397       21.342     2147.527      923.947      455.460        0.361        0.176       60.682       23.554        0.151      333.671        3.138      867.617
11/01/2013  02:33:00     -102.250      -34.048        0.135       43.588       38.413       18.791     1899.942     1475.529      353.100        0.767        0.186      107.770       17.498        0.026      333.693        3.174      867.626
11/01/2013  02:34:00      -43.960      -19.086        0.707       32.676       32.512       18.580     1067.710     1057.025      345.206        0.238        0.123       47.925       16.274        0.115      333.682        3.157      867.634
11/01/2013  02:35:00      -65.099       -5.644        1.130       33.863       25.213       19.226     1146.711      635.716      369.638        0.321        0.108       65.343       18.416        0.079      333.646        3.098      867.634
11/01/2013  02:36:00      -75.000        0.439      -10.308       44.284       33.094       22.177     1961.116     1095.226      491.813        0.464        0.177       75.001       19.989        0.071      333.648        3.100      867.634
11/01/2013  02:37:00      -92.825        2.055      -15.601       34.188       25.492       18.955     1168.841      649.849      359.296        0.552        0.109       92.848       15.707        0.029      333.708        3.200      867.618
11/01/2013  02:38:00      -98.238       -5.191      -13.548       40.461       23.349       19.682     1637.102      545.155      387.397        0.622        0.128       98.375       20.071        0.042      333.678        3.151      867.599
11/01/2013  02:39:00     -105.003      -24.593      -11.055       22.405       19.409       15.787      501.988      376.697      249.222        0.644        0.056      107.844       12.548        0.014      333.688        3.167      867.584
11/01/2013  02:40:00      -81.073      -46.004       -8.059       15.061       22.431       10.572      226.825      503.169      111.757        0.480        0.042       93.216        5.274        0.003      333.738        3.250      867.563
11/01/2013  02:41:00     -108.203      -45.988      -12.827       16.197       26.714       12.724      262.346      713.659      161.904        0.756        0.057      117.570       14.101        0.014      333.736        3.246      867.553
11/01/2013  02:42:00      -88.679      -42.727      -15.681       12.001       11.035        8.074      144.014      121.773       65.193        0.513        0.017       98.436        4.351        0.002      333.759        3.285      867.553
11/01/2013  02:43:00      -73.103      -60.939       -8.754       20.956       21.646       11.088      439.170      468.551      122.944        0.508        0.052       95.171        9.367        0.010      333.864        3.458      867.558
11/01/2013  02:44:00      -86.300      -40.143      -16.937       13.714       16.061        9.772      188.070      257.963       95.493        0.494        0.027       95.179        4.689        0.002      333.815        3.379      867.564
11/01/2013  02:45:00      -94.684      -48.561      -19.726       10.316       15.291       10.117      106.429      233.829      102.357        0.608        0.022      106.410        4.286        0.002      333.909        3.533      867.570
11/01/2013  02:46:00     -118.722      -50.461      -12.132       11.282       14.271       11.348      127.276      203.655      128.777        0.862        0.023      129.001        8.158        0.004      333.923        3.557      867.566
11/01/2013  02:47:00      -78.419      -58.581        5.321       53.686       23.711       24.101     2882.223      562.205      580.834        0.682        0.201       97.884       27.710        0.080      333.922        3.556      867.572
11/01/2013  02:48:00      -74.741      -63.885        5.985       47.108       29.485       19.152     2219.150      869.341      366.792        0.658        0.173       98.324       20.492        0.043      333.939        3.583      867.582
11/01/2013  02:49:00     -100.166      -85.238       -4.122       38.472       37.821       24.830     1480.094     1430.394      616.538        1.042        0.176      131.525       24.194        0.034      333.875        3.476      867.583
11/01/2013  02:50:00     -148.312      -67.536       -9.775       32.831       38.096       22.764     1077.855     1451.294      518.202        1.485        0.152      162.965       14.121        0.008      333.824        3.391      867.585
11/01/2013  02:51:00     -129.365      -79.103        0.709       44.295       32.052       24.261     1962.089     1027.330      588.618        1.328        0.179      151.633       23.055        0.023      333.731        3.237      867.595
11/01/2013  02:52:00     -126.950      -64.832       -1.680       37.473       33.678       23.883     1404.254     1134.217      570.411        1.172        0.155      142.546       19.105        0.018      333.762        3.289      867.617
11/01/2013  02:53:00      -61.897      -43.410        9.007       48.144       31.931       25.360     2317.816     1019.599      643.126        0.489        0.199       75.602       25.750        0.116      333.764        3.293      867.634
11/01/2013  02:54:00      -96.343      -64.556        3.853       35.727       38.351       24.736     1276.395     1470.779      611.886        0.841        0.168      115.971       21.989        0.036      333.753        3.274      867.634
11/01/2013  02:55:00     -114.863      -81.555        0.559       48.381       32.365       24.982     2340.747     1047.482      624.102        1.193        0.201      140.871       18.987        0.018      333.833        3.407      867.630
11/01/2013  02:56:00     -126.129      -70.260        1.973       41.638       36.357       24.390     1733.737     1321.835      594.870        1.225        0.183      144.378       18.722        0.017      333.790        3.336      867.626
11/01/2013  02:57:00      -75.202      -49.777       10.354       42.033       41.429       26.823     1766.752     1716.360      719.451        0.622        0.210       90.183       26.115        0.084      333.787        3.330      867.628
11/01/2013  02:58:00     -130.664      -88.365       -6.591       33.800       27.267       23.738     1142.412      743.508      563.502        1.369        0.122      157.738       20.167        0.016      333.815        3.377      867.621
11/01/2013  02:59:00     -116.407      -98.893       -0.829       52.251       39.394       30.436     2730.135     1551.888      926.362        1.427        0.260      152.743       24.659        0.026      333.818        3.382      867.616
11/01/2013  03:00:00     -116.159      -87.484        0.884       44.680       31.609       23.430     1996.276      999.114      548.977        1.235        0.177      145.418       21.734        0.022      333.796        3.345      867.611
11/01/2013  03:01:00      -70.217      -64.235        5.575       42.782       27.045       21.126     1830.314      731.455      446.303        0.605        0.150       95.166       22.182        0.054      333.831        3.403      867.624
11/01/2013  03:02:00      -91.554      -63.422       -7.676       30.052       23.911       21.455      903.124      571.714      460.336        0.720        0.097      111.376       16.566        0.022      333.873        3.475      867.614
11/01/2013  03:03:00      -95.518      -60.371       -6.137       15.956       16.219       10.143      254.597      263.071      102.890        0.671        0.031      112.997        2.329        0.000      333.851        3.437      867.599
11/01/2013  03:04:00      -48.224      -38.624        2.491       32.627       29.913       15.501     1064.494      894.783      240.281        0.301        0.110       61.785       16.510        0.071      333.887        3.498      867.580
11/01/2013  03:05:00      -88.598      -59.278       -0.958       32.547       25.138       17.080     1059.335      631.929      291.723        0.667        0.099      106.600       14.960        0.020      333.847        3.430      867.567
11/01/2013  03:06:00      -95.902      -56.204       -7.392       29.352       22.067       19.542      861.517      486.971      381.905        0.707        0.087      111.158       15.601        0.020      333.851        3.436      867.549
11/01/2013  03:07:00     -104.443      -59.003       -9.829       19.919       23.539       19.333      396.771      554.106      373.768        0.791        0.066      119.957       13.971        0.014      333.835        3.410      867.540
11/01/2013  03:08:00     -116.482      -46.293      -14.482       16.920       22.900       13.842      286.275      524.429      191.599        0.846        0.050      125.344        8.574        0.005      333.859        3.451      867.548
11/01/2013  03:09:00     -127.466      -37.255      -12.940       14.314       19.497       11.575      204.896      380.151      133.978        0.926        0.036      132.799        6.904        0.003      333.799        3.351      867.544
11/01/2013  03:10:00     -128.307      -51.438       -0.303       26.283       22.308       15.301      690.813      497.666      234.114        1.027        0.071      138.233       14.440        0.011      333.735        3.245      867.538
11/01/2013  03:11:00     -124.119      -60.337      -12.107       14.772       13.850       12.601      218.200      191.810      158.797        0.988        0.028      138.007        8.099        0.003      333.716        3.212      867.535
11/01/2013  03:12:00     -118.630      -52.784       -5.866       13.560       15.082       12.183      183.887      227.464      148.418        0.873        0.028      129.843        7.493        0.003      333.682        3.155      867.539
11/01/2013  03:13:00      -98.636      -58.659      -10.049       23.052       16.568       12.813      531.374      274.500      164.167        0.712        0.049      114.761       13.818        0.014      333.725        3.228      867.547
11/01/2013  03:14:00     -110.379      -53.413       -8.316       16.712       19.227       11.870      279.286      369.670      140.886        0.795        0.039      122.624        8.092        0.004      333.633        3.076      867.541
11/01/2013  03:15:00     -107.191      -38.615       -1.927       20.526       15.581       11.675      421.301      242.759      136.308        0.689        0.040      113.934       11.321        0.010      333.573        2.976      867.539
11/01/2013  03:16:00     -109.076      -29.791      -13.575       14.360        8.004       10.408      206.222       64.060      108.326        0.667        0.019      113.071        8.482        0.006      333.557        2.951      867.545
11/01/2013  03:17:00     -103.256      -32.599      -10.979       11.852       12.625        9.091      140.476      159.397       82.639        0.611        0.019      108.279        5.429        0.003      333.632        3.073      867.559
11/01/2013  03:18:00      -98.699      -41.099       -9.603        9.861       13.635       11.231       97.249      185.902      126.130        0.597        0.020      106.914        4.025        0.001      333.613        3.043      867.570
11/01/2013  03:19:00      -94.256      -46.546       -6.269       10.349       11.127        7.136      107.102      123.814       50.927        0.569        0.014      105.122        5.005        0.002      333.677        3.148      867.574
11/01/2013  03:20:00      -82.659      -34.382       -0.386       19.627       14.033       14.910      385.211      196.934      222.321        0.441        0.040       89.525       13.449        0.023      333.672        3.141      867.581
11/01/2013  03:21:00      -71.651      -40.434       -6.709       14.993       16.036       10.869      224.777      257.158      118.144        0.371        0.030       82.273        7.399        0.008      333.746        3.264      867.585
11/01/2013  03:22:00      -82.657      -42.539      -10.559       11.867        8.541        8.861      140.825       72.941       78.522        0.452        0.015       92.961        7.891        0.007      333.828        3.400      867.588
11/01/2013  03:23:00      -56.044      -34.939       -1.032       13.382        8.828        8.560      179.074       77.927       73.278        0.235        0.017       66.043        5.759        0.008      333.907        3.531      867.613
11/01/2013  03:24:00      -58.584      -41.665       -7.021       11.068        7.483        7.269      122.503       55.993       52.834        0.272        0.012       71.890        4.538        0.004      333.921        3.555      867.631
11/01/2013  03:25:00      -58.890      -45.833       -5.937       10.329       10.106        7.777      106.686      102.133       60.481        0.294        0.013       74.623        5.281        0.005      334.019        3.716      867.645
11/01/2013  03:26:00      -47.822      -30.028        0.060       14.680       12.928       13.297      215.493      167.125      176.816        0.187        0.028       56.468       10.631        0.035      333.915        3.545      867.656
11/01/2013  03:27:00      -28.237      -14.834       -5.259       19.634        9.328        9.990      385.506       87.017       99.799        0.081        0.029       31.896        5.032        0.025      333.803        3.356      867.676
11/01/2013  03:28:00      -20.382      -17.656        0.699       18.743       13.234        9.974      351.308      175.136       99.488        0.068        0.031       26.965        9.026        0.112      333.787        3.330      867.696
11/01/2013  03:29:00      -24.630      -23.156        2.993       18.670       12.741        9.461      348.556      162.338       89.520        0.088        0.030       33.805        6.724        0.040      333.664        3.127      867.709
11/01/2013  03:30:00      -19.704      -20.373       -0.212       19.372       12.875        9.565      375.262      165.759       91.493        0.072        0.032       28.343        5.351        0.036      333.677        3.149      867.721
11/01/2013  03:31:00      -36.380      -24.979        0.017       15.361       12.230        8.612      235.952      149.568       74.166        0.120        0.023       44.130        6.970        0.025      333.715        3.211      867.729
11/01/2013  03:32:00      -29.369      -34.688        8.063       27.471       20.313       17.388      754.651      412.610      302.331        0.180        0.073       45.451       18.787        0.171      333.681        3.156      867.721
11/01/2013  03:33:00      -55.913      -33.617       -1.616       13.625       11.904        8.854      185.637      141.701       78.397        0.233        0.020       65.241        3.981        0.004      333.714        3.210      867.713
11/01/2013  03:34:00      -60.150      -35.334       -0.254       12.529        8.656        8.773      156.969       74.927       76.961        0.259        0.015       69.761        6.438        0.009      333.671        3.139      867.704
11/01/2013  03:35:00      -46.415      -35.605       -0.021       18.583       17.598       15.047      345.341      309.691      226.404        0.215        0.044       58.499       11.236        0.037      333.686        3.165      867.688
11/01/2013  03:36:00      -73.039      -29.606       -9.364        8.545       10.938       10.751       73.019      119.635      115.583        0.330        0.015       78.812        5.233        0.004      333.677        3.148      867.682
11/01/2013  03:37:00      -69.996      -29.235      -11.707        7.192        7.699        6.333       51.727       59.280       40.107        0.302        0.008       75.856        1.408        0.000      333.671        3.137      867.679
11/01/2013  03:38:00      -61.028      -12.236       -3.809        7.820        7.619        9.035       61.157       58.043       81.624        0.204        0.010       62.242        5.574        0.008      333.694        3.176      867.681
11/01/2013  03:39:00      -68.655      -13.199      -11.541        7.947        8.086        9.714       63.158       65.387       94.355        0.262        0.011       69.912        5.334        0.006      333.674        3.141      867.675
11/01/2013  03:40:00      -83.404      -22.654       -9.186       10.778       13.079        6.768      116.168      171.057       45.811        0.394        0.017       86.426        4.668        0.003      333.674        3.142      867.668
11/01/2013  03:41:00      -92.153      -31.494       -6.815        7.111        8.414        6.906       50.569       70.803       47.686        0.485        0.008       97.387        2.547        0.001      333.642        3.091      867.658
11/01/2013  03:42:00      -78.547      -23.697       -4.989       11.879       12.223        6.394      141.122      149.394       40.881        0.354        0.017       82.044        2.116        0.001      333.625        3.062      867.655
11/01/2013  03:43:00      -90.178      -21.240      -10.380        9.052        8.186        7.753       81.937       67.012       60.102        0.445        0.010       92.646        4.326        0.002      333.660        3.120      867.654
11/01/2013  03:44:00      -92.837      -22.463      -13.778        7.724        8.009        6.113       59.666       64.139       37.368        0.474        0.008       95.516        1.952        0.000      333.612        3.042      867.656
11/01/2013  03:45:00      -78.875      -23.622       -9.080       19.153       12.039        9.753      366.836      144.941       95.113        0.373        0.030       82.336        7.123        0.007      333.593        3.010      867.652
11/01/2013  03:46:00      -86.794      -18.945      -10.890       13.827        9.146        7.225      191.197       83.657       52.205        0.417        0.016       88.837        6.241        0.005      333.563        2.960      867.648
11/01/2013  03:47:00      -76.423      -12.757      -12.563        8.654        7.928        7.498       74.890       62.850       56.224        0.318        0.010       77.481        2.299        0.001      333.537        2.915      867.636
11/01/2013  03:48:00      -70.890      -15.975      -10.999       12.529        9.825        8.990      156.982       96.535       80.822        0.287        0.017       72.667        5.036        0.005      333.536        2.913      867.623
11/01/2013  03:49:00      -67.710      -17.168       -7.338       12.178        8.731        7.376      148.293       76.237       54.400        0.261        0.014       69.853        2.194        0.001      333.563        2.959      867.611
11/01/2013  03:50:00      -68.829      -24.124       -9.393        6.689        8.110        6.572       44.746       65.770       43.187        0.278        0.008       72.934        4.991        0.005      333.566        2.963      867.611
11/01/2013  03:51:00      -53.387      -23.470       -6.989       10.812       10.721        8.274      116.898      114.940       68.457        0.188        0.015       58.318        2.782        0.002      333.505        2.861      867.622
11/01/2013  03:52:00      -51.656      -24.635       -8.752        9.297        8.116        6.421       86.443       65.874       41.229        0.177        0.010       57.230        3.149        0.003      333.499        2.853      867.649
11/01/2013  03:53:00      -45.854      -20.115      -10.695        8.787        9.446        6.561       77.209       89.221       43.047        0.142        0.010       50.072        5.810        0.013      333.490        2.839      867.665
11/01/2013  03:54:00      -58.772      -13.681       -9.132       11.551        9.943        7.294      133.424       98.855       53.200        0.201        0.014       60.343        5.633        0.009      333.469        2.803      867.676
11/01/2013  03:55:00      -70.425      -24.468       -9.039       11.525       10.150        7.285      132.818      103.025       53.065        0.296        0.014       74.554        2.289        0.001      333.509        2.869      867.678
11/01/2013  03:56:00      -55.992      -35.949       -0.880       14.133       13.052        9.543      199.740      170.347       91.062        0.244        0.023       66.538        6.845        0.011      333.508        2.868      867.685
11/01/2013  03:57:00      -66.035      -39.570       -6.839       12.325       10.524        8.504      151.913      110.747       72.314        0.315        0.017       76.983        1.836        0.001      333.511        2.873      867.694
11/01/2013  03:58:00      -67.455       -8.699       -7.116       15.927       11.428       10.250      253.680      130.589      105.057        0.258        0.024       68.014        7.832        0.013      333.464        2.795      867.699
11/01/2013  03:59:00      -50.825      -20.404       -3.280       17.961       14.552        8.769      322.585      211.771       76.901        0.181        0.031       54.767        9.293        0.029      333.529        2.903      867.708
11/01/2013  04:00:00      -72.017      -20.097       -6.273       20.523       10.596       12.155      421.177      112.282      147.740        0.316        0.034       74.768       12.588        0.028      333.502        2.857      867.710
11/01/2013  04:01:00      -77.456      -17.344       -6.044       12.401       12.404        8.670      153.781      153.853       75.162        0.336        0.019       79.374        5.507        0.005      333.485        2.828      867.711
11/01/2013  04:02:00      -79.344      -20.032       -7.282       13.242       11.399        9.437      175.341      129.941       89.055        0.357        0.020       81.834        6.156        0.006      333.479        2.818      867.711
11/01/2013  04:03:00      -71.079      -18.756       -0.834       15.310       10.124        8.599      234.393      102.487       73.951        0.291        0.021       73.512        6.605        0.008      333.457        2.781      867.721
11/01/2013  04:04:00      -68.500      -24.995        0.607       11.602       12.557        7.384      134.596      157.672       54.527        0.283        0.017       72.918        5.970        0.007      333.478        2.815      867.722
11/01/2013  04:05:00      -51.440      -22.414        2.414       19.688       13.056       14.735      387.622      170.446      217.107        0.196        0.039       56.111       10.914        0.038      333.462        2.790      867.727
11/01/2013  04:06:00      -51.780       -7.899       -0.062        8.569       13.538        9.346       73.433      183.281       87.344        0.154        0.017       52.379        6.833        0.017      333.424        2.727      867.730
11/01/2013  04:07:00      -44.711      -19.349        0.809       17.022       10.641        9.529      289.759      113.233       90.809        0.143        0.025       48.718        6.401        0.017      333.432        2.743      867.737
11/01/2013  04:08:00      -64.540      -25.640        0.547        9.767        9.804       11.618       95.385       96.114      134.973        0.257        0.016       69.447        4.402        0.004      333.409        2.704      867.740
11/01/2013  04:09:00      -69.154      -32.189       -9.082       11.354        8.708        6.534      128.924       75.836       42.697        0.307        0.012       76.279        3.211        0.002      333.375        2.650      867.749
11/01/2013  04:10:00      -59.944      -39.844       -1.059       17.794       12.119        9.287      316.632      146.867       86.252        0.287        0.027       71.978        6.209        0.007      333.379        2.655      867.760
11/01/2013  04:11:00      -58.327      -29.163      -14.203        9.534        8.902        7.658       90.890       79.247       58.643        0.234        0.011       65.211        5.463        0.007      333.389        2.673      867.771
11/01/2013  04:12:00      -58.764      -27.178       -3.967       11.674        9.683        7.664      136.292       93.752       58.730        0.225        0.014       64.744        4.451        0.005      333.403        2.695      867.786
11/01/2013  04:13:00      -53.236      -29.144       -3.105       25.481        9.817       10.853      649.275       96.366      117.784        0.228        0.043       60.691       12.895        0.045      333.372        2.643      867.792
11/01/2013  04:14:00      -60.720      -20.765       -0.748       17.421        9.312        7.980      303.482       86.714       63.680        0.229        0.023       64.172        8.022        0.016      333.406        2.699      867.790
11/01/2013  04:15:00      -38.939      -20.941        0.679       19.528       13.319       13.133      381.352      177.404      172.484        0.134        0.037       44.213       12.167        0.076      333.361        2.625      867.787
11/01/2013  04:16:00      -48.962      -26.332        2.026       22.684       13.558       11.735      514.568      183.829      137.699        0.197        0.042       55.593        9.252        0.028      333.340        2.590      867.780
11/01/2013  04:17:00      -64.533      -44.829       -1.318       20.978       15.625       18.223      440.056      244.145      332.071        0.360        0.051       78.576        8.447        0.012      333.289        2.507      867.775
11/01/2013  04:18:00      -75.032      -33.751       -0.999       27.913       18.326       12.051      779.161      335.842      145.231        0.401        0.063       82.273       10.844        0.017      333.274        2.480      867.763
11/01/2013  04:19:00      -74.808      -24.479       -3.004       12.164       13.563        9.848      147.956      183.954       96.981        0.332        0.021       78.711        6.179        0.006      333.340        2.590      867.763
11/01/2013  04:20:00      -87.572      -38.920       -3.819       22.301       15.612       11.989      497.321      243.728      143.742        0.504        0.044       95.831       12.310        0.017      333.266        2.468      867.759
11/01/2013  04:21:00      -97.786      -35.552       -4.179       11.372       17.659        9.196      129.324      311.834       84.574        0.568        0.026      104.048        7.452        0.005      333.237        2.417      867.764
11/01/2013  04:22:00      -87.407      -23.184       -7.700       18.916       15.161       11.115      357.819      229.861      123.546        0.447        0.036       90.429       10.440        0.013      333.233        2.413      867.763
11/01/2013  04:23:00      -88.951      -27.652       -3.239       19.062       13.318       10.736      363.358      177.377      115.255        0.467        0.033       93.150        7.688        0.007      333.261        2.460      867.753
11/01/2013  04:24:00      -90.860      -30.648       -3.467       19.072       13.434       11.155      363.744      180.461      124.425        0.494        0.033       95.890        8.936        0.009      333.240        2.425      867.740
11/01/2013  04:25:00      -65.037      -31.368        5.201       28.300       20.857       15.301      800.863      435.010      234.110        0.336        0.073       72.207       14.950        0.043      333.236        2.418      867.738
11/01/2013  04:26:00      -82.915      -40.062        2.758       27.240       21.636       16.653      742.014      468.107      277.328        0.499        0.074       92.087       14.348        0.024      333.283        2.496      867.739
11/01/2013  04:27:00      -92.610      -36.255       -3.496       30.716       20.798       16.563      943.455      432.560      274.341        0.578        0.083       99.454       17.515        0.031      333.214        2.381      867.739
11/01/2013  04:28:00      -95.114      -15.374       -6.265       24.247       12.457       13.564      587.922      155.170      183.987        0.512        0.046       96.348       13.533        0.020      333.152        2.280      867.736
11/01/2013  04:29:00      -96.224      -22.605       -9.316       21.727       14.058       13.899      472.045      197.630      193.193        0.536        0.043       98.844       12.575        0.016      333.113        2.215      867.738
11/01/2013  04:30:00      -94.289      -29.879       -4.057       19.789       18.092       10.584      391.593      327.321      112.026        0.532        0.042       98.910        7.291        0.005      333.144        2.266      867.730
11/01/2013  04:31:00     -105.931      -32.354       -9.592       16.750       13.522        9.501      280.565      182.836       90.266        0.646        0.028      110.762        6.829        0.004      333.128        2.240      867.736
11/01/2013  04:32:00      -93.976      -34.704       -4.383       24.222       15.854       12.097      586.711      251.338      146.342        0.552        0.049      100.179       12.504        0.016      333.139        2.255      867.739
11/01/2013  04:33:00      -86.483      -20.172       -7.267       18.473       15.629       10.192      341.246      244.280      103.868        0.431        0.034       88.804        8.569        0.009      333.109        2.208      867.743
11/01/2013  04:34:00      -36.750      -27.748        3.759       23.557       14.783       13.240      554.925      218.552      175.287        0.154        0.047       46.049        7.854        0.029      333.103        2.197      867.748
11/01/2013  04:35:00      -14.947      -27.332      -11.141       23.597       18.122       14.201      556.814      328.412      201.677        0.109        0.054       31.152        9.885        0.101      333.190        2.341      867.753
11/01/2013  04:36:00      -41.598      -34.668        0.256       21.796       14.986       13.128      475.063      224.576      172.346        0.190        0.044       54.151        7.763        0.021      333.134        2.251      867.763
11/01/2013  04:37:00      -11.305      -17.042        3.255       31.465       19.354       15.555      990.046      374.560      241.973        0.102        0.080       20.451       12.686        0.385      333.126        2.237      867.770
11/01/2013  04:38:00      -47.664      -42.488       -0.991       35.144       15.270       13.775     1235.103      233.181      189.744        0.287        0.083       63.852       12.911        0.041      333.073        2.149      867.775
11/01/2013  04:39:00      -79.532      -33.837      -12.191       11.184       10.691        9.140      125.081      114.308       83.535        0.397        0.016       86.431        5.645        0.004      333.007        2.040      867.775
11/01/2013  04:40:00      -75.616      -34.224      -12.053       12.347       11.303        9.588      152.458      127.753       91.935        0.370        0.019       83.001        7.051        0.007      333.041        2.098      867.770
11/01/2013  04:41:00      -75.745      -23.486      -11.121       16.910       12.637        8.399      285.953      159.696       70.548        0.346        0.026       79.302        4.244        0.003      333.084        2.165      867.780
11/01/2013  04:42:00      -90.307      -39.355       -6.792       15.232       13.917        7.428      232.008      193.675       55.174        0.512        0.024       98.510        6.937        0.005      333.108        2.208      867.784
11/01/2013  04:43:00      -94.684      -25.738      -12.986        8.206        9.874        5.908       67.334       97.493       34.900        0.500        0.010       98.120        1.848        0.000      333.051        2.110      867.785
11/01/2013  04:44:00      -79.286      -15.686      -10.680       12.683       11.287        7.232      160.852      127.397       52.301        0.349        0.017       80.822        3.585        0.002      333.107        2.206      867.782
11/01/2013  04:45:00     -105.111      -33.390      -15.076       12.101       11.515        7.557      146.446      132.589       57.108        0.636        0.017      110.287        4.654        0.002      333.073        2.152      867.786
11/01/2013  04:46:00      -89.727      -21.943      -10.270       15.854       12.210       12.800      251.353      149.089      163.841        0.460        0.028       92.371       10.033        0.012      333.057        2.123      867.805
11/01/2013  04:47:00      -86.551      -39.685       -8.066       12.717       10.045        7.952      161.728      100.905       63.235        0.473        0.016       95.216        6.941        0.005      333.098        2.192      867.805
11/01/2013  04:48:00      -94.903      -18.921      -10.856       15.674       11.929        7.843      245.679      142.297       61.507        0.497        0.022       96.771        5.795        0.004      333.142        2.261      867.803
11/01/2013  04:49:00      -88.495      -34.251      -10.803       14.318       18.650        9.372      205.008      347.810       87.829        0.488        0.032       94.892        7.584        0.006      333.209        2.374      867.796
11/01/2013  04:50:00      -88.217      -43.231       -8.854       10.655       13.378        8.874      113.523      178.960       78.744        0.505        0.019       98.240        6.846        0.005      333.183        2.327      867.788
11/01/2013  04:51:00      -95.696      -36.038      -10.581        9.919       10.116        7.740       98.388      102.333       59.903        0.541        0.013      102.257        4.718        0.002      333.213        2.379      867.786
11/01/2013  04:52:00      -93.953      -20.596      -11.917       11.155       16.000        9.830      124.425      255.991       96.633        0.494        0.024       96.183        6.364        0.004      333.198        2.355      867.777
11/01/2013  04:53:00      -96.739      -33.592      -10.059        7.208       12.190        7.022       51.954      148.588       49.304        0.542        0.012      102.405        3.634        0.001      333.177        2.320      867.770
11/01/2013  04:54:00      -97.753      -19.205       -7.761        9.860       11.989        9.056       97.210      143.741       82.011        0.515        0.016       99.621        3.422        0.001      333.146        2.268      867.765
11/01/2013  04:55:00      -87.387      -27.580       -6.329       13.560       10.237        9.989      183.868      104.803       99.774        0.441        0.019       91.636        5.502        0.004      333.149        2.275      867.782
11/01/2013  04:56:00      -83.048      -13.061       -5.571       16.864       13.300        9.213      284.396      176.881       84.871        0.382        0.027       84.069        7.442        0.008      333.109        2.208      867.790
11/01/2013  04:57:00      -68.368      -21.627       -0.508       14.726       16.686       12.854      216.851      278.425      165.226        0.290        0.033       71.708        8.128        0.013      333.042        2.097      867.796
11/01/2013  04:58:00      -94.371      -41.391       -1.510       15.770       18.992       11.858      248.685      360.696      140.619        0.569        0.037      103.049       10.307        0.010      333.084        2.165      867.790
11/01/2013  04:59:00     -104.688      -40.512       -5.028       11.134       14.255        7.854      123.966      203.204       61.678        0.651        0.019      112.254        3.209        0.001      333.058        2.126      867.789
11/01/2013  05:00:00      -83.248      -39.521       -0.921       20.781       16.044       14.720      431.858      257.414      216.691        0.470        0.045       92.153       13.040        0.020      333.021        2.062      867.793
11/01/2013  05:01:00      -91.645      -44.846       -6.474       11.437        9.996        9.035      130.809       99.920       81.627        0.538        0.016      102.030        7.646        0.006      333.020        2.061      867.800
11/01/2013  05:02:00     -101.351      -47.222       -7.821       10.041       11.893        7.317      100.814      141.436       53.543        0.643        0.015      111.812        4.435        0.002      333.037        2.089      867.810
11/01/2013  05:03:00      -94.535      -31.432       -3.034       11.371       20.530        7.971      129.299      421.469       63.533        0.527        0.031       99.623        5.369        0.003      333.038        2.092      867.824
11/01/2013  05:04:00      -82.582      -34.039       -9.802       11.153       10.090        7.884      124.401      101.801       62.152        0.418        0.014       89.322        6.134        0.005      333.014        2.051      867.836
11/01/2013  05:05:00      -56.633      -33.791       -2.202       16.429       10.970        9.832      269.913      120.349       96.673        0.242        0.024       65.948        9.532        0.021      333.086        2.172      867.859
11/01/2013  05:06:00      -35.750      -20.843        3.572       18.483       10.338       10.641      341.619      106.868      113.221        0.114        0.028       41.382       11.458        0.077      333.064        2.136      867.883
11/01/2013  05:07:00      -40.650      -14.541       -0.936       20.600       11.755        8.408      424.369      138.183       70.688        0.125        0.032       43.172        7.935        0.034      332.999        2.028      867.904
11/01/2013  05:08:00      -78.951      -33.089       -8.045       14.282       10.149        9.013      203.961      103.009       81.228        0.389        0.019       85.605        2.403        0.001      332.967        1.974      867.911
11/01/2013  05:09:00      -95.229      -43.382      -11.503       14.081       14.528        9.550      198.279      211.056       91.203        0.579        0.025      104.645        3.664        0.001      332.918        1.894      867.919
11/01/2013  05:10:00      -91.326      -37.867       -3.395       18.142       15.667       11.408      329.134      245.470      130.154        0.525        0.035       98.865        4.648        0.002      332.940        1.929      867.940
11/01/2013  05:11:00      -78.843      -41.233       -5.943       18.218       13.209       14.181      331.884      174.487      201.093        0.433        0.035       88.974        9.654        0.012      332.875        1.824      867.950
11/01/2013  05:12:00      -80.154      -28.783       -6.267       11.275       14.794        9.185      127.130      218.856       84.363        0.386        0.022       85.165        6.260        0.005      332.921        1.899      867.956
11/01/2013  05:13:00      -58.528      -38.120       -2.353       19.833       11.626       10.017      393.350      135.172      100.347        0.276        0.031       69.847        7.398        0.011      332.959        1.961      867.961
11/01/2013  05:14:00      -60.923      -25.037       -6.348       10.024       10.726        7.689      100.478      115.054       59.116        0.233        0.014       65.867        2.687        0.002      332.933        1.920      867.966
11/01/2013  05:15:00      -60.958      -30.836      -10.378       13.254       10.975       10.050      175.663      120.448      101.002        0.259        0.020       68.313        7.394        0.012      332.969        1.976      867.981
11/01/2013  05:16:00      -42.579      -26.819       -5.557       16.106        8.702        6.419      259.401       75.729       41.204        0.147        0.019       50.321        5.238        0.011      332.967        1.974      868.007
11/01/2013  05:17:00      -14.864      -24.088       -2.614       15.684       10.307       12.238      245.991      106.241      149.765        0.065        0.025       28.305        4.112        0.021      332.974        1.984      868.020
11/01/2013  05:18:00      -31.457      -18.773        2.750       20.340       11.452       11.198      413.719      131.145      125.397        0.101        0.034       36.633       11.311        0.095      332.973        1.984      868.036
11/01/2013  05:19:00      -67.419      -26.464       -7.927        7.058        9.690        5.917       49.815       93.897       35.014        0.274        0.009       72.427        2.354        0.001      332.959        1.960      868.048
11/01/2013  05:20:00      -60.456      -17.280       -7.631       12.236       10.872        7.216      149.730      118.200       52.070        0.217        0.016       62.878        2.140        0.001      332.882        1.834      868.075
11/01/2013  05:21:00      -51.567      -23.800       -6.054       12.943       10.929        7.123      167.521      119.441       50.743        0.180        0.017       56.795        4.564        0.006      332.957        1.957      868.101
11/01/2013  05:22:00      -43.215      -15.066       -2.433       12.240       12.113        7.922      149.819      146.719       62.757        0.123        0.018       45.766        5.760        0.016      332.940        1.931      868.122
11/01/2013  05:23:00      -26.634       -8.212       -1.029       12.189       10.296        6.575      148.564      106.000       43.225        0.054        0.015       27.871        4.459        0.026      332.954        1.953      868.125
11/01/2013  05:24:00      -23.172       -2.669       -2.209        7.745        6.321        7.574       59.986       39.949       57.373        0.035        0.008       23.325        5.034        0.047      332.928        1.909      868.120
11/01/2013  05:25:00      -48.125       -6.220       -9.273        9.696        6.149        6.218       94.021       37.812       38.667        0.131        0.009       48.526        2.516        0.003      333.025        2.070      868.103
11/01/2013  05:26:00      -61.604      -18.292      -11.508        8.726        8.369        7.898       76.142       70.036       62.384        0.224        0.010       64.262        3.996        0.004      333.018        2.060      868.094
11/01/2013  05:27:00      -66.444      -13.697       -9.755        6.418        8.729        6.596       41.187       76.200       43.507        0.243        0.008       67.842        2.507        0.001      332.991        2.011      868.098
11/01/2013  05:28:00      -70.370      -31.217       -9.560       10.627       10.712        7.853      112.932      114.751       61.667        0.315        0.014       76.983        3.920        0.003      332.810        1.716      868.108
11/01/2013  05:29:00      -82.853      -32.433      -14.243       13.819       13.395       12.089      190.964      179.431      146.133        0.432        0.026       88.974        6.548        0.005      332.774        1.655      868.117
11/01/2013  05:30:00      -79.189      -48.618       -7.594       16.818       12.629       13.318      282.855      159.485      177.374        0.466        0.031       92.922        8.310        0.008      332.727        1.578      868.124
11/01/2013  05:31:00      -72.370      -42.198       -7.614       21.628       15.028       12.240      467.759      225.832      149.810        0.396        0.042       83.775        3.460        0.002      332.739        1.597      868.129
11/01/2013  05:32:00      -74.897      -30.313       -6.598       17.965       13.949       13.614      322.758      194.586      185.342        0.364        0.035       80.799        8.540        0.011      332.706        1.543      868.139
11/01/2013  05:33:00      -80.578      -18.310      -14.701       22.355       21.184       10.354      499.744      448.770      107.208        0.405        0.053       82.632        6.346        0.006      332.681        1.501      868.157
11/01/2013  05:34:00      -73.624      -29.600       -1.056       14.767       20.122       14.605      218.056      404.897      213.316        0.357        0.042       79.352        7.851        0.010      332.734        1.590      868.175
11/01/2013  05:35:00      -86.810      -20.175      -10.742       14.268       14.779       11.709      203.571      218.425      137.103        0.431        0.028       89.123        6.468        0.005      332.756        1.627      868.193
11/01/2013  05:36:00      -37.773      -30.254       -7.162       21.336       15.758       17.788      455.217      248.328      316.418        0.171        0.051       48.395       14.657        0.092      332.787        1.678      868.217
11/01/2013  05:37:00      -63.870      -20.585        3.611       29.528       13.173       16.009      871.887      173.521      256.289        0.291        0.065       67.105       15.895        0.056      332.731        1.584      868.234
11/01/2013  05:38:00      -91.267      -24.402      -10.289       15.446       13.761       10.964      238.567      189.371      120.208        0.479        0.027       94.473        7.978        0.007      332.721        1.568      868.243
11/01/2013  05:39:00      -95.962      -27.131       -9.639       10.652       10.792        9.852      113.458      116.461       97.054        0.518        0.016       99.724        4.570        0.002      332.705        1.542      868.254
11/01/2013  05:40:00      -92.093      -10.759      -13.005       19.351       14.659       13.689      374.444      214.899      187.375        0.477        0.039       92.719       11.726        0.016      332.580        1.335      868.270
11/01/2013  05:41:00      -77.930      -19.021       -7.418       15.780       13.569       11.447      248.996      184.123      131.034        0.353        0.028       80.217        6.790        0.007      332.609        1.384      868.283
11/01/2013  05:42:00      -69.627      -17.490       -8.522       15.715       15.708       11.696      246.970      246.726      136.791        0.293        0.032       71.790        8.612        0.014      332.650        1.452      868.294
11/01/2013  05:43:00      -70.361      -26.656      -16.196       18.673       15.221       16.233      348.673      231.664      263.525        0.338        0.042       75.241       10.306        0.019      332.657        1.462      868.301
11/01/2013  05:44:00      -70.451      -19.752       -9.262       14.645       16.597       11.646      214.477      275.469      135.629        0.303        0.031       73.168        7.684        0.011      332.688        1.514      868.300
11/01/2013  05:45:00      -59.876      -15.480      -15.629        9.025        7.762        6.278       81.447       60.246       39.415        0.213        0.009       61.845        3.587        0.003      332.753        1.620      868.299
11/01/2013  05:46:00      -54.033      -22.829       -7.646       12.426       13.583       10.078      154.400      184.502      101.571        0.197        0.022       58.658        4.417        0.006      332.745        1.608      868.309
11/01/2013  05:47:00      -68.136      -11.790       -9.860        7.825        9.272        6.780       61.237       85.968       45.974        0.254        0.010       69.148        4.746        0.005      332.711        1.552      868.316
11/01/2013  05:48:00      -65.565       -5.671       -6.469        9.646       13.029       11.664       93.044      169.747      136.045        0.239        0.020       65.810        6.031        0.008      332.776        1.658      868.330
11/01/2013  05:49:00      -65.002       -1.796      -16.924        8.734       10.180        8.667       76.290      103.637       75.120        0.238        0.013       65.026        2.766        0.002      332.701        1.535      868.339
11/01/2013  05:50:00      -59.886      -17.927      -11.485       12.160       14.548        9.416      147.858      211.645       88.657        0.224        0.022       62.511        6.996        0.013      332.728        1.579      868.343
11/01/2013  05:51:00      -65.526      -19.117       -5.974       12.880       11.247        9.799      165.902      126.492       96.012        0.254        0.019       68.258        5.346        0.006      332.724        1.572      868.352
11/01/2013  05:52:00      -69.629      -21.422      -10.141       20.128       11.586        8.898      405.134      134.229       79.179        0.301        0.031       72.850        8.063        0.012      332.785        1.676      868.354
11/01/2013  05:53:00      -94.037      -20.633      -11.888       14.965       14.466        9.183      223.950      209.272       84.331        0.496        0.026       96.274        6.777        0.005      332.771        1.650      868.362
11/01/2013  05:54:00      -80.842      -11.521       -9.075       13.658       14.524       11.141      186.528      210.950      124.112        0.364        0.026       81.659        7.859        0.009      332.734        1.590      868.368
11/01/2013  05:55:00      -78.135      -26.558      -10.331       13.569       13.577        9.244      184.108      184.323       85.443        0.369        0.023       82.525        4.858        0.003      332.788        1.680      868.372
11/01/2013  05:56:00      -72.372      -31.413       -2.936       24.525       20.456       13.966      601.477      418.443      195.046        0.372        0.061       78.895       13.717        0.030      332.810        1.717      868.377
11/01/2013  05:57:00      -73.009      -18.227        2.214       26.135       17.779       13.884      683.052      316.099      192.754        0.343        0.060       75.250       14.290        0.036      332.828        1.746      868.382
11/01/2013  05:58:00      -49.603      -20.359        3.100       34.231       22.654       16.175     1171.736      513.216      261.631        0.242        0.097       53.618       15.111        0.079      332.772        1.653      868.384
11/01/2013  05:59:00      -86.598      -50.981       -3.424       30.775       15.288       14.600      947.128      233.735      213.167        0.575        0.070      100.490       15.715        0.024      332.784        1.672      868.383
11/01/2013  06:00:00      -67.812      -49.059        2.818       38.238       22.775       19.028     1462.158      518.718      362.070        0.468        0.117       83.698       13.190        0.025      332.747        1.610      868.395
11/01/2013  06:01:00     -109.502      -59.417       -3.425       25.103       22.415       15.252      630.160      502.421      232.629        0.845        0.068      124.584       14.018        0.013      332.702        1.536      868.403
11/01/2013  06:02:00      -69.043      -43.868        3.517       43.217       24.296       18.803     1867.669      590.307      353.570        0.476        0.141       81.800       21.529        0.069      332.643        1.440      868.419
11/01/2013  06:03:00      -94.434      -53.260       -7.881       18.880       20.809       14.339      356.462      433.019      205.602        0.641        0.050      108.417        8.653        0.006      332.682        1.503      868.428
11/01/2013  06:04:00     -114.886      -54.847      -10.270       26.969       25.487       16.457      727.308      649.579      270.841        0.898        0.082      127.306       15.478        0.015      332.729        1.581      868.443
11/01/2013  06:05:00      -98.867      -63.333       -4.570       31.911       25.140       18.737     1018.298      632.008      351.079        0.790        0.100      117.413       19.112        0.026      332.793        1.687      868.444
11/01/2013  06:06:00      -97.065      -41.422        3.090       25.177       23.453       18.989      633.901      550.066      360.582        0.635        0.077      105.534       14.646        0.019      332.802        1.703      868.441
11/01/2013  06:07:00      -95.896      -39.048       -0.865       21.934       21.355       13.486      481.097      456.056      181.873        0.592        0.056      103.541        8.718        0.007      332.832        1.751      868.437
11/01/2013  06:08:00      -78.706      -41.946        2.487       31.567       23.752       16.102      996.482      564.166      259.273        0.489        0.091       89.185       14.452        0.026      332.849        1.780      868.440
11/01/2013  06:09:00      -65.537      -48.285        6.175       35.159       24.131       18.711     1236.163      582.321      350.111        0.442        0.108       81.403       16.822        0.043      332.869        1.812      868.446
11/01/2013  06:10:00      -67.668      -45.438        2.503       27.164       23.349       17.585      737.881      545.162      309.249        0.412        0.080       81.508       16.720        0.042      332.832        1.751      868.448
11/01/2013  06:11:00      -58.898      -41.499       -2.998       34.107       21.846       15.746     1163.255      477.260      247.930        0.354        0.094       72.050        7.188        0.010      332.865        1.807      868.461
11/01/2013  06:12:00      -64.312      -35.046        5.156       33.087       25.370       19.326     1094.743      643.629      373.493        0.375        0.106       73.241       13.527        0.034      332.843        1.770      868.473
11/01/2013  06:13:00      -54.600      -38.170        4.740       37.399       31.715       21.513     1398.678     1005.813      462.804        0.366        0.143       66.619       20.412        0.094      332.861        1.799      868.480
11/01/2013  06:14:00      -69.722      -47.392        4.336       35.683       24.690       22.382     1273.278      609.614      500.972        0.475        0.119       84.304       20.488        0.059      332.865        1.806      868.481
11/01/2013  06:15:00      -31.003      -40.347        6.107       33.244       32.972       22.008     1105.145     1087.155      484.360        0.265        0.134       50.883       19.811        0.152      332.840        1.766      868.476
11/01/2013  06:16:00      -27.913      -37.295        4.323       32.767       21.711       17.139     1073.656      471.352      293.730        0.201        0.092       46.584       15.903        0.117      332.813        1.721      868.484
11/01/2013  06:17:00      -77.878      -57.071       -1.351       34.983       22.958       16.347     1223.798      527.086      267.213        0.567        0.101       96.551       15.866        0.027      332.859        1.797      868.489
11/01/2013  06:18:00      -53.747      -36.707        2.814       33.154       24.349       19.201     1099.187      592.877      368.687        0.315        0.103       65.086       16.201        0.062      332.857        1.793      868.502
11/01/2013  06:19:00      -30.719      -27.418        7.514       34.145       24.581       17.347     1165.871      604.201      300.911        0.191        0.104       41.175       14.877        0.131      332.861        1.801      868.514
11/01/2013  06:20:00      -35.674      -24.755        6.017       37.616       25.292       21.450     1414.952      639.672      460.097        0.222        0.126       43.421       19.878        0.210      332.864        1.805      868.524
11/01/2013  06:21:00       -8.569      -13.722       14.645       32.706       20.400       19.347     1069.698      416.171      374.313        0.117        0.093       16.178       19.393        1.437      332.846        1.775      868.520
11/01/2013  06:22:00      -32.982      -26.459        6.599       38.019       24.118       14.916     1445.444      581.677      222.473        0.204        0.112       42.283       18.371        0.189      332.779        1.664      868.517
11/01/2013  06:23:00      -28.454      -24.901        7.581       33.934       20.004       16.320     1151.491      400.146      266.359        0.165        0.091       37.811       17.883        0.224      332.751        1.618      868.513
11/01/2013  06:24:00      -78.743      -48.099       -1.940       28.477       23.226       14.445      810.961      539.450      208.671        0.504        0.078       92.271       11.826        0.016      332.781        1.668      868.515
11/01/2013  06:25:00      -77.971      -41.829        2.354       38.031       22.465       18.835     1446.337      504.686      354.769        0.507        0.115       88.482       18.146        0.042      332.708        1.547      868.512
11/01/2013  06:26:00      -97.460      -29.488       -9.244       27.222       18.419       14.265      741.044      339.254      203.476        0.587        0.064      101.823       10.802        0.011      332.723        1.572      868.512
11/01/2013  06:27:00     -102.543      -26.729        2.377       28.919       32.742       17.754      836.302     1072.026      315.213        0.673        0.111      105.970       17.950        0.029      332.720        1.567      868.498
11/01/2013  06:28:00     -113.075      -50.818        0.146       25.567       28.344       18.920      653.690      803.372      357.969        0.859        0.091      123.970       15.606        0.016      332.747        1.611      868.485
11/01/2013  06:29:00     -120.180      -45.107        4.300       38.596       29.379       17.374     1489.686      863.097      301.854        0.958        0.133      128.367       17.250        0.018      332.727        1.579      868.477
11/01/2013  06:30:00     -104.371      -36.908       -0.702       32.391       36.018       19.113     1049.185     1297.328      365.308        0.748        0.136      110.704       17.603        0.025      332.666        1.478      868.474
11/01/2013  06:31:00      -83.952      -27.646        3.274       42.100       23.375       18.185     1772.445      546.412      330.708        0.524        0.132       88.387       16.884        0.036      332.580        1.335      868.477
11/01/2013  06:32:00      -94.989      -18.131        4.249       38.783       26.615       23.484     1504.087      708.363      551.493        0.607        0.138       96.704       23.310        0.058      332.594        1.358      868.492
11/01/2013  06:33:00     -109.995      -28.132       -2.338       38.699       19.963       17.877     1497.579      398.535      319.591        0.756        0.111      113.536       19.831        0.031      332.581        1.337      868.501
11/01/2013  06:34:00     -121.003      -26.192       -4.657       27.896       27.962       17.579      778.210      781.871      309.028        0.861        0.093      123.805       15.910        0.017      332.677        1.495      868.501
11/01/2013  06:35:00     -118.347      -70.525       -4.717       20.219       24.231       15.176      408.811      587.161      230.315        1.011        0.061      137.767       11.746        0.007      332.682        1.502      868.495
11/01/2013  06:36:00      -90.195      -53.452        3.825       50.355       21.064       18.926     2535.606      443.695      358.176        0.717        0.167      104.844       23.349        0.050      332.792        1.686      868.495
11/01/2013  06:37:00      -93.486      -60.007       -0.877       31.834       20.293       16.770     1013.420      411.816      281.234        0.702        0.085      111.088       14.513        0.017      332.785        1.674      868.489
11/01/2013  06:38:00      -86.164      -42.901       -2.598       30.524       22.145       17.737      931.742      490.409      314.586        0.550        0.087       96.254       18.435        0.037      332.750        1.616      868.497
11/01/2013  06:39:00      -86.542      -17.901       -9.073       21.718       20.075       13.818      471.666      403.002      190.940        0.448        0.053       88.374       12.322        0.019      332.696        1.526      868.506
11/01/2013  06:40:00      -77.011       -7.310       -1.777       29.398       17.496       16.410      864.251      306.102      269.297        0.371        0.072       77.358       17.462        0.051      332.609        1.383      868.514
11/01/2013  06:41:00      -74.589      -17.067        3.021       23.637       22.486       14.965      558.711      505.624      223.940        0.358        0.064       76.517       13.408        0.031      332.588        1.347      868.515
11/01/2013  06:42:00      -82.356      -30.074       -5.346       19.531       15.745        8.776      381.456      247.896       77.023        0.421        0.035       87.676        7.991        0.008      332.651        1.452      868.508
11/01/2013  06:43:00      -74.994      -44.259       -1.686       20.541       14.803       15.006      421.945      219.127      225.182        0.423        0.043       87.080       11.635        0.018      332.671        1.486      868.496
11/01/2013  06:44:00      -71.252      -30.361        7.157       28.289       17.491       17.209      800.275      305.945      296.157        0.373        0.070       77.450       17.868        0.053      332.648        1.447      868.495
11/01/2013  06:45:00      -49.182      -31.567        3.641       32.196       23.081       19.738     1036.584      532.716      389.590        0.269        0.098       58.441       19.514        0.111      332.727        1.579      868.503
11/01/2013  06:46:00      -15.803      -23.056        5.184       27.854       23.871       17.659      775.866      569.817      311.828        0.123        0.083       27.952       13.713        0.241      332.716        1.560      868.525
11/01/2013  06:47:00      -23.473      -10.832       13.451       32.026       17.665       19.367     1025.636      312.048      375.082        0.128        0.086       25.852       17.008        0.433      332.648        1.447      868.546
11/01/2013  06:48:00      -58.752      -43.597        4.719       33.925       20.998       17.755     1150.899      440.932      315.247        0.364        0.095       73.160       19.691        0.072      332.583        1.340      868.563
11/01/2013  06:49:00      -31.423      -31.040        7.526       46.242       26.588       20.056     2138.282      706.916      402.255        0.263        0.162       44.169       21.228        0.231      332.539        1.266      868.570
11/01/2013  06:50:00      -48.129      -47.258        7.562       41.385       40.582       22.853     1712.679     1646.921      522.260        0.424        0.194       67.452       25.522        0.143      332.567        1.313      868.570
11/01/2013  06:51:00      -70.334      -57.786        8.269       43.940       35.728       22.978     1930.704     1276.514      527.984        0.604        0.187       91.028       19.598        0.046      332.681        1.502      868.566
11/01/2013  06:52:00      -63.668      -54.917        6.973       51.993       31.208       26.149     2703.317      973.963      683.749        0.574        0.218       84.081       29.454        0.123      332.776        1.659      868.568
11/01/2013  06:53:00      -84.663      -58.319       -3.106       34.007       21.891       18.107     1156.476      479.224      327.868        0.627        0.098      102.805       16.104        0.025      332.740        1.600      868.575
11/01/2013  06:54:00      -98.641      -54.980        1.728       44.392       30.620       23.010     1970.621      937.600      529.465        0.810        0.172      112.928       25.092        0.049      332.697        1.528      868.576
11/01/2013  06:55:00      -87.849      -44.784        4.673       40.581       30.738       22.011     1646.796      944.831      484.494        0.641        0.154       98.605       21.317        0.047      332.569        1.317      868.572
11/01/2013  06:56:00      -85.430      -44.748        3.427       32.942       25.119       19.603     1085.185      630.962      384.288        0.571        0.105       96.440       20.215        0.044      332.614        1.390      868.580
11/01/2013  06:57:00      -51.865      -31.284        7.513       28.218       22.056       17.424      796.282      486.462      303.595        0.266        0.079       60.570       13.781        0.052      332.648        1.447      868.581
11/01/2013  06:58:00      -50.544      -13.209        1.337       22.917       22.725       11.651      525.167      516.445      135.751        0.195        0.059       52.242       12.301        0.055      332.610        1.383      868.584
11/01/2013  06:59:00      -75.247       -8.388       -2.465       28.039       16.461       12.534      786.197      270.949      157.099        0.348        0.061       75.713       11.020        0.021      332.462        1.140      868.583
11/01/2013  07:00:00      -84.044      -12.739       -1.242       22.231       17.951       14.112      494.210      322.243      199.155        0.412        0.051       85.004       12.081        0.020      332.503        1.209      868.583
11/01/2013  07:01:00      -84.166      -20.923       -0.358       24.920       19.958       15.359      621.016      398.303      235.892        0.439        0.063       86.728       13.100        0.023      332.529        1.249      868.580
11/01/2013  07:02:00      -94.137      -22.205        0.568       28.764       28.662       15.982      827.359      821.515      255.410        0.563        0.095       96.720       15.770        0.027      332.544        1.275      868.585
11/01/2013  07:03:00     -119.787      -49.290       -6.220       30.095       24.091       16.744      905.707      580.384      280.354        0.929        0.088      129.531       15.688        0.015      332.599        1.367      868.596
11/01/2013  07:04:00      -94.275      -60.408        2.733       34.484       32.637       22.907     1189.127     1065.147      524.734        0.766        0.139      111.968       20.397        0.033      332.605        1.375      868.602
11/01/2013  07:05:00      -50.641      -43.004       10.512       41.018       29.919       20.216     1682.468      895.162      408.668        0.375        0.149       66.437       24.927        0.141      332.611        1.386      868.612
11/01/2013  07:06:00      -73.996      -42.843       -2.052       31.812       28.222       20.563     1011.984      796.482      422.823        0.477        0.112       85.504       18.459        0.047      332.565        1.310      868.620
11/01/2013  07:07:00      -66.683      -50.977        7.986       37.377       36.954       22.081     1397.074     1365.611      487.557        0.518        0.163       83.936       21.074        0.063      332.556        1.296      868.611
11/01/2013  07:08:00     -101.986      -45.407       -9.274       22.251       22.415       14.201      495.096      502.445      201.676        0.687        0.060      111.637        8.447        0.006      332.575        1.325      868.609
11/01/2013  07:09:00      -79.527      -48.129       -2.610       30.732       22.560       17.821      944.477      508.945      317.602        0.521        0.089       92.957       13.165        0.020      332.596        1.362      868.614
11/01/2013  07:10:00      -94.141      -40.527        2.961       35.882       22.793       19.354     1287.506      519.538      374.580        0.635        0.109      102.494       20.409        0.040      332.538        1.265      868.620
11/01/2013  07:11:00     -106.394      -57.251       -6.242       35.350       29.353       17.966     1249.612      861.585      322.795        0.853        0.122      120.819       17.072        0.020      332.543        1.273      868.631
11/01/2013  07:12:00      -84.373      -38.416       -7.429       33.955       17.991       12.131     1152.954      323.689      147.163        0.514        0.081       92.707        9.499        0.010      332.574        1.326      868.642
11/01/2013  07:13:00      -89.815      -36.370        1.888       21.919       23.851       12.884      480.459      568.874      166.005        0.530        0.061       96.899       12.413        0.016      332.651        1.452      868.644
11/01/2013  07:14:00      -75.320      -43.697        0.651       29.763       23.607       14.936      885.865      557.271      223.080        0.462        0.083       87.078        7.556        0.008      332.635        1.427      868.651
11/01/2013  07:15:00      -69.638      -34.477        6.990       36.799       24.186       17.388     1354.131      584.943      302.345        0.416        0.112       77.705       19.144        0.061      332.632        1.421      868.660
11/01/2013  07:16:00      -83.603      -27.688       -0.317       21.954       19.505       13.243      481.975      380.454      175.384        0.440        0.052       88.068       10.928        0.015      332.650        1.453      868.667
11/01/2013  07:17:00      -82.035      -42.368        0.169       24.737       19.420       15.919      611.926      377.153      253.407        0.488        0.062       92.330       16.074        0.030      332.696        1.527      868.663
11/01/2013  07:18:00      -69.216      -29.043        1.854       23.393       15.830       15.803      547.210      250.585      249.744        0.334        0.052       75.062       13.657        0.033      332.619        1.400      868.664
11/01/2013  07:19:00      -66.213      -13.269        0.229       26.108       18.000       13.361      681.633      324.010      178.510        0.287        0.059       67.530       10.930        0.026      332.595        1.360      868.656
11/01/2013  07:20:00      -43.094      -21.401        4.030       27.760       19.978       13.669      770.594      399.133      186.842        0.184        0.068       48.116       12.258        0.065      332.605        1.376      868.652
11/01/2013  07:21:00      -32.923      -14.318        3.734       26.549       26.317       15.396      704.873      692.571      237.031        0.147        0.082       35.902       14.980        0.174      332.562        1.304      868.653
11/01/2013  07:22:00      -74.766      -10.591       -4.802       18.751       11.219        9.618      351.612      125.875       92.514        0.315        0.029       75.513        7.677        0.010      332.496        1.195      868.651
11/01/2013  07:23:00      -63.832      -22.468        0.357       18.915       15.290        9.726      357.791      233.790       94.598        0.263        0.034       67.671        6.974        0.011      332.599        1.367      868.657
11/01/2013  07:24:00      -44.056      -31.228       -1.153       19.097       12.543        9.931      364.687      157.323       98.628        0.177        0.031       54.001        7.483        0.019      332.601        1.370      868.658
11/01/2013  07:25:00      -48.677      -23.118       -1.473       23.922        9.192        8.049      572.286       84.499       64.780        0.181        0.036       53.888        5.418        0.010      332.545        1.276      868.664
11/01/2013  07:26:00      -57.148      -38.986       -3.988       25.611       10.837       10.898      655.939      117.437      118.762        0.285        0.045       69.180        8.244        0.014      332.553        1.290      868.663
11/01/2013  07:27:00      -59.367      -57.647        2.564       30.438       29.909       19.966      926.456      894.519      398.641        0.454        0.111       82.750       20.050        0.059      332.597        1.362      868.660
11/01/2013  07:28:00      -83.866      -55.287        0.594       42.928       32.322       23.714     1842.801     1044.743      562.362        0.677        0.172      100.450       23.669        0.056      332.613        1.389      868.666
11/01/2013  07:29:00      -97.169      -59.701       -1.613       56.569       36.273       29.047     3200.106     1315.753      843.741        0.918        0.268      114.044       27.208        0.057      332.663        1.473      868.668
11/01/2013  07:30:00     -116.759      -87.966       -4.288       31.826       37.016       18.807     1012.888     1370.179      353.702        1.206        0.137      146.187       12.375        0.007      332.687        1.513      868.678
11/01/2013  07:31:00      -86.247      -90.444       -5.870       35.469       47.092       26.620     1258.050     2217.665      708.617        0.992        0.209      124.975       28.786        0.053      332.670        1.483      868.687
11/01/2013  07:32:00      -96.867      -91.849       -3.554       45.633       33.512       23.320     2082.340     1123.079      543.846        1.079        0.187      133.489       22.023        0.027      332.660        1.467      868.698
11/01/2013  07:33:00      -69.545      -84.202        2.272       37.292       33.564       28.172     1390.715     1126.525      793.642        0.762        0.166      109.208       27.607        0.064      332.621        1.403      868.706
11/01/2013  07:34:00      -43.076      -34.752        6.815       37.440       29.080       21.764     1401.758      845.654      473.666        0.291        0.136       55.347       25.013        0.204      332.596        1.362      868.707
11/01/2013  07:35:00      -72.775      -40.202        6.677       35.162       32.899       19.240     1236.394     1082.373      370.171        0.482        0.134       83.141       17.789        0.046      332.617        1.396      868.694
11/01/2013  07:36:00      -78.887      -23.112        6.393       31.146       17.211       19.981      970.049      296.225      399.245        0.423        0.083       82.203       10.326        0.016      332.541        1.270      868.694
11/01/2013  07:37:00      -56.239       -6.466        0.198       31.997       15.795       11.950     1023.800      249.473      142.798        0.231        0.071       56.610       12.198        0.046      332.414        1.059      868.687
11/01/2013  07:38:00      -78.275       -9.729       -8.601       21.439       13.274       12.161      459.639      176.187      147.900        0.354        0.039       78.877        6.935        0.008      332.427        1.083      868.689
11/01/2013  07:39:00      -40.575      -14.095       -0.681       35.787       21.132       17.348     1280.721      446.574      300.964        0.194        0.101       42.953       15.815        0.136      332.437        1.098      868.694
11/01/2013  07:40:00      -43.613      -10.526       -2.954       32.793       20.496       14.580     1075.352      420.094      212.564        0.186        0.085       44.866       14.655        0.107      332.396        1.031      868.697
11/01/2013  07:41:00      -75.692       -6.888       -3.406       34.415       22.519       20.908     1184.414      507.087      437.144        0.396        0.106       76.005       19.089        0.063      332.310        0.888      868.693
11/01/2013  07:42:00      -64.397       -5.031        3.504       42.370       28.114       21.390     1795.183      790.383      457.526        0.361        0.152       64.593       22.562        0.122      332.325        0.914      868.688
11/01/2013  07:43:00      -49.241      -24.577        5.475       29.533       23.599       15.821      872.207      556.900      250.319        0.237        0.084       55.033       11.598        0.044      332.415        1.063      868.680
11/01/2013  07:44:00      -42.999      -20.848        9.710       36.123       22.913       21.842     1304.890      524.995      477.094        0.234        0.115       47.786       22.640        0.224      332.527        1.246      868.674
11/01/2013  07:45:00      -68.085      -26.030       -1.583       28.225       24.969       15.105      796.667      623.428      228.156        0.348        0.082       72.892       14.658        0.040      332.487        1.181      868.668
11/01/2013  07:46:00      -62.432      -41.480        0.631       35.622       24.635       18.338     1268.942      606.868      336.288        0.392        0.111       74.955       16.355        0.048      332.526        1.244      868.672
11/01/2013  07:47:00      -54.602      -44.649        9.096       58.059       41.002       21.232     3370.829     1681.161      450.790        0.528        0.275       70.533       22.106        0.098      332.561        1.303      868.672
11/01/2013  07:48:00      -60.412      -64.656       -5.594       29.666       31.254       26.622      880.045      976.794      708.730        0.521        0.128       88.487       20.038        0.051      332.564        1.309      868.670
11/01/2013  07:49:00      -63.338      -54.769       -1.724       29.333       28.165       23.681      860.428      793.281      560.791        0.461        0.111       83.733       15.695        0.035      332.594        1.357      868.665
11/01/2013  07:50:00      -81.217      -71.205       -9.904       19.988       27.197       16.432      399.512      739.689      270.018        0.659        0.070      108.012       11.369        0.011      332.595        1.360      868.674
11/01/2013  07:51:00      -62.802      -37.450       -3.120       33.807       24.610       19.656     1142.922      605.632      386.347        0.375        0.107       73.120       18.864        0.067      332.641        1.436      868.695
11/01/2013  07:52:00      -57.481      -43.568       -7.831       34.940       14.286       12.302     1220.811      204.087      151.337        0.342        0.079       72.127       11.183        0.024      332.648        1.447      868.739
11/01/2013  07:53:00      -52.400      -36.725       -1.903       31.152       19.013       12.448      970.430      361.491      154.945        0.279        0.074       63.988       13.866        0.047      332.681        1.503      868.772
11/01/2013  07:54:00      -28.528      -30.053        0.121       36.566       16.412       17.336     1337.053      269.369      300.525        0.181        0.095       41.437       18.863        0.207      332.632        1.420      868.795
11/01/2013  07:55:00      -27.214      -28.842        7.045       19.583       19.190       12.863      383.481      368.267      165.455        0.127        0.046       39.654       11.793        0.088      332.741        1.600      868.809
11/01/2013  07:56:00      -17.814       -6.466        7.615       22.682       14.824       10.874      514.455      219.743      118.248        0.063        0.043       18.951       12.171        0.412      332.822        1.735      868.805
11/01/2013  07:57:00      -46.032      -26.615       -5.398       26.770       18.785       13.501      716.656      352.887      182.277        0.205        0.063       53.172        8.014        0.023      332.675        1.492      868.795
11/01/2013  07:58:00      -15.041      -29.390        7.837       21.143       16.875       15.153      447.034      284.767      229.627        0.106        0.048       33.015       12.261        0.138      332.759        1.631      868.811
11/01/2013  07:59:00      -40.809      -21.063       -0.390       22.710       14.126       13.113      515.732      199.539      171.954        0.150        0.044       45.924        7.582        0.027      332.723        1.573      868.822
11/01/2013  08:00:00      -43.842      -18.022       -0.295       17.259       14.882        9.666      297.888      221.487       93.434        0.143        0.031       47.401        8.202        0.030      332.742        1.603      868.819
11/01/2013  08:01:00      -47.021       15.202       -1.657       16.973       12.467        8.102      288.080      155.423       65.644        0.148        0.025       49.418        6.071        0.015      332.684        1.508      868.829
11/01/2013  08:02:00      -29.406       11.846        1.143       17.336       10.175       12.419      300.548      103.537      154.222        0.078        0.028       31.702       12.406        0.153      332.732        1.588      868.819
11/01/2013  08:03:00      -50.579        1.630       -6.103       12.717        8.719        9.157      161.734       76.021       83.857        0.146        0.016       50.605        4.126        0.007      332.772        1.652      868.826
11/01/2013  08:04:00      -32.832        6.392       -7.399       14.089       12.186        6.211      198.505      148.507       38.575        0.078        0.019       33.448        4.593        0.019      332.822        1.734      868.806
11/01/2013  08:05:00      -52.131       12.256       -0.426        9.031        7.257        6.686       81.555       52.657       44.702        0.152        0.009       53.553        2.821        0.003      332.797        1.695      868.799
11/01/2013  08:06:00      -35.168        4.180       -1.323        6.972        9.859        7.687       48.604       97.199       59.086        0.073        0.010       35.416        4.381        0.015      332.827        1.744      868.790
11/01/2013  08:07:00      -29.634        0.154       -1.613        8.815        9.605        6.165       77.703       92.265       38.008        0.054        0.010       29.634        5.102        0.030      332.878        1.827      868.791
11/01/2013  08:08:00      -44.533      -10.997       -4.191       13.357       10.529        9.183      178.416      110.870       84.331        0.125        0.019       45.870        5.578        0.015      332.867        1.810      868.800
11/01/2013  08:09:00      -15.408      -14.242       -2.406       25.386       13.655       10.076      644.474      186.447      101.529        0.069        0.047       20.982        9.084        0.187      332.931        1.914      868.814
11/01/2013  08:10:00      -10.997       -2.185        9.168        9.344        5.538        9.033       87.313       30.668       81.588        0.020        0.010       11.212        7.114        0.403      333.144        2.267      868.825
11/01/2013  08:11:00      -12.176       -3.315       -1.261        8.791        5.747        4.314       77.290       33.033       18.611        0.014        0.006       12.619        1.553        0.015      333.044        2.102      868.839
11/01/2013  08:12:00       -8.588        0.323        8.938       10.109       11.257       11.856      102.196      126.711      140.566        0.026        0.018        8.594        9.306        1.172      333.250        2.440      868.858
11/01/2013  08:13:00      -15.408       -0.720        8.238        7.550        6.125        8.795       57.002       37.520       77.349        0.024        0.009       15.425        6.770        0.193      333.235        2.417      868.873
11/01/2013  08:14:00      -25.723      -11.893       -1.122        9.115        6.945        4.313       83.090       48.239       18.598        0.048        0.007       28.340        3.951        0.019      333.042        2.098      868.884
11/01/2013  08:15:00      -30.592       -2.799       -2.761        8.101        9.134        6.568       65.631       83.435       43.143        0.057        0.010       30.720        2.873        0.009      333.001        2.029      868.884
11/01/2013  08:16:00      -43.026      -10.688       -6.462        8.465       10.670        6.760       71.664      113.859       45.697        0.112        0.012       44.334        4.125        0.009      333.042        2.099      868.895
11/01/2013  08:17:00      -34.206       -4.952        0.571        9.431        9.199        8.023       88.937       84.629       64.368        0.072        0.012       34.563        3.105        0.008      333.029        2.076      868.892
11/01/2013  08:18:00      -39.158      -12.476       -2.579       14.824       12.625        7.138      219.753      159.396       50.946        0.106        0.022       41.097        5.380        0.017      333.078        2.158      868.888
11/01/2013  08:19:00      -44.809      -21.158       -3.911       27.696       11.964        7.583      767.063      143.143       57.502        0.172        0.048       49.554        7.097        0.021      333.062        2.132      868.875
11/01/2013  08:20:00      -22.253      -22.619        0.184       24.043       13.571        9.791      578.081      184.180       95.858        0.093        0.043       31.730        6.641        0.044      333.120        2.227      868.857
11/01/2013  08:21:00      -12.679      -42.030        6.182       12.641       13.856       11.763      159.796      191.977      138.358        0.123        0.025       43.901        8.936        0.041      333.162        2.295      868.865
11/01/2013  08:22:00      -13.249      -22.762        5.429       16.285       12.174       14.553      265.207      148.197      211.785        0.067        0.031       26.337       14.438        0.301      333.274        2.481      868.883
11/01/2013  08:23:00      -24.317      -27.014        4.007       16.880       14.246        9.240      284.951      202.951       85.381        0.096        0.029       36.347        8.984        0.061      333.238        2.420      868.901
11/01/2013  08:24:00      -21.949       -7.569        3.994       29.185       13.756       11.724      851.784      189.230      137.451        0.087        0.059       23.218       13.277        0.327      333.446        2.765      868.906
11/01/2013  08:25:00      -72.233      -46.540        5.341       43.146       25.018       23.828     1861.580      625.878      567.757        0.523        0.153       85.928       23.484        0.075      333.221        2.394      868.904
11/01/2013  08:26:00      -62.711      -52.996       -3.639       37.573       24.342       17.798     1411.700      592.533      316.752        0.454        0.116       82.105       20.948        0.065      333.224        2.399      868.908
11/01/2013  08:27:00      -79.897      -78.459       -2.001       29.142       28.487       18.469      849.269      811.493      341.114        0.727        0.100      111.979       20.868        0.035      333.147        2.272      868.911
11/01/2013  08:28:00      -85.140      -74.724       -7.990       14.412       22.546        9.880      207.694      508.339       97.609        0.685        0.041      113.281        4.685        0.002      333.123        2.233      868.906
11/01/2013  08:29:00      -64.677      -89.584       -6.406       17.803       15.845       16.764      316.938      251.068      281.030        0.655        0.042      110.491       12.275        0.012      333.164        2.300      868.927
11/01/2013  08:30:00      -48.726      -72.457       -6.502       17.151       16.278       12.750      294.173      264.974      162.566        0.419        0.036       87.317        8.465        0.009      333.231        2.410      868.940
11/01/2013  08:31:00      -54.898      -67.399       -8.001       22.345       24.555       15.799      499.290      602.956      249.606        0.449        0.068       86.928       11.602        0.018      333.260        2.457      868.948
11/01/2013  08:32:00      -47.858      -38.253       -6.861       25.571       15.108       15.192      653.878      228.247      230.791        0.246        0.056       61.268       17.321        0.080      333.346        2.601      868.954
11/01/2013  08:33:00      -49.494      -51.469      -14.638       19.685       24.553       12.465      387.489      602.846      155.374        0.323        0.057       71.405       10.249        0.021      333.313        2.547      868.961
11/01/2013  08:34:00      -21.631      -29.408       -7.575       14.018       18.018       10.443      196.517      324.645      109.058        0.101        0.032       36.507        8.690        0.057      333.398        2.687      868.965
11/01/2013  08:35:00      -30.030      -28.358        1.576       22.121       23.662       14.896      489.343      559.882      221.886        0.149        0.064       41.303       14.023        0.115      333.465        2.798      868.967
11/01/2013  08:36:00      -38.252      -65.980        3.971       24.999       22.140       14.085      624.962      490.165      198.377        0.357        0.066       76.266       10.840        0.020      333.377        2.652      868.971
11/01/2013  08:37:00      -25.274      -52.698        5.867       26.528       19.946       19.124      703.738      397.853      365.729        0.246        0.073       58.446       14.581        0.062      333.534        2.912      868.981
11/01/2013  08:38:00      -60.633      -51.252       -2.837       15.495       15.484       18.046      240.092      239.765      325.656        0.356        0.040       79.392       12.145        0.023      333.382        2.661      868.979
11/01/2013  08:39:00      -54.058      -66.944       -2.326       18.157       20.465       16.672      329.665      418.836      277.960        0.422        0.051       86.045       12.185        0.020      333.412        2.708      868.980
11/01/2013  08:40:00      -71.877      -85.116       -6.292       25.472       24.955       18.854      648.824      622.760      355.489        0.704        0.081      111.405       15.872        0.020      333.394        2.680      868.983
11/01/2013  08:41:00      -46.724      -72.080       -4.759       31.222       34.571       17.462      974.796     1195.128      304.910        0.494        0.124       85.899       16.190        0.036      333.462        2.791      868.987
11/01/2013  08:42:00      -36.286      -49.815       -5.044       22.715       18.756       19.070      515.977      351.779      363.681        0.253        0.062       61.630       17.385        0.080      333.555        2.944      868.986
11/01/2013  08:43:00       -2.243      -36.011       -2.070        7.951       14.474       12.461       63.214      209.497      155.284        0.087        0.021       36.081        3.657        0.010      333.625        3.061      868.987
11/01/2013  08:44:00      -40.681      -53.808       -5.344       16.555       26.304       12.051      274.082      691.883      145.229        0.284        0.056       67.455        7.697        0.013      333.570        2.970      868.996
11/01/2013  08:45:00      -21.432      -29.847       -5.249       10.992       17.498       12.250      120.824      306.186      150.071        0.098        0.029       36.745        3.207        0.008      333.716        3.213      869.001
11/01/2013  08:46:00      -17.504      -41.540       -2.798       16.775       20.314       12.666      281.414      412.641      160.430        0.145        0.043       45.077        7.033        0.024      333.712        3.207      869.000
11/01/2013  08:47:00      -38.898      -26.009       -8.543       19.912       18.660        8.959      396.493      348.183       80.256        0.154        0.041       46.792        6.336        0.018      333.645        3.095      868.996
11/01/2013  08:48:00      -60.266      -41.011       -6.762        8.393        9.825        6.978       70.438       96.536       48.689        0.279        0.011       72.897        5.605        0.006      333.672        3.140      869.001
11/01/2013  08:49:00      -47.651      -32.088       -7.202       10.958       19.939        8.193      120.073      397.555       67.128        0.197        0.029       57.448        6.233        0.012      333.702        3.190      869.001
11/01/2013  08:50:00      -56.873      -11.280       -5.140       14.724       13.839        8.750      216.800      191.505       76.565        0.194        0.024       57.981        8.751        0.023      333.739        3.252      868.988
11/01/2013  08:51:00      -36.031      -36.652        2.133       24.970       17.170       10.390      623.520      294.792      107.944        0.184        0.051       51.397       11.095        0.047      333.843        3.424      868.984
11/01/2013  08:52:00      -62.576      -39.435       -0.739       23.235       16.254       14.787      539.853      264.178      218.649        0.325        0.051       73.965       14.966        0.041      333.919        3.549      868.977
11/01/2013  08:53:00      -51.674        1.299       -0.594       16.975       21.540       13.149      288.165      463.953      172.904        0.180        0.046       51.690        8.219        0.025      333.887        3.497      868.971
11/01/2013  08:54:00      -15.258      -30.228        1.149       15.837       12.169        9.608      250.805      148.088       92.310        0.082        0.025       33.861        5.892        0.030      333.991        3.670      868.979
11/01/2013  08:55:00      -36.747       -2.473       -5.082       20.524       16.173       12.513      421.244      261.555      156.581        0.111        0.042       36.830        5.142        0.019      334.031        3.735      868.996
11/01/2013  08:56:00      -33.208       -8.914       -1.739        7.401        7.261        5.146       54.775       52.722       26.484        0.066        0.007       34.383        2.734        0.006      334.022        3.721      869.009
11/01/2013  08:57:00      -19.264        4.849        0.974       10.503        7.271        6.055      110.323       52.864       36.658        0.030        0.010       19.865        6.078        0.094      334.195        4.007      869.007
11/01/2013  08:58:00      -34.230        0.502       -5.703        9.138       10.874        6.678       83.495      118.238       44.600        0.073        0.012       34.234        2.575        0.006      334.206        4.027      869.004
11/01/2013  08:59:00      -30.807       -9.205       -6.168       10.570       11.096        6.335      111.722      123.111       40.131        0.067        0.014       32.153        2.373        0.005      334.266        4.126      869.001
11/01/2013  09:00:00      -28.414        5.447       -5.113       13.449       11.104       12.611      180.880      123.309      159.047        0.066        0.023       28.932        3.304        0.013      334.304        4.190      869.003
11/01/2013  09:01:00      -19.634       10.289      -12.957       10.046        7.874        6.080      100.924       61.999       36.962        0.043        0.010       22.166        3.340        0.023      334.473        4.470      869.003
11/01/2013  09:02:00      -16.265        7.063       -9.846       13.596       14.291        8.462      184.843      204.235       71.607        0.044        0.023       17.733        6.334        0.128      334.576        4.641      868.999
11/01/2013  09:03:00      -33.581       -5.818       -0.890        8.211        7.146        4.762       67.423       51.072       22.679        0.065        0.007       34.081        3.183        0.009      334.416        4.375      869.005
11/01/2013  09:04:00      -15.681      -10.479       -1.193       13.354       17.431       10.074      178.318      303.841      101.482        0.047        0.029       18.861        9.740        0.267      334.545        4.589      868.998
11/01/2013  09:05:00      -26.332       -5.095       -4.313       11.402       12.689        7.444      130.011      161.004       55.413        0.054        0.017       26.820        3.136        0.014      334.548        4.595      868.992
11/01/2013  09:06:00      -47.685       -5.357       -1.098       16.613       11.839        8.745      275.994      140.171       76.481        0.140        0.025       47.985        3.992        0.007      334.500        4.514      868.978
11/01/2013  09:07:00      -44.048      -21.256       -4.845       25.219       21.908       13.100      635.998      479.962      171.611        0.185        0.064       48.909        7.262        0.022      334.507        4.526      868.971
11/01/2013  09:08:00       -7.960        0.465        1.632       17.798       18.943       14.156      316.757      358.849      200.390        0.047        0.044        7.973       11.003        1.904      334.930        5.228      868.974
11/01/2013  09:09:00       -8.377       23.394       17.023       14.257       17.821       23.556      203.275      317.599      554.869        0.099        0.054       24.849       15.621        0.395      335.025        5.385      868.980
11/01/2013  09:10:00       -5.001       22.494       -5.839       19.071       24.561       23.735      363.699      603.264      563.348        0.105        0.077       23.043       16.537        0.515      334.974        5.302      868.982
11/01/2013  09:11:00       -0.210       22.908       10.883       10.881       17.638       21.127      118.396      311.113      446.345        0.076        0.044       22.909       12.012        0.275      335.246        5.752      868.972
11/01/2013  09:12:00       -4.048       32.566       53.342       15.514       23.015       11.172      240.672      529.670      124.813        0.241        0.045       32.817        9.445        0.083      335.341        5.910      868.967
11/01/2013  09:13:00       61.104       44.567       13.892       29.187       26.245       24.579      851.910      688.793      604.119        0.403        0.107       75.630       14.973        0.039      334.818        5.043      868.940
11/01/2013  09:14:00       48.469       51.323       18.719       28.584       18.600       25.810      817.032      345.956      666.162        0.358        0.091       70.593       12.842        0.033      335.050        5.426      868.908
11/01/2013  09:15:00       47.625       28.216       12.625       23.830       19.306       22.208      567.862      372.703      493.196        0.233        0.072       55.356       13.670        0.061      335.153        5.598      868.881
11/01/2013  09:16:00       26.122       -8.047       19.293       46.766       28.762       26.035     2187.079      827.270      677.835        0.241        0.185       27.334       19.469        0.507      335.238        5.739      868.869
11/01/2013  09:17:00       63.866       57.741        4.224       38.191       31.479       32.439     1458.568      990.922     1052.283        0.547        0.175       86.098       15.511        0.032      334.935        5.237      868.859
11/01/2013  09:18:00       60.775       64.176       16.290       34.408       32.370       30.932     1183.934     1047.835      956.775        0.563        0.159       88.387       13.302        0.023      335.114        5.532      868.848
11/01/2013  09:19:00       81.709       77.103       34.950       61.265       53.404       39.050     3753.416     2851.971     1524.871        1.099        0.407      112.344       29.218        0.068      335.112        5.530      868.858
11/01/2013  09:20:00      101.479       81.104       45.299       43.719       42.130       42.003     1911.319     1774.976     1764.230        1.219        0.273      129.907       36.706        0.080      334.814        5.034      868.871
11/01/2013  09:21:00       68.207       69.645        1.369       35.851       23.908       29.150     1285.326      571.571      849.697        0.611        0.135       97.482       17.127        0.031      334.761        4.945      868.865
11/01/2013  09:22:00       32.691       60.699       52.983       39.306       36.198       41.606     1544.945     1310.273     1731.035        0.607        0.229       68.943       35.573        0.266      335.139        5.575      868.850
11/01/2013  09:23:00       39.383       53.896       75.672       37.710       36.064       24.395     1422.080     1300.627      595.108        0.675        0.166       66.751       15.215        0.052      335.222        5.714      868.844
11/01/2013  09:24:00       48.306       36.511       56.953       32.736       36.872       31.208     1071.652     1359.522      973.914        0.516        0.170       60.552       29.592        0.239      335.047        5.423      868.827
11/01/2013  09:25:00       72.516       24.124       22.264       40.249       40.557       29.572     1619.987     1644.849      874.503        0.524        0.207       76.423       26.906        0.124      335.043        5.415      868.814
11/01/2013  09:26:00       53.856       40.857       56.244       44.276       37.463       31.276     1960.334     1403.460      978.216        0.604        0.217       67.600       29.300        0.188      335.106        5.520      868.793
11/01/2013  09:27:00       53.242       63.043       53.632       51.125       47.900       33.490     2613.788     2294.399     1121.610        0.786        0.301       82.518       27.982        0.115      335.153        5.599      868.787
11/01/2013  09:28:00       74.444       34.673       21.345       53.878       36.707       26.797     2902.884     1347.399      718.098        0.608        0.248       82.122       31.407        0.146      334.936        5.239      868.769
11/01/2013  09:29:00       39.075       99.511       89.785       43.550       32.544       21.101     1896.570     1059.122      445.262        1.145        0.170      106.908       16.864        0.025      335.074        5.468      868.749
11/01/2013  09:30:00      102.646       83.566       58.518       46.191       30.365       33.674     2133.623      922.004     1133.916        1.257        0.209      132.361       29.502        0.050      335.057        5.438      868.736
11/01/2013  09:31:00       56.979       53.372       44.831       45.728       31.753       33.594     2091.053     1008.281     1128.536        0.617        0.211       78.072       28.174        0.130      335.315        5.866      868.732
11/01/2013  09:32:00       10.664       43.382       70.414       37.663       40.241       36.336     1418.465     1619.357     1320.330        0.566        0.218       44.673       29.661        0.441      335.730        6.558      868.729
11/01/2013  09:33:00       33.558       80.757       87.020       43.013       41.154       36.777     1850.135     1693.638     1352.561        1.006        0.245       87.452       35.512        0.165      335.286        5.820      868.741
11/01/2013  09:34:00       31.777       29.204       58.840       36.115       34.248       20.657     1304.285     1172.921      426.725        0.411        0.145       43.158       21.069        0.238      335.444        6.082      868.750
11/01/2013  09:35:00       32.508       15.345       24.053       40.795       37.862       23.743     1664.245     1433.511      563.749        0.277        0.183       35.948       22.447        0.390      335.419        6.040      868.740
11/01/2013  09:36:00       33.443       57.691       65.736       58.737       32.784       31.947     3450.018     1074.771     1020.626        0.716        0.277       66.683       28.055        0.177      335.632        6.394      868.729
11/01/2013  09:37:00       27.732       96.482       98.078       54.711       32.689       34.329     2993.239     1068.556     1178.481        1.247        0.262      100.388       34.616        0.119      335.358        5.938      868.702
11/01/2013  09:38:00       54.219      126.009      114.388       66.786       41.403       39.639     4460.305     1714.200     1571.268        1.982        0.387      137.178       36.691        0.072      335.263        5.779      868.685
11/01/2013  09:39:00      102.720      105.249       51.675       35.943       20.653       39.421     1291.919      426.543     1553.979        1.379        0.164      147.067       20.613        0.020      335.180        5.642      868.677
11/01/2013  09:40:00      112.472       81.500       37.164       35.211       20.762       31.476     1239.849      431.071      990.746        1.167        0.133      138.896       20.066        0.021      335.158        5.606      868.680
11/01/2013  09:41:00        9.802       37.380       64.486       29.169       43.345       33.605      850.858     1878.832     1129.281        0.475        0.193       38.644       28.748        0.553      335.678        6.473      868.680
11/01/2013  09:42:00       40.251       12.891       20.161       51.589       43.024       32.906     2661.410     1851.104     1082.783        0.389        0.280       42.265       20.598        0.238      335.672        6.461      868.684
11/01/2013  09:43:00       44.032       58.218       38.269       36.259       29.245       48.815     1314.729      855.272     2382.945        0.567        0.228       72.994       18.278        0.063      335.642        6.412      868.690
11/01/2013  09:44:00      -15.229       32.506       63.225       15.871       33.818       31.122      251.900     1143.634      968.557        0.382        0.118       35.897       18.867        0.276      336.123        7.214      868.692
11/01/2013  09:45:00      -11.386        4.616       57.204       21.567       41.589       28.631      465.129     1729.637      819.707        0.322        0.151       12.286       28.154        5.251      336.063        7.113      868.704
11/01/2013  09:46:00       51.520       93.099       85.329       42.506       37.584       36.721     1806.762     1412.583     1348.441        1.158        0.228      106.404       31.954        0.090      335.528        6.222      868.703
11/01/2013  09:47:00       31.730       82.813       85.604       38.515       47.603       36.036     1483.408     2266.004     1298.618        1.012        0.252       88.684       28.500        0.103      335.734        6.564      868.704
11/01/2013  09:48:00       56.010       80.745       62.814       43.583       30.582       41.433     1899.504      935.273     1716.659        0.908        0.228       98.270       24.067        0.060      335.400        6.010      868.712
11/01/2013  09:49:00       99.399       85.555       54.284       28.519       29.092       36.099      813.314      846.325     1303.126        1.155        0.148      131.148       20.550        0.025      335.401        6.010      868.716
11/01/2013  09:50:00       67.899       50.148        3.676       24.594       21.509       19.136      604.867      462.646      366.202        0.429        0.072       84.410       13.347        0.025      335.266        5.785      868.709
11/01/2013  09:51:00       69.301       55.995       16.843       44.045       32.490       36.543     1939.926     1055.627     1335.401        0.628        0.217       89.096       18.392        0.043      335.528        6.222      868.715
11/01/2013  09:52:00       88.560       88.468       45.593       61.897       48.820       53.793     3831.281     2383.367     2893.723        1.343        0.455      125.178       48.394        0.149      335.601        6.343      868.705
11/01/2013  09:53:00       61.726      104.645       93.284       63.164       39.662       37.022     3989.655     1573.083     1370.655        1.520        0.347      121.494       38.164        0.099      335.659        6.440      868.696
11/01/2013  09:54:00      104.891       77.818       16.259       28.202       26.168       29.065      795.362      684.742      844.783        0.982        0.116      130.605        8.068        0.004      335.442        6.078      868.703
11/01/2013  09:55:00       84.574       54.986       13.190       44.166       37.614       34.297     1950.593     1414.805     1176.253        0.745        0.227      100.877       27.442        0.074      335.453        6.096      868.691
11/01/2013  09:56:00       68.043       65.864        2.367       30.049       26.125       29.954      902.933      682.497      897.266        0.573        0.124       94.699       17.464        0.034      335.609        6.357      868.692
11/01/2013  09:57:00       -1.322       36.369        7.298       23.174       37.753       20.164      537.027     1425.308      406.580        0.187        0.118       36.393       18.538        0.259      335.887        6.820      868.688
11/01/2013  09:58:00       33.201       42.738       19.274       40.012       46.162       31.345     1600.996     2130.976      982.529        0.401        0.236       54.119       19.280        0.127      335.922        6.878      868.679
11/01/2013  09:59:00       32.158       41.103       46.441       47.976       46.594       42.977     2301.700     2170.978     1847.048        0.560        0.316       52.188       25.376        0.236      335.977        6.970      868.664
11/01/2013  10:00:00       86.422       93.448       62.779       54.311       32.556       37.561     2949.677     1059.919     1410.839        1.278        0.271      127.285       31.084        0.060      335.707        6.519      868.654
11/01/2013  10:01:00       66.329       51.915       13.252       42.071       35.253       24.648     1769.968     1242.802      607.546        0.544        0.181       84.230       17.546        0.043      335.754        6.597      868.630
11/01/2013  10:02:00       -6.746       60.434       90.428       18.163       33.533       24.524      329.896     1124.453      601.441        0.697        0.103       60.809       23.761        0.153      336.079        7.141      868.602
11/01/2013  10:03:00       35.761       -0.965       29.595       41.977       59.481       38.652     1762.106     3538.014     1493.969        0.447        0.340       35.774       42.058        1.382      336.108        7.189      868.589
11/01/2013  10:04:00       -4.102       -5.972        0.446       22.913       23.755       28.662      524.994      564.277      821.510        0.098        0.096        7.244       25.275       12.172      336.019        7.040      868.570
11/01/2013  10:05:00       37.041       27.363       42.095       44.080       33.331       34.556     1943.024     1110.930     1194.147        0.407        0.212       46.052       34.114        0.549      336.095        7.167      868.557
11/01/2013  10:06:00       12.090        6.476       31.496       45.281       26.700       21.484     2050.408      712.898      461.575        0.220        0.161       13.715       21.863        2.541      336.573        7.966      868.545
11/01/2013  10:07:00       47.068       33.218       15.304       62.213       32.821       24.924     3870.500     1077.246      621.191        0.456        0.278       57.609       16.928        0.086      336.321        7.545      868.538
11/01/2013  10:08:00       79.104       67.616       21.891       50.870       34.011       40.599     2587.787     1156.743     1648.280        0.835        0.270      104.065       34.346        0.109      336.149        7.257      868.529
11/01/2013  10:09:00        4.661       20.080       49.867       21.974       29.501       32.460      482.865      870.335     1053.664        0.266        0.120       20.613       24.677        1.433      336.458        7.773      868.527
11/01/2013  10:10:00       31.648       61.783       76.285       57.654       44.353       25.515     3323.978     1967.210      651.009        0.829        0.297       69.417       25.643        0.136      336.124        7.216      868.521
11/01/2013  10:11:00       93.562       88.203       28.402       27.627       25.144       26.015      763.228      632.235      676.801        0.971        0.104      128.583       15.328        0.014      335.787        6.654      868.518
11/01/2013  10:12:00       91.092       69.431        3.488       25.134       24.304       25.385      631.707      590.693      644.405        0.750        0.093      114.536       11.084        0.009      335.793        6.663      868.512
11/01/2013  10:13:00       67.387       76.636        3.670       39.507       28.343       32.998     1560.810      803.346     1088.838        0.694        0.173      102.049       19.736        0.037      336.006        7.018      868.506
11/01/2013  10:14:00       83.641       59.251        7.060       27.714       22.543       27.662      768.074      508.197      765.188        0.630        0.102      102.502       10.967        0.011      335.829        6.725      868.497
11/01/2013  10:15:00       71.094       54.696       -8.845       21.102       22.083       22.162      445.281      487.650      491.153        0.477        0.071       89.699        7.602        0.007      335.873        6.796      868.484
11/01/2013  10:16:00       39.328       41.933        0.288       27.177       27.658       17.327      738.567      764.992      300.232        0.255        0.090       57.489       14.296        0.062      335.876        6.801      868.466
11/01/2013  10:17:00       43.459       54.852       67.532       40.415       37.980       34.063     1633.406     1442.479     1160.309        0.685        0.212       69.982       25.484        0.133      336.402        7.681      868.456
11/01/2013  10:18:00       71.196       10.763       25.059       33.797       42.562       31.534     1142.222     1811.523      994.404        0.488        0.197       72.005       22.985        0.102      336.307        7.521      868.440
11/01/2013  10:19:00       45.718       59.027       42.989       51.031       46.702       42.356     2604.196     2181.090     1794.015        0.700        0.329       74.662       32.870        0.194      336.357        7.604      868.434
11/01/2013  10:20:00       41.211       57.328       49.349       25.048       38.162       26.751      627.387     1456.337      715.625        0.511        0.140       70.603       10.261        0.021      336.262        7.446      868.441
11/01/2013  10:21:00       58.186     -100.285        9.511       27.606       29.494       29.511      762.093      869.883      870.898        0.802        0.125      115.943       19.698        0.029      336.039        7.073      868.429
11/01/2013  10:22:00       20.781      -38.348       21.138       18.918       40.003       32.353      357.891     1600.208     1046.698        0.268        0.150       43.617       30.771        0.498      336.474        7.799      868.428
11/01/2013  10:23:00        8.893      -48.674       -1.430       24.656       43.026       23.791      607.933     1851.233      565.990        0.274        0.151       49.480       21.316        0.186      336.275        7.468      868.416
11/01/2013  10:24:00       61.746       45.966       28.930       39.762       26.908       31.648     1581.011      724.028     1001.590        0.503        0.165       76.977       26.872        0.122      336.656        8.103      868.392
11/01/2013  10:25:00       34.029       61.246       81.287       44.761       56.355       32.500     2003.535     3175.929     1056.249        0.888        0.312       70.065       32.897        0.220      336.575        7.970      868.374
11/01/2013  10:26:00       45.694      108.494      101.446       53.037       38.293       38.817     2812.974     1466.359     1506.748        1.497        0.289      117.724       41.336        0.123      336.224        7.381      868.376
11/01/2013  10:27:00      102.242       80.545       15.855       54.914       36.597       34.883     3015.555     1339.342     1216.838        1.138        0.279      130.157       13.585        0.011      336.124        7.216      868.372
11/01/2013  10:28:00       30.175       60.525       84.201       43.759       56.457       51.014     1914.840     3187.403     2602.450        0.968        0.385       67.630       43.795        0.419      336.634        8.068      868.368
11/01/2013  10:29:00      106.932       93.317       59.619       33.002       25.634       36.859     1089.162      657.127     1358.611        1.340        0.155      141.924       20.024        0.020      336.198        7.338      868.366
11/01/2013  10:30:00       70.351       64.641       53.151       21.401       22.094       25.669      458.022      488.125      658.894        0.678        0.080       95.540       13.722        0.021      336.271        7.461      868.370
11/01/2013  10:31:00       24.291       21.756       60.569       34.848       36.395       28.900     1214.393     1324.623      835.205        0.405        0.169       32.610       24.879        0.582      336.733        8.235      868.356
11/01/2013  10:32:00       43.059      -52.920       28.535       39.835       60.847       53.996     1586.827     3702.394     2915.518        0.684        0.410       68.225       56.709        0.691      336.381        7.645      868.346
11/01/2013  10:33:00      -28.043      -13.858      -16.410       41.892       52.847       24.877     1754.923     2792.768      618.889        0.321        0.258       31.281       21.670        0.480      336.290        7.493      868.331
11/01/2013  10:34:00      -17.168       44.141       17.187       20.727       23.541       28.371      429.604      554.183      804.917        0.216        0.089       47.362       10.339        0.048      336.895        8.504      868.306
11/01/2013  10:35:00      -19.663        3.687       36.949       20.439       22.886       26.421      417.733      523.788      698.070        0.170        0.082       20.005       19.858        0.985      337.027        8.723      868.303
11/01/2013  10:36:00      -10.037       12.144       42.809       22.912       28.250       26.160      524.940      798.047      684.351        0.204        0.100       15.755       22.432        2.027      337.349        9.262      868.290
11/01/2013  10:37:00       28.362       61.499       68.359       36.629       42.046       32.691     1341.700     1767.880     1068.714        0.672        0.209       67.724       23.447        0.120      336.811        8.365      868.282
11/01/2013  10:38:00       68.381       69.951       54.801       36.708       31.065       39.201     1347.479      965.042     1536.686        0.821        0.192       97.821       20.589        0.044      336.555        7.935      868.271
11/01/2013  10:39:00       20.912       37.974       61.270       30.494       46.869       37.086      929.887     2196.661     1375.403        0.507        0.225       43.351       33.271        0.589      336.919        8.543      868.257
11/01/2013  10:40:00       49.958       40.737       34.693       71.537       71.068       47.382     5117.544     5050.690     2245.078        0.888        0.621       64.461       45.329        0.494      336.743        8.249      868.256
11/01/2013  10:41:00       79.056       58.537        3.698       54.201       53.136       32.381     2937.750     2823.451     1048.522        0.825        0.340       98.369       27.569        0.079      336.564        7.952      868.253
11/01/2013  10:42:00        8.229       41.277       11.320       43.085       48.616       28.326     1856.292     2363.497      802.373        0.346        0.251       42.089       28.020        0.443      336.988        8.660      868.253
11/01/2013  10:43:00       45.592        9.303        9.301       43.229       29.302       30.998     1868.718      858.622      960.851        0.297        0.184       46.531       16.072        0.119      337.189        8.994      868.244
11/01/2013  10:44:00       85.416      -91.278        4.665       77.917       71.487       43.424     6071.056     5110.418     1885.631        1.436        0.653      125.010       49.429        0.156      336.790        8.327      868.255
11/01/2013  10:45:00      120.051       43.366       46.672       56.196       57.376       51.227     3157.992     3291.951     2624.216        1.377        0.454      127.644       23.582        0.034      336.733        8.233      868.269
11/01/2013  10:46:00       42.574       -4.842       31.589       53.854       81.277       34.917     2900.247     6605.931     1219.176        0.678        0.536       42.848       37.508        0.766      336.843        8.417      868.261
11/01/2013  10:47:00       27.342      -43.463       43.651       38.056       72.072       46.187     1448.285     5194.413     2133.268        0.666        0.439       51.348       43.575        0.720      337.138        8.909      868.265
11/01/2013  10:48:00       66.256       26.969       39.142       54.883       38.280       42.084     3012.176     1465.335     1771.046        0.645        0.312       71.535       38.196        0.285      336.866        8.456      868.258
11/01/2013  10:49:00       69.143       81.024       69.027       65.731       55.677       53.970     4320.517     3099.938     2912.789        1.322        0.517      106.516       46.567        0.191      336.844        8.417      868.251
11/01/2013  10:50:00       72.560       78.829       68.056       54.603       47.004       58.716     2981.485     2209.336     3447.624        1.237        0.432      107.140       39.654        0.137      336.908        8.525      868.250
11/01/2013  10:51:00       40.052       88.381       86.066       49.109       43.714       48.250     2411.723     1910.938     2328.021        1.174        0.333       97.032       38.471        0.157      336.849        8.428      868.257
11/01/2013  10:52:00       53.284       71.667       87.282       57.848       55.382       42.824     3346.378     3067.173     1833.870        1.192        0.412       89.304       45.434        0.259      336.958        8.608      868.255
11/01/2013  10:53:00       80.741       70.609       26.545       23.049       27.700       29.227      531.251      767.280      854.225        0.718        0.108      107.261       13.733        0.016      336.448        7.757      868.261
11/01/2013  10:54:00       97.094      101.578       82.479       71.402       50.685       55.243     5098.283     2568.993     3051.819        1.863        0.536      140.519       42.120        0.090      336.811        8.363      868.249
11/01/2013  10:55:00       84.698      123.071       84.692       57.293       46.773       61.572     3282.491     2187.736     3791.156        1.938        0.463      149.400       51.120        0.117      336.750        8.260      868.233
11/01/2013  10:56:00      112.029       85.490       60.834       41.230       33.667       44.621     1699.894     1133.467     1991.001        1.419        0.241      140.922       36.487        0.067      336.613        8.031      868.233
11/01/2013  10:57:00       40.858       50.487       25.536       31.070       24.511       28.225      965.319      600.799      796.634        0.362        0.118       64.949       19.322        0.089      336.744        8.251      868.229
11/01/2013  10:58:00       54.739       69.249       12.249       31.583       35.409       31.895      997.500     1253.769     1017.297        0.560        0.163       88.271       20.152        0.052      336.946        8.589      868.215
11/01/2013  10:59:00       85.601       61.502       15.687       31.538       26.172       25.053      994.633      684.948      627.654        0.683        0.115      105.405       11.172        0.011      336.993        8.669      868.200
11/01/2013  11:00:00       70.198       68.965       11.919       58.210       41.838       41.040     3388.405     1750.383     1684.244        0.832        0.341       98.407       33.204        0.114      337.368        9.295      868.196
11/01/2013  11:01:00       99.418       87.597        2.335       50.484       45.339       38.778     2548.618     2055.629     1503.756        1.183        0.305      132.504       16.427        0.015      337.167        8.959      868.197
11/01/2013  11:02:00       93.506       76.850       25.891       54.671       41.512       44.149     2988.966     1723.257     1949.135        1.099        0.333      121.034       27.994        0.053      336.822        8.382      868.196
11/01/2013  11:03:00       26.371       39.241       30.270       31.483       36.910       38.398      991.203     1362.366     1474.414        0.349        0.191       47.279       23.103        0.239      337.398        9.346      868.175
11/01/2013  11:04:00       20.453       28.806       62.706       43.897       54.853       27.665     1926.989     3008.854      765.332        0.544        0.285       35.329       34.188        0.936      337.983       10.324      868.157
11/01/2013  11:05:00       54.945       66.250       61.990       36.282       34.680       23.687     1316.356     1202.728      561.053        0.716        0.154       86.070       12.035        0.020      337.315        9.205      868.131
11/01/2013  11:06:00        3.849       25.142       48.252       30.789       30.814       26.148      947.954      949.502      683.712        0.278        0.129       25.435       24.285        0.912      337.483        9.488      868.124
11/01/2013  11:07:00      -21.191       -6.419       17.883       17.445       13.141       14.934      304.321      172.677      223.027        0.075        0.035       22.142        9.004        0.165      337.568        9.631      868.105
11/01/2013  11:08:00      -14.927       12.624       21.439       47.575       26.443       29.521     2263.385      699.228      871.503        0.234        0.192       19.549       31.838        2.652      337.557        9.611      868.096
11/01/2013  11:09:00       37.732       55.064       46.162       37.436       33.996       20.352     1401.432     1155.746      414.216        0.478        0.149       66.752       15.508        0.054      337.816       10.046      868.083
11/01/2013  11:10:00       36.972       28.716       18.857       39.627       30.056       33.959     1570.320      903.361     1153.236        0.309        0.181       46.814       16.805        0.129      337.351        9.267      868.074
11/01/2013  11:11:00       50.706       26.654       47.204       57.745       48.071       47.601     3334.531     2310.816     2265.828        0.671        0.396       57.285       40.066        0.489      337.638        9.748      868.057
11/01/2013  11:12:00       19.329      -31.035       30.736       42.506       60.487       38.601     1806.790     3658.625     1490.011        0.462        0.348       36.562       27.504        0.566      337.782        9.988      868.032
11/01/2013  11:13:00       21.038      -14.909       20.144       39.975       45.936       41.232     1597.985     2110.073     1700.114        0.324        0.270       25.785       39.793        2.382      337.919       10.220      868.017
11/01/2013  11:14:00       36.535       -7.552       25.776       33.955       38.018       28.886     1152.928     1445.370      834.394        0.274        0.172       37.308       14.386        0.149      337.646        9.761      868.013
11/01/2013  11:15:00       17.179       33.144       59.760       31.858       36.090       31.278     1014.929     1302.499      978.325        0.413        0.165       37.331       25.538        0.468      337.652        9.771      867.994
11/01/2013  11:16:00       18.845       47.832       33.206       26.908       23.214       28.415      724.020      538.888      807.402        0.291        0.104       51.411       12.656        0.061      337.588        9.665      867.984
11/01/2013  11:17:00       17.024        3.249       35.126       23.786       47.303       30.161      565.752     2237.611      909.690        0.262        0.186       17.332       28.863        2.773      337.965       10.294      867.969
11/01/2013  11:18:00       20.932       -1.498       49.443       29.200       82.106       34.984      852.665     6741.426     1223.855        0.585        0.441       20.986       47.947        5.220      337.918       10.217      867.956
11/01/2013  11:19:00       53.096       61.659       49.367       49.491       35.208       41.730     2449.367     1239.602     1741.382        0.724        0.272       81.370       26.098        0.103      337.955       10.279      867.943
11/01/2013  11:20:00       34.414       53.760       42.662       26.480       20.783       21.134      701.206      431.929      446.648        0.374        0.079       63.832        6.988        0.012      337.690        9.835      867.923
11/01/2013  11:21:00       12.532       12.085       12.545       24.624       26.152       18.643      606.328      683.902      347.576        0.105        0.082       17.410       14.931        0.736      338.033       10.409      867.904
11/01/2013  11:22:00       17.444      -12.741       27.881       26.614       54.741       36.130      708.284     2996.572     1305.378        0.313        0.251       21.601       35.013        2.627      338.342       10.929      867.893
11/01/2013  11:23:00       13.560      -98.678        4.207       41.311       39.138       31.043     1706.560     1531.774      963.677        0.707        0.210       99.605       18.021        0.033      337.890       10.169      867.895
11/01/2013  11:24:00        9.844       11.824       47.340       45.184       52.810       41.287     2041.629     2788.943     1704.608        0.451        0.327       15.385       31.789        4.269      338.246       10.769      867.891
11/01/2013  11:25:00       35.235      -39.882       23.296       43.219       69.472       45.818     1867.879     4826.356     2099.269        0.608        0.440       53.217       48.515        0.831      338.109       10.536      867.894
11/01/2013  11:26:00       34.606      -64.646       20.084       38.919       94.410       53.045     1514.686     8913.154     2813.733        0.951        0.662       73.325       60.799        0.688      337.946       10.264      867.885
11/01/2013  11:27:00       38.769       25.786       48.652       58.106       54.764       33.987     3376.329     2999.083     1155.117        0.603        0.377       46.561       40.057        0.740      338.044       10.427      867.881
11/01/2013  11:28:00      -19.036      -28.535       20.752       76.568       56.082       44.427     5862.719     3145.194     1973.742        0.629        0.549       34.302       29.451        0.737      338.055       10.446      867.874
11/01/2013  11:29:00       45.614        8.270       39.233       50.666       94.287       39.736     2567.012     8890.008     1578.963        0.836        0.652       46.358       52.789        1.297      337.918       10.215      867.859
11/01/2013  11:30:00       48.015      -37.304       29.910       59.948       77.873       41.256     3593.752     6064.197     1702.040        0.797        0.568       60.803       53.529        0.775      338.143       10.594      867.839
11/01/2013  11:31:00       39.325      -58.562       15.429       55.972       46.237       43.131     3132.847     2137.834     1860.299        0.617        0.357       70.541       37.143        0.277      338.290       10.841      867.825
11/01/2013  11:32:00       29.847      -49.117       36.983       52.621       98.324       55.558     2769.012     9667.638     3086.743        1.009        0.776       57.474       57.790        1.011      338.301       10.860      867.799
11/01/2013  11:33:00       46.784     -137.079       -7.843       46.688       51.363       31.114     2179.787     2638.192      968.094        1.341        0.289      144.843       26.140        0.033      337.909       10.200      867.803
11/01/2013  11:34:00       71.860      -69.701       15.402       64.751       68.782       45.886     4192.750     4730.900     2105.483        1.064        0.551      100.110       43.796        0.191      338.043       10.427      867.796
11/01/2013  11:35:00       37.344      -10.031       11.043       34.696       58.077       49.142     1203.830     3372.929     2414.944        0.430        0.350       38.668       41.657        1.161      338.082       10.492      867.802
11/01/2013  11:36:00       48.820        6.423       36.824       48.751       59.903       51.707     2376.659     3588.417     2673.583        0.621        0.432       49.241       33.281        0.457      337.748        9.932      867.789
11/01/2013  11:37:00       23.178       -8.109       24.182       43.981       32.253       29.881     1934.289     1040.277      892.893        0.253        0.193       24.556       26.275        1.145      337.963       10.291      867.784
11/01/2013  11:38:00       19.443       17.684       70.196       41.700       28.099       25.501     1738.872      789.550      650.279        0.440        0.159       26.282       23.113        0.773      338.553       11.284      867.771
11/01/2013  11:39:00       34.778       14.186       42.879       35.842       21.724       24.734     1284.651      471.919      611.753        0.281        0.118       37.560       20.117        0.287      338.321       10.894      867.752
11/01/2013  11:40:00       16.586       48.845       26.401       34.679       31.421       23.635     1202.653      987.305      558.632        0.305        0.137       51.584       19.108        0.137      338.191       10.675      867.728
11/01/2013  11:41:00       -2.684       16.647       28.128       30.190       26.656       24.299      911.461      710.552      590.420        0.164        0.111       16.862       22.379        1.762      338.436       11.086      867.699
11/01/2013  11:42:00      -61.268      -10.444      -13.517       21.173       18.730       10.425      448.309      350.828      108.684        0.248        0.045       62.152        9.661        0.024      337.763        9.958      867.694
11/01/2013  11:43:00      -23.466        3.247      -17.118       25.562       13.650       17.217      653.411      186.324      296.412        0.100        0.057       23.690       14.912        0.396      338.024       10.395      867.675
11/01/2013  11:44:00       14.162       25.606        8.440       47.811       15.594       21.382     2285.871      243.179      457.183        0.196        0.149       29.262       10.821        0.137      338.312       10.879      867.671
11/01/2013  11:45:00       31.401       51.169       63.989       44.166       46.532       29.506     1950.615     2165.208      870.602        0.634        0.249       60.035       25.093        0.175      338.604       11.370      867.663
11/01/2013  11:46:00       18.854       85.507       98.657       33.678       54.403       41.606     1134.218     2959.652     1731.083        1.161        0.291       87.561       33.294        0.145      338.504       11.200      867.650
11/01/2013  11:47:00       92.971       89.436       50.293       49.894       30.352       45.033     2489.371      921.250     2028.003        1.230        0.272      129.005       34.179        0.070      338.134       10.579      867.643
11/01/2013  11:48:00       -3.606       17.416       27.092       25.621       32.599       25.542      656.446     1062.691      652.412        0.171        0.119       17.785       21.954        1.524      338.631       11.415      867.626
11/01/2013  11:49:00       37.056       34.134       28.519       41.742       30.279       34.488     1742.425      916.793     1189.422        0.360        0.192       50.381       27.302        0.294      338.742       11.601      867.619
11/01/2013  11:50:00       52.933       65.989      -11.519       48.485       30.611       24.248     2350.820      937.021      587.976        0.558        0.194       84.596       11.682        0.019      338.354       10.948      867.600
11/01/2013  11:51:00       42.426       42.287       20.738       41.740       29.550       36.391     1742.194      873.173     1324.327        0.398        0.197       59.901       22.176        0.137      338.724       11.569      867.593
11/01/2013  11:52:00       36.748       12.925       14.190       36.199       48.023       37.778     1310.335     2306.204     1427.194        0.338        0.252       38.955       30.400        0.609      338.876       11.826      867.574
11/01/2013  11:53:00       76.134      -16.082       23.752       55.054       53.696       44.126     3030.930     2883.268     1947.084        0.724        0.393       77.814       40.776        0.275      338.681       11.498      867.564
11/01/2013  11:54:00       98.723       66.779       48.564       28.384       32.353       34.474      805.625     1046.716     1188.432        0.980        0.152      119.188       25.668        0.046      338.325       10.900      867.550
11/01/2013  11:55:00        2.392       43.820       62.790       31.483       38.358       28.380      991.175     1471.335      805.414        0.457        0.163       43.885       24.609        0.314      338.948       11.947      867.533
11/01/2013  11:56:00        8.843       -2.717       36.475       51.355       63.318       40.710     2637.294     4009.223     1657.332        0.486        0.415        9.251       42.737       21.343      338.938       11.929      867.530
11/01/2013  11:57:00       33.640        7.657       70.112       51.170       97.673       61.594     2618.342     9540.049     3793.813        1.103        0.798       34.500       59.066        2.931      338.953       11.955      867.515
11/01/2013  11:58:00       53.817       21.112       43.158       33.437       45.361       51.150     1118.045     2057.586     2616.362        0.550        0.290       57.810       36.943        0.408      338.551       11.279      867.512
11/01/2013  11:59:00        2.206       12.393       14.654       18.721       26.482       17.173      350.474      701.293      294.920        0.086        0.067       12.588       15.003        1.421      339.063       12.141      867.495
11/01/2013  12:00:00      -20.840       -6.556       14.451       28.167       44.280       35.757      793.390     1960.729     1278.584        0.236        0.202       21.847       29.819        1.863      339.115       12.228      867.476
11/01/2013  12:01:00       -1.892      -42.189       -2.279       36.902       34.636       22.019     1361.736     1199.650      484.847        0.242        0.152       42.231       17.932        0.180      338.846       11.776      867.477
11/01/2013  12:02:00      -18.297      -21.284       -3.882       31.810       24.690       21.494     1011.891      609.616      461.988        0.144        0.104       28.068       17.025        0.368      338.948       11.946      867.474
11/01/2013  12:03:00      -12.279       -6.693       19.650       37.261       30.846       28.039     1388.375      951.492      786.185        0.185        0.156       13.985       26.760        3.662      339.090       12.184      867.478
11/01/2013  12:04:00      -84.943      -46.625       -2.056       55.826       32.882       26.563     3116.546     1081.241      705.580        0.715        0.245       96.897       27.744        0.082      338.486       11.171      867.462
11/01/2013  12:05:00      -89.021      -44.267       -0.380       61.238       40.408       25.626     3750.078     1632.791      656.669        0.796        0.302       99.420       25.233        0.064      338.667       11.474      867.440
11/01/2013  12:06:00      -89.402       -1.005       -9.987       36.207       74.822       21.620     1310.950     5598.304      467.434        0.773        0.369       89.407       17.312        0.037      338.744       11.604      867.417
11/01/2013  12:07:00      -60.521       74.699       -3.073       40.591       25.332       32.442     1647.627      641.687     1052.474        0.630        0.167       96.139       31.185        0.105      338.773       11.653      867.396
11/01/2013  12:08:00      -36.551       47.877       16.761       32.810       44.632       30.919     1076.473     1992.027      955.991        0.397        0.201       60.234       18.714        0.097      339.041       12.104      867.388
11/01/2013  12:09:00      -24.524      -39.173        8.370       29.158       50.055       27.733      850.216     2505.479      769.138        0.316        0.206       46.216       21.736        0.221      338.911       11.885      867.381
11/01/2013  12:10:00      -67.748      -63.991      -11.686       19.471       33.985       12.996      379.137     1154.975      168.897        0.526        0.085       93.191        9.843        0.011      338.463       11.131      867.374
11/01/2013  12:11:00      -33.254      -18.691       14.039       40.958       25.273       20.832     1677.546      638.730      433.969        0.220        0.138       38.147       24.370        0.408      339.073       12.158      867.366
11/01/2013  12:12:00      -59.311      -24.841       -0.450       33.424       36.007       17.935     1117.134     1296.485      321.670        0.343        0.137       64.303       12.851        0.040      338.738       11.594      867.358
11/01/2013  12:13:00      -52.168      -62.883        3.709       53.322       42.451       25.726     2843.214     1802.098      661.816        0.600        0.265       81.705       18.471        0.051      338.919       11.898      867.346
11/01/2013  12:14:00      -14.371      -28.672       19.109       34.648       49.820       34.637     1200.479     2481.997     1199.707        0.314        0.244       32.072       34.397        1.150      339.587       13.023      867.335
11/01/2013  12:15:00      -45.423      -85.721       -3.612       21.158       26.071       25.757      447.654      679.683      663.445        0.561        0.090       97.012       20.145        0.043      338.576       11.320      867.332
11/01/2013  12:16:00      -11.890      -72.147      -19.109       26.396       35.200       21.124      696.733     1239.060      446.212        0.405        0.119       73.120       19.470        0.071      338.746       11.605      867.313
11/01/2013  12:17:00      -31.968      -33.238      -19.198       17.380       30.695       13.432      302.060      942.188      180.408        0.196        0.071       46.116        9.706        0.044      338.816       11.725      867.302
11/01/2013  12:18:00      -15.687       30.298       33.108       16.536       35.038       32.203      273.445     1227.686     1037.011        0.240        0.127       34.118       20.353        0.356      339.456       12.802      867.270
11/01/2013  12:19:00       33.014       32.680       64.388       47.003       28.992       25.327     2209.297      840.554      641.478        0.500        0.185       46.453       14.308        0.095      339.427       12.754      867.260
11/01/2013  12:20:00       14.714        9.086       34.577       22.183       46.647       29.195      492.091     2175.976      852.340        0.251        0.176       17.293       33.239        3.695      339.625       13.088      867.252
11/01/2013  12:21:00       -3.141      -50.339       10.860       22.302       60.000       30.160      497.398     3600.017      909.611        0.383        0.250       50.437       35.967        0.509      339.648       13.125      867.251
11/01/2013  12:22:00       38.354      -22.004       39.610       49.206       90.050       58.807     2421.278     8108.922     3458.273        0.875        0.699       44.218       68.980        2.434      339.624       13.085      867.225
11/01/2013  12:23:00       28.826      -20.456       27.389       55.779       93.514       44.580     3111.266     8744.882     1987.399        0.792        0.692       35.347       48.945        1.917      339.658       13.142      867.214
11/01/2013  12:24:00       95.441      -77.925       -2.222       64.772       77.327       40.741     4195.426     5979.392     1659.852        1.351        0.592      123.212       53.023        0.185      339.193       12.358      867.196
11/01/2013  12:25:00       21.773      -41.913       19.213       48.515       65.210       47.615     2353.728     4252.373     2267.150        0.574        0.444       47.231       49.563        1.101      339.529       12.925      867.173
11/01/2013  12:26:00       27.390      -61.498        9.593       58.194       65.566       40.066     3386.555     4298.886     1605.285        0.696        0.465       67.322       41.885        0.387      339.787       13.359      867.150
11/01/2013  12:27:00       -6.942      -35.242        6.095       38.213       53.862       35.327     1460.268     2901.149     1248.011        0.347        0.280       35.919       32.289        0.808      339.619       13.077      867.121
11/01/2013  12:28:00      -17.945      -48.752       10.209       47.465       36.549       25.879     2252.923     1335.796      669.699        0.353        0.213       51.949       11.818        0.052      339.592       13.031      867.081
11/01/2013  12:29:00       58.673      -86.984       -5.098       49.577       66.214       39.256     2457.885     4384.287     1541.025        0.971        0.419      104.923       40.629        0.150      339.484       12.849      867.061
11/01/2013  12:30:00        7.827      -53.738       13.868       60.306       63.050       43.374     3636.858     3975.322     1881.284        0.632        0.475       54.305       32.566        0.360      339.654       13.136      867.006
11/01/2013  12:31:00      -37.626       -1.510      -18.249       39.188       32.629       19.560     1535.731     1064.679      382.602        0.237        0.149       37.656       11.209        0.089      339.574       13.002      866.985
11/01/2013  12:32:00       -5.682       34.480       46.166       30.970       26.964       30.014      959.147      727.058      900.839        0.297        0.129       34.945       11.991        0.118      340.157       13.983      866.956
11/01/2013  12:33:00      -53.152      -48.703       10.761       33.454       32.433       24.531     1119.202     1051.901      601.769        0.404        0.139       72.091       21.594        0.090      339.619       13.078      866.949
11/01/2013  12:34:00      -21.529      -37.961        1.889       34.333       29.722       22.350     1178.732      883.390      499.540        0.223        0.128       43.641       19.555        0.201      339.804       13.389      866.929
11/01/2013  12:35:00       57.122      -10.275       55.200       67.751      109.186       59.415     4590.143    11921.641     3530.126        1.323        1.002       58.039       72.702        1.569      339.671       13.164      866.927
11/01/2013  12:36:00      116.159       88.307       50.549       46.240       38.859       45.168     2138.183     1509.984     2040.163        1.477        0.284      145.914       25.428        0.030      339.446       12.784      866.902
11/01/2013  12:37:00       34.201       94.261       71.597       50.797       30.903       43.348     2580.298      955.016     1879.039        1.030        0.271      100.274       36.807        0.135      339.755       13.307      866.877
11/01/2013  12:38:00       33.659      127.774      122.020       41.398       55.037       33.052     1713.771     3029.036     1092.445        1.909        0.292      132.133       27.199        0.042      339.643       13.116      866.852
11/01/2013  12:39:00      -19.673       35.145       70.884       30.146       39.476       27.294      908.769     1558.324      744.976        0.493        0.161       40.276       25.618        0.405      340.039       13.785      866.834
11/01/2013  12:40:00        5.498      -39.445       40.633       45.218       69.416       48.993     2044.626     4818.552     2400.284        0.625        0.463       39.826       49.117        1.521      340.057       13.816      866.826
11/01/2013  12:41:00       50.421     -102.943       12.532       58.928       64.901       41.406     3472.499     4212.085     1714.485        1.135        0.470      114.627       35.852        0.098      339.678       13.174      866.802
11/01/2013  12:42:00        4.287      -80.282        5.234       50.911       44.531       32.899     2591.979     1983.015     1082.375        0.607        0.283       80.397       22.596        0.079      339.998       13.716      866.777
11/01/2013  12:43:00       62.743      -95.047        8.161       55.653       54.993       36.479     3097.220     3024.204     1330.742        1.024        0.373      113.888       34.992        0.094      339.796       13.375      866.759
11/01/2013  12:44:00       57.845      -32.366       12.660       47.412       48.671       34.683     2247.863     2368.821     1202.882        0.519        0.291       66.284       37.600        0.322      339.748       13.292      866.733
11/01/2013  12:45:00        3.809       39.788       63.345       37.655       28.777       29.481     1417.884      828.104      869.151        0.436        0.156       39.970       26.735        0.447      340.136       13.948      866.714
11/01/2013  12:46:00        0.872       57.845       90.843       34.854       56.798       28.655     1214.787     3225.976      821.083        0.843        0.263       57.851       28.297        0.239      340.071       13.839      866.699
11/01/2013  12:47:00       16.617        4.876       43.530       47.336       41.402       28.181     2240.693     1714.165      794.150        0.347        0.237       17.318       29.214        2.846      340.033       13.775      866.682
11/01/2013  12:48:00       20.199       35.795       42.022       27.855       20.749       21.686      775.890      430.526      470.268        0.257        0.084       41.101       15.072        0.134      340.253       14.148      866.655
11/01/2013  12:49:00      -46.471        9.098        6.227       41.613       20.986       22.758     1731.657      440.399      517.928        0.249        0.134       47.353       27.266        0.332      340.114       13.912      866.640
11/01/2013  12:50:00      -13.104        9.377        5.506       22.738       15.770       13.691      517.035      248.697      187.450        0.062        0.048       16.113       11.295        0.491      340.409       14.409      866.638
11/01/2013  12:51:00       20.795      -33.838       21.887       75.963       67.059       44.594     5770.324     4496.932     1988.615        0.715        0.613       39.717       33.904        0.729      340.228       14.104      866.620
11/01/2013  12:52:00      119.710       95.071       45.568       69.337       41.994       53.370     4807.645     1763.457     2848.359        1.743        0.471      152.869       45.161        0.087      339.668       13.157      866.615
11/01/2013  12:53:00       77.529       78.552       54.165       54.128       55.584       58.803     2929.894     3089.600     3457.790        1.229        0.474      110.369       47.935        0.189      340.050       13.803      866.619
11/01/2013  12:54:00      106.991      108.167       99.376       71.178       70.840       57.382     5066.286     5018.284     3292.668        2.320        0.669      152.142       52.594        0.120      339.949       13.630      866.604
11/01/2013  12:55:00      101.655       76.839       49.614       45.062       57.345       56.175     2030.543     3288.474     3155.601        1.359        0.424      127.429       44.052        0.120      339.848       13.462      866.616
11/01/2013  12:56:00       19.846       25.604       11.886       45.565       41.805       29.953     2076.144     1747.651      897.197        0.296        0.236       32.395       15.438        0.227      340.287       14.203      866.607
11/01/2013  12:57:00       12.263      -37.708        4.756       50.474       33.889       21.743     2547.635     1148.476      472.744        0.288        0.208       39.652       17.916        0.204      340.338       14.290      866.603
11/01/2013  12:58:00       -8.067       -3.822       34.403       24.641       26.404       20.856      607.181      697.149      434.966        0.150        0.087        8.926       13.982        2.454      340.892       15.227      866.595
11/01/2013  12:59:00       16.427      -31.980       34.002       64.324       48.052       37.103     4137.552     2308.968     1376.650        0.513        0.391       35.953       22.156        0.380      340.358       14.324      866.586
11/01/2013  13:00:00       16.080      -56.933        4.584       20.742       43.315       26.024      430.226     1876.194      677.223        0.325        0.149       59.160       27.787        0.221      339.977       13.682      866.582
11/01/2013  13:01:00       45.190      -60.558       17.451       39.994       70.020       44.049     1599.536     4902.818     1940.311        0.723        0.422       75.560       51.872        0.471      340.313       14.247      866.566
11/01/2013  13:02:00       19.197      -69.257       11.894       40.310       52.538       35.658     1624.912     2760.191     1271.470        0.548        0.283       71.869       38.397        0.285      340.473       14.518      866.550
11/01/2013  13:03:00       73.591       45.909       42.017       63.852       75.984       43.111     4077.109     5773.515     1858.544        1.050        0.585       86.737       35.983        0.172      340.362       14.332      866.532
11/01/2013  13:04:00       55.111      111.942      117.856       73.052       66.393       64.239     5336.649     4408.037     4126.691        2.166        0.694      124.773       48.640        0.152      340.450       14.476      866.519
11/01/2013  13:05:00       71.291        8.381       31.430       62.806       74.955       53.842     3944.611     5618.283     2898.952        0.930        0.623       71.782       37.911        0.279      340.253       14.146      866.502
11/01/2013  13:06:00       57.508       59.964        6.541       32.334       31.707       33.062     1045.519     1005.331     1093.125        0.504        0.157       83.083       24.213        0.085      340.095       13.880      866.480
11/01/2013  13:07:00       16.183       89.136        1.584       33.825       57.788       29.932     1144.136     3339.466      895.932        0.679        0.269       90.593       30.910        0.116      340.213       14.078      866.447
11/01/2013  13:08:00       65.438       78.174        4.919       53.675       47.647       49.388     2880.978     2270.275     2439.214        0.900        0.380      101.947       34.873        0.117      340.281       14.193      866.428
11/01/2013  13:09:00       81.809       38.625       15.146       82.711       44.920       33.321     6841.126     2017.841     1110.275        0.919        0.498       90.469       32.829        0.132      340.713       14.922      866.409
11/01/2013  13:10:00       -8.715       22.563       67.546       30.778       50.765       38.822      947.267     2577.046     1507.119        0.509        0.252       24.187       31.507        1.697      341.035       15.467      866.385
11/01/2013  13:11:00      134.778      132.539      101.728       87.739       53.891       74.451     7698.080     2904.235     5542.938        3.111        0.807      189.028       59.110        0.098      340.105       13.891      866.379
11/01/2013  13:12:00      104.625       94.106       89.175       75.885       71.428       65.905     5758.464     5101.983     4343.466        2.148        0.760      140.721       50.359        0.128      340.228       14.102      866.372
11/01/2013  13:13:00      101.134      -37.754       38.436       75.862       89.178       44.007     5755.012     7952.747     1936.604        1.438        0.782      107.951       48.419        0.201      340.251       14.143      866.342
11/01/2013  13:14:00       66.059     -107.525        9.930       79.401       86.203       50.854     6304.495     7431.040     2586.100        1.617        0.816      126.196       59.282        0.221      340.480       14.528      866.310
11/01/2013  13:15:00      105.828      -51.729        6.163       70.328      100.145       44.760     4946.013    10029.006     2003.444        1.544        0.849      117.794       42.913        0.133      340.513       14.585      866.292
11/01/2013  13:16:00       38.566      -76.030       20.949       50.598       93.123       56.891     2560.208     8671.856     3236.571        1.109        0.723       85.253       59.244        0.483      340.597       14.726      866.256
11/01/2013  13:17:00        7.017      -52.620       39.172       34.011       86.711       39.268     1156.774     7518.788     1541.966        0.728        0.511       53.086       50.151        0.892      340.437       14.456      866.249
11/01/2013  13:18:00       38.966       75.115       87.820       70.065       67.232       48.936     4909.081     4520.083     2394.698        1.335        0.591       84.620       44.964        0.282      340.694       14.892      866.245
11/01/2013  13:19:00       40.744       47.661       94.675       41.652       59.499       34.846     1734.847     3540.138     1214.246        0.969        0.324       62.702       31.958        0.260      340.446       14.472      866.232
11/01/2013  13:20:00       17.837      -25.968       17.874       22.695       46.246       29.159      515.053     2138.708      850.267        0.241        0.175       31.504       13.840        0.193      340.487       14.543      866.236
11/01/2013  13:21:00       35.850      -33.574        9.850       66.934       27.056       20.368     4480.202      732.014      414.850        0.407        0.281       49.116       25.250        0.264      340.491       14.547      866.227
11/01/2013  13:22:00      111.244       22.340       21.025       38.551       42.278       34.611     1486.187     1787.470     1197.889        0.889        0.224      113.465       29.181        0.066      340.221       14.092      866.212
11/01/2013  13:23:00       87.095      -36.808        9.604       43.148       41.222       29.173     1861.778     1699.251      851.076        0.672        0.221       94.554       20.290        0.046      340.394       14.385      866.190
11/01/2013  13:24:00      143.550       96.555       33.791       71.117       54.233       58.662     5057.625     2941.206     3441.278        2.125        0.572      173.001       47.778        0.076      340.547       14.640      866.164
11/01/2013  13:25:00      123.688       94.754       13.783       47.002       46.057       39.906     2209.165     2121.258     1592.504        1.519        0.296      155.810       29.639        0.036      340.466       14.505      866.142
11/01/2013  13:26:00       58.782       54.447        8.539       62.422       39.413       30.630     3896.513     1553.353      938.217        0.644        0.319       80.124       18.184        0.052      340.415       14.419      866.111
11/01/2013  13:27:00       54.011       65.315       29.021       48.475       46.575       45.858     2349.858     2169.224     2102.963        0.732        0.331       84.754       29.557        0.122      340.700       14.901      866.095
11/01/2013  13:28:00       13.675       54.337       72.953       40.362       43.345       36.664     1629.093     1878.785     1344.213        0.666        0.243       56.031       31.696        0.320      341.048       15.490      866.073
11/01/2013  13:29:00      155.678      111.922       24.154       88.616       54.694       54.414     7852.869     2991.388     2960.883        2.557        0.690      191.735       45.266        0.056      340.643       14.803      866.049
11/01/2013  13:30:00      128.746      102.647       20.910       72.345       56.038       45.061     5233.738     3140.309     2030.519        1.898        0.520      164.657       27.908        0.029      340.614       14.753      866.023
11/01/2013  13:31:00       57.154       42.419       58.953       67.854       62.017       50.897     4604.145     3846.150     2590.465        0.979        0.552       71.176       45.804        0.414      341.166       15.691      866.011
11/01/2013  13:32:00       67.280      100.013      103.245       56.117       48.841       43.554     3149.102     2385.458     1896.955        1.631        0.372      120.537       29.303        0.059      340.669       14.849      865.991
11/01/2013  13:33:00       40.512       17.515       29.027       55.497       91.861       53.411     3079.862     8438.498     2852.709        0.858        0.719       44.136       56.056        1.613      340.798       15.068      865.976
11/01/2013  13:34:00      136.372       27.954       59.899       55.762       66.569       62.598     3109.436     4431.408     3918.464        1.721        0.573      139.208       37.817        0.074      340.486       14.538      865.968
11/01/2013  13:35:00       36.268       44.607       50.307       85.973       57.193       42.111     7391.349     3271.026     1773.308        0.913        0.622       57.490       34.586        0.362      340.683       14.871      865.960
11/01/2013  13:36:00       13.856       -2.840       26.909       62.882       60.909       38.665     3954.108     3709.883     1494.992        0.504        0.458       14.144       14.898        1.110      340.849       15.155      865.937
11/01/2013  13:37:00       62.288      -10.496       44.207       54.745       69.498       44.499     2997.063     4829.977     1980.142        0.787        0.490       63.166       44.770        0.502      340.894       15.230      865.933
11/01/2013  13:38:00       23.525        3.424       35.802       37.671       86.063       41.322     1419.079     7406.793     1707.545        0.619        0.527       23.773       46.819        3.879      340.981       15.377      865.913
11/01/2013  13:39:00       45.417       68.094       80.664       74.523       95.542       67.878     5553.690     9128.316     4607.479        1.624        0.964       81.851       64.404        0.619      340.973       15.363      865.888
11/01/2013  13:40:00      108.681       82.405       31.456       73.361       50.011       42.547     5381.818     2501.076     1810.223        1.464        0.485      136.390       49.457        0.131      340.456       14.488      865.879
11/01/2013  13:41:00       49.693       44.904       81.689       71.444       53.661       44.873     5104.206     2879.550     2013.610        1.058        0.500       66.976       24.257        0.131      341.092       15.565      865.856
11/01/2013  13:42:00       92.734      135.739      126.962       81.297       45.924       43.569     6609.229     2109.007     1898.260        2.688        0.531      164.392       43.803        0.071      340.909       15.252      865.835
11/01/2013  13:43:00       77.264      145.106      123.817       80.729       79.204       69.349     6517.224     6273.341     4809.241        2.998        0.880      164.394       59.615        0.132      340.729       14.947      865.834
11/01/2013  13:44:00       85.221       63.364       45.124       52.328       89.842       44.479     2738.255     8071.600     1978.419        1.305        0.639      106.196       41.890        0.156      340.721       14.936      865.829
11/01/2013  13:45:00       41.839      100.275      107.456       49.972       54.591       38.669     2497.212     2980.138     1495.298        1.516        0.349      108.654       43.233        0.158      340.707       14.914      865.815
11/01/2013  13:46:00       96.957       74.948       61.556       52.733       40.310       38.807     2780.799     1624.897     1505.996        1.236        0.296      122.547       30.687        0.063      340.660       14.834      865.787
11/01/2013  13:47:00       80.783       53.375       46.941       58.730       56.752       48.279     3449.163     3220.785     2330.908        1.029        0.450       96.823       45.252        0.218      340.922       15.277      865.773
11/01/2013  13:48:00       64.499       28.525       23.119       74.175       49.056       38.794     5501.984     2406.498     1504.960        0.746        0.471       70.525       21.197        0.090      340.970       15.359      865.759
11/01/2013  13:49:00       98.649       37.623        7.528       49.750       51.297       25.890     2475.068     2631.426      670.294        0.849        0.289      105.580       13.975        0.018      340.912       15.259      865.753
11/01/2013  13:50:00       14.316       73.454       11.793       48.297       51.320       48.284     2332.622     2633.700     2331.381        0.652        0.365       74.837       42.664        0.325      340.934       15.297      865.729
11/01/2013  13:51:00      -17.774      132.687      -13.335       46.609       52.217       30.001     2172.375     2726.575      900.041        1.195        0.290      133.872       28.494        0.045      340.787       15.048      865.698
11/01/2013  13:52:00       33.835      132.662      -12.467       33.344       64.569       32.747     1111.854     4169.206     1072.370        1.263        0.318      136.909       37.273        0.074      340.782       15.041      865.670
11/01/2013  13:53:00       56.219       63.732       26.396       50.250       35.025       47.312     2525.013     1226.742     2238.398        0.695        0.300       84.984       41.071        0.234      341.160       15.680      865.653
11/01/2013  13:54:00       64.278       83.248       82.612       72.023       58.915       44.041     5187.279     3470.965     1939.629        1.424        0.530      105.175       42.636        0.164      341.420       16.120      865.633
11/01/2013  13:55:00       73.640       29.355       62.231       97.122      110.770       59.128     9432.733    12270.023     3496.086        1.767        1.260       79.276       64.661        0.665      341.110       15.595      865.618
11/01/2013  13:56:00       75.398      -97.731       17.217       73.463       74.908       59.285     5396.760     5611.280     3514.731        1.503        0.726      123.435       45.666        0.137      341.114       15.602      865.606
11/01/2013  13:57:00       71.460      -71.672       26.760       63.504       76.298       50.121     4032.764     5821.375     2512.086        1.166        0.618      101.210       50.249        0.246      340.951       15.326      865.616
11/01/2013  13:58:00      129.962     -147.202      -27.662       63.118       94.212       52.663     3983.921     8875.878     2773.391        2.748        0.782      196.363       50.467        0.066      340.900       15.237      865.582
11/01/2013  13:59:00       63.956      -33.494       37.561       54.105      103.693       57.496     2927.309    10752.269     3305.781        1.180        0.849       72.196       68.916        0.911      340.963       15.346      865.566
11/01/2013  14:00:00       39.449      -93.967        6.141       60.830       79.729       40.026     3700.300     6356.661     1602.118        1.104        0.583      101.912       40.244        0.156      341.122       15.616      865.539
11/01/2013  14:01:00        5.952      -36.053       40.729       30.880       83.062       37.180      953.567     6899.288     1382.331        0.611        0.462       36.541       35.077        0.921      341.400       16.087      865.517
11/01/2013  14:02:00        6.197      -11.165       42.467       19.476       40.777       19.778      379.314     1662.748      391.184        0.220        0.122       12.770       23.780        3.468      341.500       16.257      865.501
11/01/2013  14:03:00       13.997       39.745       37.639       26.018       27.435       29.706      676.957      752.657      882.453        0.275        0.116       42.137       15.574        0.137      341.175       15.705      865.479
11/01/2013  14:04:00       10.495        9.923       34.026       28.467       34.428       26.827      810.382     1185.314      719.674        0.204        0.136       14.444       25.911        3.218      341.405       16.096      865.464
11/01/2013  14:05:00       13.438        1.713       19.872       23.906       30.551       25.602      571.501      933.376      655.472        0.137        0.108       13.547       20.329        2.252      341.433       16.142      865.477
11/01/2013  14:06:00       30.480      -19.763        6.523       31.360       29.681       26.552      983.438      880.975      705.027        0.197        0.128       36.326       13.662        0.141      341.374       16.043      865.472
11/01/2013  14:07:00       68.802      -32.221       27.483       62.547       85.305       48.456     3912.117     7276.901     2347.965        1.003        0.677       75.973       56.730        0.558      341.422       16.124      865.440
11/01/2013  14:08:00       45.954     -101.326       -1.542       29.804       29.533       24.405      888.284      872.225      595.593        0.737        0.118      111.260       12.395        0.012      341.160       15.679      865.430
11/01/2013  14:09:00       13.689       37.143       56.008       31.695       45.941       24.102     1004.556     2110.534      580.913        0.420        0.185       39.585       24.629        0.387      341.781       16.731      865.421
11/01/2013  14:10:00       19.764       41.674       51.397       33.076       44.455       28.062     1094.040     1976.233      787.477        0.431        0.193       46.123       23.878        0.268      341.665       16.535      865.413
11/01/2013  14:11:00       10.339      -45.419       39.767       41.627       92.815       46.678     1732.789     8614.612     2178.809        0.814        0.626       46.581       48.160        1.069      341.824       16.805      865.399
11/01/2013  14:12:00      123.806     -185.263      -32.087       45.887       67.590       36.926     2105.636     4568.405     1363.545        2.936        0.402      222.823       17.532        0.006      341.092       15.559      865.397
11/01/2013  14:13:00      118.654     -154.552      -47.011       47.183       52.398       30.097     2226.256     2745.557      905.802        2.303        0.294      194.846       22.423        0.013      341.043       15.480      865.389
11/01/2013  14:14:00       15.167     -107.704      -16.670       62.934       75.682       55.119     3960.692     5727.775     3038.139        1.242        0.636      108.766       49.926        0.211      341.264       15.857      865.388
11/01/2013  14:15:00      -28.188      -23.736       17.384       39.414       52.267       23.934     1553.475     2731.836      572.856        0.326        0.243       36.850       27.317        0.550      341.603       16.430      865.384
11/01/2013  14:16:00      -66.861      -54.237       -1.889       55.796       44.732       25.750     3113.149     2000.996      663.075        0.660        0.289       86.094       33.706        0.153      341.411       16.105      865.385
11/01/2013  14:17:00      -35.049      -13.248       13.208       45.241       26.860       20.531     2046.773      721.468      421.540        0.238        0.159       37.469       22.437        0.359      341.678       16.558      865.378
11/01/2013  14:18:00      -75.749      -43.866       -1.994       41.949       35.667       28.394     1759.687     1272.145      806.235        0.575        0.192       87.534       17.231        0.039      341.588       16.404      865.358
11/01/2013  14:19:00      -93.687      -30.367       -2.890       48.879       37.111       25.355     2389.171     1377.189      642.866        0.706        0.220       98.485       22.720        0.053      341.305       15.924      865.337
11/01/2013  14:20:00       -4.286      -23.412       20.065       42.674       51.486       31.065     1821.063     2650.763      965.022        0.320        0.272       23.801       34.949        2.156      341.723       16.632      865.329
11/01/2013  14:21:00       52.354       41.996       42.632       46.841       37.155       29.518     2194.076     1380.521      871.319        0.538        0.222       67.117       18.158        0.073      341.623       16.465      865.322
11/01/2013  14:22:00      101.413       80.468       84.310       74.496       83.179       50.160     5549.599     6918.821     2515.995        1.942        0.749      129.459       31.007        0.057      341.372       16.038      865.300
11/01/2013  14:23:00       59.065       48.485       42.004       36.155       25.835       40.293     1307.187      667.443     1623.541        0.560        0.180       76.417       19.288        0.064      341.130       15.629      865.308
11/01/2013  14:24:00        8.958       -9.930      -11.084       20.486       21.131        9.344      419.671      446.499       87.311        0.063        0.048       13.374        8.597        0.413      341.207       15.759      865.298
11/01/2013  14:25:00       18.851       57.762       -8.163       24.141       37.531       18.350      582.777     1408.553      336.711        0.304        0.116       60.761       11.169        0.034      341.232       15.803      865.280
11/01/2013  14:26:00       41.079      -21.840       10.272       34.410       74.674       29.769     1184.064     5576.177      886.202        0.496        0.382       46.524       16.042        0.119      341.391       16.070      865.256
11/01/2013  14:27:00       89.922       87.877       63.823       42.531       41.934       45.488     1808.916     1758.478     2069.168        1.276        0.282      125.731       36.565        0.085      341.410       16.104      865.236
11/01/2013  14:28:00      171.894      111.871       49.241       45.985       52.724       50.829     2114.637     2779.790     2583.586        2.598        0.374      205.092       31.919        0.024      341.164       15.684      865.221
11/01/2013  14:29:00       96.529       91.558       63.938       37.060       37.650       31.716     1373.451     1417.523     1005.934        1.279        0.190      133.044        7.096        0.003      341.170       15.695      865.200
11/01/2013  14:30:00       73.581       46.033       29.592       49.718       45.271       33.137     2471.914     2049.473     1098.061        0.701        0.281       86.794       27.322        0.099      341.442       16.158      865.186
11/01/2013  14:31:00       22.078      -13.436       38.746       36.681       52.850       35.278     1345.530     2793.151     1244.557        0.378        0.269       25.845       39.992        2.394      341.805       16.773      865.192
11/01/2013  14:32:00       29.403       -8.518       30.642       30.282       87.150       33.002      916.973     7595.052     1089.133        0.574        0.480       30.612       43.282        1.999      341.530       16.306      865.155
11/01/2013  14:33:00       -6.645      -42.908        1.178       33.441       37.726       27.590     1118.286     1423.215      761.216        0.259        0.165       43.419       18.351        0.179      341.771       16.715      865.127
11/01/2013  14:34:00      -75.363        7.266       16.533       61.739       29.802       33.865     3811.659      888.131     1146.841        0.593        0.292       75.712       36.490        0.232      341.639       16.493      865.099
11/01/2013  14:35:00      -64.505      -23.049        3.397       39.412       31.520       20.053     1553.304      993.511      402.141        0.383        0.147       68.499       22.747        0.110      341.861       16.868      865.082
11/01/2013  14:36:00        4.492       22.364       -4.058       25.427       19.924       14.973      646.512      396.949      224.195        0.090        0.063       22.811        8.335        0.134      341.704       16.602      865.059
11/01/2013  14:37:00       41.179       22.558       16.989       43.788       31.934       24.964     1917.391     1019.774      623.217        0.303        0.178       46.953       20.270        0.186      341.879       16.898      865.047
11/01/2013  14:38:00       71.504       64.409        3.247       37.735       39.242       39.401     1423.898     1539.914     1552.436        0.689        0.226       96.236       21.266        0.049      341.479       16.219      865.045
11/01/2013  14:39:00       26.262       13.413       12.520       49.333       46.423       23.691     2433.734     2155.111      561.271        0.309        0.258       29.489       19.323        0.429      341.623       16.465      865.034
11/01/2013  14:40:00      -16.356       42.054       -7.378       31.065       39.015       32.091      965.009     1522.201     1029.823        0.280        0.176       45.122       25.580        0.321      341.663       16.533      865.036
11/01/2013  14:41:00       21.110       11.193       25.968       29.702       22.568       17.619      882.215      509.325      310.428        0.147        0.085       23.894       14.877        0.388      342.028       17.151      865.040
11/01/2013  14:42:00       40.240       76.035       83.863       65.653       75.210       43.057     4310.361     5656.558     1853.944        1.313        0.591       86.027       40.222        0.219      341.762       16.700      865.021
11/01/2013  14:43:00       82.195     -109.602      -12.829       74.046       71.633       52.095     5482.777     5131.280     2713.913        1.613        0.666      136.998       51.893        0.143      341.564       16.363      865.022
11/01/2013  14:44:00      113.045      -86.844        9.227       81.783       87.086       51.610     6688.527     7584.007     2663.633        1.867        0.847      142.552       58.104        0.166      341.490       16.238      865.019
11/01/2013  14:45:00       39.191      -23.430       47.396       55.053       68.461       56.337     3030.830     4686.928     3173.894        0.761        0.545       45.661       57.840        1.605      341.893       16.921      865.004
11/01/2013  14:46:00       89.811      -89.007       -4.837       46.585       58.142       28.171     2170.192     3380.434      793.631        1.118        0.317      126.444       34.401        0.074      341.565       16.364      865.005
11/01/2013  14:47:00       24.758       -7.078       18.156       31.936       32.810       20.665     1019.888     1076.513      427.054        0.176        0.126       25.750       20.261        0.619      341.957       17.030      864.995
11/01/2013  14:48:00       11.795      -42.809       13.883       23.204       52.796       26.039      538.437     2787.368      678.032        0.308        0.200       44.404       24.653        0.308      342.182       17.414      864.967
11/01/2013  14:49:00       10.549      -12.219        5.985       29.573       46.979       34.298      874.559     2207.039     1176.371        0.228        0.213       16.143       25.959        2.586      342.089       17.255      864.956
11/01/2013  14:50:00       74.285      -95.807       13.834       49.997       69.857       51.362     2499.683     4880.014     2638.066        1.245        0.501      121.233       51.892        0.183      341.824       16.804      864.959
11/01/2013  14:51:00       90.729     -145.291        2.059       67.126       42.700       43.489     4505.953     1823.278     1891.278        1.878        0.411      171.293       33.579        0.038      341.452       16.173      864.959
11/01/2013  14:52:00       32.662     -126.892        4.396       48.589       49.256       36.410     2360.926     2426.195     1325.678        1.165        0.306      131.028       30.284        0.053      341.746       16.673      864.946
11/01/2013  14:53:00       15.476      -96.249       10.902       34.463       50.638       33.355     1187.695     2564.255     1112.544        0.724        0.243       97.486       28.586        0.086      341.797       16.759      864.937
11/01/2013  14:54:00       33.987       47.892       75.673       42.113       59.280       39.382     1773.482     3514.150     1550.978        0.801        0.342       58.726       40.672        0.480      341.984       17.076      864.939
11/01/2013  14:55:00       46.334       51.517       38.935       49.703       48.984       48.112     2470.408     2399.478     2314.810        0.675        0.359       69.288       37.363        0.291      341.705       16.603      864.935
11/01/2013  14:56:00       38.415      -45.689       -4.196       34.433       37.488       18.945     1185.629     1405.347      358.930        0.326        0.147       59.692       13.049        0.048      341.871       16.886      864.939
11/01/2013  14:57:00       35.234      -69.782       11.012       44.760       75.893       28.324     2003.430     5759.674      802.238        0.740        0.428       78.173       32.649        0.174      342.080       17.240      864.943
11/01/2013  14:58:00       46.421      -46.231       35.746       52.438       77.513       36.977     2749.755     6008.234     1367.293        0.785        0.506       65.515       32.880        0.252      342.023       17.142      864.937
11/01/2013  14:59:00       33.699      -22.471       30.790       39.492       41.179       32.695     1559.639     1695.726     1068.966        0.346        0.216       40.504       22.485        0.308      342.028       17.150      864.933
11/01/2013  15:00:00       49.119       23.230       33.410       20.805       29.610       36.583      432.842      876.742     1338.295        0.336        0.132       54.335       20.762        0.146      341.680       16.560      864.928
11/01/2013  15:01:00       31.280      -28.761        2.837       49.967       37.881       16.711     2496.652     1434.972      279.252        0.301        0.211       42.493        5.629        0.018      341.687       16.573      864.904
11/01/2013  15:02:00       22.385     -104.551      -11.509       45.755       47.580       33.087     2093.536     2263.832     1094.759        0.851        0.273      106.921       25.816        0.058      341.940       17.002      864.867
11/01/2013  15:03:00       36.416      -67.503       -7.770       45.488       62.313       27.876     2069.137     3882.911      777.099        0.633        0.336       76.699       29.778        0.151      341.750       16.680      864.848
11/01/2013  15:04:00       17.209      -79.534      -23.562       36.998       48.534       28.637     1368.856     2355.544      820.093        0.586        0.227       81.375       16.152        0.039      341.890       16.918      864.841
11/01/2013  15:05:00       -3.651        7.745       26.638       29.903       34.100       25.903      894.179     1162.785      670.953        0.175        0.136        8.562       26.594        9.647      342.197       17.437      864.843
11/01/2013  15:06:00      103.582       84.793       16.414       76.488       57.109       48.860     5850.359     3261.470     2387.260        1.484        0.575      133.862       33.547        0.063      341.819       16.795      864.835
11/01/2013  15:07:00       86.068       63.950       16.008       65.631       51.649       34.888     4307.404     2667.665     1217.202        0.997        0.410      107.226       18.547        0.030      341.669       16.542      864.826
11/01/2013  15:08:00       43.214        4.731       13.662       44.094       30.642       24.026     1944.296      938.952      577.230        0.277        0.173       43.472       17.786        0.167      342.091       17.257      864.830
11/01/2013  15:09:00       63.436     -104.184        6.002       68.401       97.209       47.450     4678.724     9449.670     2251.527        1.564        0.819      121.977       59.063        0.234      341.997       17.098      864.826
11/01/2013  15:10:00       35.201       -2.703       34.726       46.103       80.083       40.871     2125.517     6413.290     1670.448        0.633        0.510       35.304       34.112        0.934      342.113       17.297      864.815
11/01/2013  15:11:00       37.205       16.075       43.602       43.993       31.210       26.677     1935.340      974.044      711.661        0.358        0.181       40.530       21.314        0.277      341.975       17.061      864.832
11/01/2013  15:12:00       26.085       30.981        5.337       27.920       36.742       23.957      779.553     1349.974      573.921        0.219        0.135       40.500       21.745        0.288      341.739       16.660      864.819
11/01/2013  15:13:00        5.786       27.548      -12.262       25.585       53.789       19.373      654.592     2893.278      375.332        0.243        0.196       28.150       18.506        0.432      341.816       16.791      864.807
11/01/2013  15:14:00      -40.742      -33.488       -6.157       28.666       35.825       23.068      821.726     1283.397      532.149        0.273        0.132       52.739       15.494        0.086      342.105       17.283      864.797
11/01/2013  15:15:00        9.965       16.476       48.463       29.911       41.608       21.527      894.677     1731.238      463.419        0.290        0.154       19.255       17.237        0.801      342.098       17.269      864.793
11/01/2013  15:16:00       51.854       11.483       35.101       24.938       19.852       25.617      621.919      394.093      656.219        0.286        0.084       53.110       16.465        0.096      341.805       16.773      864.787
11/01/2013  15:17:00       80.787      -76.646       -2.343       46.026       52.029       28.886     2118.363     2707.062      834.396        0.903        0.283      111.360       34.152        0.094      341.762       16.699      864.779
11/01/2013  15:18:00       18.843       14.502       30.588       31.690       45.936       28.582     1004.278     2110.089      816.907        0.272        0.197       23.777       31.550        1.761      341.935       16.993      864.761
11/01/2013  15:19:00       62.999      -75.526        7.090       38.095       55.022       28.093     1451.222     3027.400      789.199        0.749        0.263       98.352       27.808        0.080      341.900       16.933      864.749
11/01/2013  15:20:00       41.712      -40.474       17.709       41.861       38.464       28.785     1752.302     1479.446      828.595        0.388        0.203       58.121       31.093        0.286      341.991       17.089      864.732
11/01/2013  15:21:00       81.258      -97.046      -12.966       30.197       38.378       24.648      911.877     1472.899      607.509        0.959        0.150      126.573       17.674        0.019      341.698       16.590      864.722
11/01/2013  15:22:00       39.148      -10.058       21.105       40.165       29.055       25.339     1613.220      844.171      642.078        0.259        0.155       40.420       19.136        0.224      342.011       17.123      864.708
11/01/2013  15:23:00      -76.521      -42.488        8.930       68.476       35.863       30.944     4688.944     1286.183      957.519        0.734        0.347       87.525       37.840        0.187      342.079       17.238      864.698
11/01/2013  15:24:00      -34.805      -58.282       -0.368       48.619       26.297       25.453     2363.821      691.552      647.839        0.416        0.185       67.884        7.584        0.012      342.015       17.129      864.683
11/01/2013  15:25:00        7.594      -41.202       -4.156       36.139       44.205       25.535     1306.039     1954.075      652.040        0.284        0.196       41.896       18.042        0.185      342.190       17.427      864.673
11/01/2013  15:26:00      -29.313       -6.170      -16.235       43.528       34.862       26.644     1894.690     1215.368      709.887        0.249        0.191       29.955       13.671        0.208      342.136       17.334      864.661
11/01/2013  15:27:00        4.021      -47.062        6.956       44.936       31.976       24.883     2019.240     1022.471      619.188        0.297        0.183       47.233       11.664        0.061      342.129       17.322      864.647
11/01/2013  15:28:00      -70.432      -43.544        1.541       46.712       31.617       25.280     2182.018      999.612      639.060        0.534        0.191       82.806       15.931        0.037      342.080       17.239      864.634
11/01/2013  15:29:00     -126.394      -62.690       -6.603       42.884       32.501       23.149     1839.012     1056.311      535.896        1.169        0.172      141.087        4.585        0.001      341.969       17.051      864.621
11/01/2013  15:30:00      -89.344      -36.161        0.036       54.311       37.151       23.331     2949.688     1380.216      544.330        0.708        0.244       96.384       23.251        0.058      342.111       17.292      864.606
11/01/2013  15:31:00      -49.989        6.473        8.570       35.269       30.710       26.299     1243.884      943.134      691.616        0.275        0.144       50.406       23.831        0.224      342.169       17.391      864.607
11/01/2013  15:32:00      -35.641       10.898      -14.980       41.953       35.746       16.379     1760.032     1277.795      268.257        0.246        0.165       37.270       15.430        0.171      342.004       17.110      864.616
11/01/2013  15:33:00      -13.620       24.540       -3.559       38.140       23.559       22.892     1454.669      555.021      524.041        0.167        0.127       28.067       20.636        0.541      342.014       17.128      864.614
11/01/2013  15:34:00       29.010      -53.253        3.359       25.339       37.214       26.062      642.072     1384.866      679.245        0.320        0.135       60.642        9.019        0.022      341.939       17.000      864.612
11/01/2013  15:35:00       18.960       23.441       19.002       27.521       31.095       22.081      757.421      966.890      487.573        0.174        0.111       30.149       23.824        0.624      342.184       17.416      864.618
11/01/2013  15:36:00       -2.548        9.857       61.908       23.547       42.027       25.899      554.440     1766.272      670.736        0.346        0.150       10.181        9.820        0.930      342.341       17.684      864.606
11/01/2013  15:37:00        3.606       41.424       77.966       25.108       42.424       19.249      630.387     1799.756      370.540        0.530        0.140       41.580       20.629        0.246      342.148       17.355      864.606
11/01/2013  15:38:00        5.388       -7.192       32.793       17.400       35.129       28.782      302.753     1234.071      828.395        0.176        0.118        8.986       29.836       11.023      342.328       17.660      864.613
11/01/2013  15:39:00       17.007      -15.433       16.375       27.460       43.758       25.582      754.078     1914.759      654.445        0.206        0.166       22.966       27.769        1.462      342.164       17.382      864.623
11/01/2013  15:40:00        3.383       10.774        4.587       18.318       18.777       19.022      335.547      352.580      361.822        0.060        0.052       11.293       11.098        0.966      342.206       17.454      864.616
11/01/2013  15:41:00      -18.847       -2.460      -12.571       26.930       29.251       14.808      725.236      855.618      219.288        0.116        0.090       19.007        8.841        0.216      342.104       17.282      864.600
11/01/2013  15:42:00       31.386      -42.669        2.161       30.552       37.517       23.517      933.424     1407.544      553.030        0.285        0.145       52.969        6.667        0.016      342.250       17.528      864.588
11/01/2013  15:43:00       43.897       47.456       31.659       40.946       35.750       41.895     1676.562     1278.027     1755.232        0.494        0.235       64.646       29.429        0.207      342.207       17.454      864.583
11/01/2013  15:44:00       14.136       42.082       -3.540       32.872       48.096       19.801     1080.546     2313.271      392.095        0.288        0.189       44.393       22.793        0.264      342.246       17.521      864.584
11/01/2013  15:45:00      102.031       62.009        7.732       78.146       51.177       33.027     6106.814     2619.054     1090.765        1.206        0.491      119.396       27.501        0.053      342.083       17.243      864.568
11/01/2013  15:46:00       49.784      166.047      -31.548       32.690       39.904       28.704     1068.621     1592.326      823.899        1.726        0.174      173.349       28.123        0.026      341.817       16.793      864.565
11/01/2013  15:47:00       26.606       77.975       -6.258       36.405       42.484       25.691     1325.323     1804.912      660.006        0.531        0.190       82.389       26.953        0.107      341.861       16.868      864.558
11/01/2013  15:48:00      -26.474       75.213      -13.595       24.631       17.373       19.016      606.682      301.811      361.618        0.391        0.064       79.736       12.950        0.026      341.954       17.026      864.546
11/01/2013  15:49:00        8.151       55.157       -6.350       50.816       41.048       29.046     2582.222     1684.935      843.680        0.413        0.256       55.756       18.985        0.116      342.076       17.233      864.534
11/01/2013  15:50:00      130.261       54.672       11.452       59.773       45.126       32.273     3572.818     2036.398     1041.548        1.337        0.333      141.270       21.183        0.022      341.932       16.988      864.522
11/01/2013  15:51:00      103.183       60.405       11.497       45.515       35.693       30.573     2071.579     1274.017      934.702        0.935        0.214      119.563       17.603        0.022      341.896       16.927      864.524
11/01/2013  15:52:00       13.184       10.771        5.335       18.776       36.545       13.991      352.522     1335.540      195.743        0.110        0.094       17.025       12.976        0.581      342.187       17.421      864.519
11/01/2013  15:53:00       51.295       57.642        5.509       24.714       34.420       24.970      610.767     1184.736      623.479        0.420        0.121       77.161       16.227        0.044      341.974       17.060      864.513
11/01/2013  15:54:00       35.571       29.469        5.732       30.982       35.367       21.556      959.859     1250.803      464.672        0.242        0.134       46.192       16.505        0.128      342.093       17.262      864.506
11/01/2013  15:55:00        4.954       -1.520       -8.827       32.735       33.639       17.209     1071.611     1131.551      296.158        0.130        0.125        5.182       15.231        8.639      342.203       17.448      864.504
11/01/2013  15:56:00        4.334      -24.332      -15.266       11.407       18.774       11.342      130.126      352.454      128.639        0.073        0.031       24.715        6.956        0.079      342.085       17.248      864.492
11/01/2013  15:57:00       -8.611      -57.198      -22.703       35.802       24.763       21.246     1281.759      613.185      451.402        0.310        0.117       57.843       12.242        0.045      342.302       17.618      864.498
11/01/2013  15:58:00      -59.914      -25.206      -18.509       33.409       30.470       22.409     1116.164      928.400      502.156        0.356        0.127       65.001       16.455        0.064      342.266       17.555      864.513
11/01/2013  15:59:00     -105.621      -36.301      -20.118       17.338       18.665       17.657      300.613      348.369      311.757        0.692        0.048      111.685        8.543        0.006      342.034       17.160      864.522
11/01/2013  16:00:00      -87.261      -27.441      -21.214       13.035       16.788       14.722      169.901      281.834      216.725        0.474        0.033       91.474        8.937        0.010      341.967       17.047      864.534
11/01/2013  16:01:00      -71.895      -20.415       -5.653       22.155       19.942       17.446      490.829      397.682      304.359        0.341        0.060       74.737       12.193        0.027      342.129       17.321      864.538
11/01/2013  16:02:00      -31.655       42.669      -18.643       24.112       42.984       21.008      581.401     1847.608      441.352        0.302        0.144       53.129       12.178        0.053      342.148       17.355      864.545
11/01/2013  16:03:00      -36.663       71.512      -18.738       21.566       24.287       17.753      465.089      589.854      315.157        0.409        0.069       80.363       10.475        0.017      342.146       17.351      864.547
11/01/2013  16:04:00      -15.647       78.998      -13.735       23.260       20.184       15.422      541.048      407.392      237.843        0.393        0.059       80.533        4.567        0.003      342.151       17.360      864.539
11/01/2013  16:05:00      -12.469       56.463        1.235       38.547       40.295       37.174     1485.861     1623.707     1381.896        0.392        0.225       57.824       29.777        0.265      342.303       17.620      864.532
11/01/2013  16:06:00       42.859      -25.456       18.246       30.631       25.750       19.553      938.262      663.078      382.309        0.240        0.099       49.848       12.247        0.060      342.267       17.558      864.524
11/01/2013  16:07:00       58.256      -18.094       -2.793       49.200       28.695       18.294     2420.614      823.401      334.659        0.365        0.179       61.002        7.687        0.016      342.171       17.395      864.519
11/01/2013  16:08:00       54.509       45.371       31.615       46.942       42.325       44.717     2203.553     1791.363     1999.629        0.601        0.300       70.921       28.470        0.161      342.126       17.317      864.512
11/01/2013  16:09:00       38.460       23.605       26.209       48.063       39.719       27.143     2310.094     1577.622      736.734        0.367        0.231       45.126       16.627        0.136      342.151       17.359      864.512
11/01/2013  16:10:00       25.424        4.101        6.760       27.202       30.512       24.482      739.950      930.994      599.391        0.149        0.114       25.753       22.815        0.785      342.211       17.462      864.505
11/01/2013  16:11:00        3.377       35.030       43.228       25.067       26.880       18.700      628.363      722.542      349.690        0.240        0.085       35.192        6.138        0.030      342.299       17.611      864.490
11/01/2013  16:12:00       63.884       41.272       13.742       38.335       26.787       29.284     1469.567      717.549      857.575        0.451        0.152       76.056       18.926        0.062      342.168       17.391      864.474
11/01/2013  16:13:00       58.701       51.714       23.024       54.483       30.638       32.781     2968.435      938.700     1074.579        0.582        0.249       78.232       29.778        0.145      342.169       17.390      864.473
11/01/2013  16:14:00       29.719       49.641       -0.529       26.186       32.558       18.392      685.731     1060.003      338.281        0.272        0.104       57.857       14.128        0.060      342.131       17.324      864.468
11/01/2013  16:15:00        0.431       13.080       -6.992       11.204       22.279       13.089      125.523      496.337      171.324        0.051        0.040       13.088        7.824        0.357      342.224       17.484      864.464
11/01/2013  16:16:00       23.900       14.877       -6.032       22.024       14.836       13.318      485.051      220.103      177.375        0.086        0.044       28.152        8.173        0.084      342.151       17.359      864.467
11/01/2013  16:17:00        1.342       38.282       62.881       22.264       27.886       26.670      495.676      777.628      711.296        0.370        0.099       38.305       22.741        0.352      342.408       17.796      864.465
11/01/2013  16:18:00       -3.535       38.049       76.545       14.617       32.669       20.604      213.651     1067.266      424.508        0.451        0.085       38.213       21.699        0.322      342.441       17.854      864.462
11/01/2013  16:19:00       13.925       63.493       73.929       33.120       31.468       21.350     1096.949      990.205      455.803        0.612        0.127       65.002       20.944        0.104      342.276       17.573      864.458
11/01/2013  16:20:00       56.145       25.893       30.159       25.261       28.099       32.768      638.108      789.546     1073.723        0.362        0.125       61.828       25.044        0.164      342.109       17.289      864.452
11/01/2013  16:21:00       22.968      -24.949        5.465       19.391       20.579       17.882      376.006      423.495      319.782        0.115        0.056       33.912        9.267        0.075      342.203       17.449      864.450
11/01/2013  16:22:00        8.012       -2.259       -1.381       15.354        6.671       12.588      235.756       44.501      158.455        0.025        0.022        8.325       10.099        1.472      342.340       17.682      864.435
11/01/2013  16:23:00       16.135       31.752       19.122       17.784       30.741       13.818      316.260      945.006      190.942        0.154        0.073       35.616       13.602        0.146      342.235       17.502      864.428
11/01/2013  16:24:00        5.821       71.421      -19.701       23.211       18.336       12.676      538.756      336.224      160.683        0.328        0.052       71.658        7.410        0.011      342.161       17.376      864.429
11/01/2013  16:25:00      -10.895       41.431      -12.542       18.659       21.665       13.401      348.144      469.363      179.600        0.149        0.050       42.839       11.232        0.069      342.172       17.395      864.431
11/01/2013  16:26:00       30.247       99.559      -23.878       18.961       18.658        9.962      359.512      348.127       99.245        0.610        0.040      104.052        6.294        0.004      342.108       17.287      864.427
11/01/2013  16:27:00       25.502       59.691       -9.147       28.879       36.503       22.966      834.013     1332.468      527.452        0.350        0.135       64.911       26.488        0.167      342.145       17.350      864.428
11/01/2013  16:28:00       26.035       60.018      -10.917       14.675       23.153       12.484      215.362      536.048      155.859        0.265        0.045       65.422       12.744        0.038      342.092       17.257      864.426
11/01/2013  16:29:00       22.203       52.932      -16.664       26.358       22.526       14.715      694.759      507.414      216.543        0.250        0.071       57.400       12.096        0.044      342.139       17.339      864.422
11/01/2013  16:30:00       30.819       48.451      -12.811       18.359       27.082       17.676      337.067      733.462      312.431        0.242        0.069       57.423       13.260        0.053      342.129       17.323      864.411
11/01/2013  16:31:00       15.257       24.363       -6.321        9.799       13.821        9.571       96.019      191.017       91.607        0.062        0.019       28.746        9.746        0.115      342.146       17.352      864.400
11/01/2013  16:32:00       20.033       15.541       -4.868       30.427       11.498       11.171      925.817      132.198      124.798        0.092        0.059       25.354        6.313        0.062      342.173       17.396      864.382
11/01/2013  16:33:00       46.848       14.496       -4.102       16.276       12.105        9.502      264.916      146.532       90.290        0.146        0.025       49.039        2.257        0.002      342.108       17.287      864.362
11/01/2013  16:34:00       21.695       26.903       -3.730       12.566       15.482       11.788      157.903      239.702      138.955        0.087        0.027       34.560        7.718        0.050      342.132       17.328      864.346
11/01/2013  16:35:00       26.980       20.743       -3.261       15.581       10.765        9.286      242.753      115.885       86.228        0.081        0.022       34.032        5.314        0.024      342.131       17.327      864.327
11/01/2013  16:36:00       32.792       32.857       -2.433       26.394       22.304       18.140      696.631      497.460      329.064        0.184        0.076       46.421       17.951        0.150      342.160       17.376      864.309
11/01/2013  16:37:00       31.678       26.970       -6.001        9.690        9.877       10.808       93.898       97.553      116.816        0.104        0.015       41.604        7.733        0.035      342.134       17.332      864.290
11/01/2013  16:38:00       30.766       19.910        4.275       38.030       24.724       17.121     1446.292      611.259      293.112        0.186        0.118       36.646       10.646        0.084      342.173       17.398      864.280
11/01/2013  16:39:00       42.146       41.386       -0.991       23.406       25.907       19.444      547.856      671.181      378.073        0.254        0.080       59.069       19.556        0.110      342.140       17.343      864.264
11/01/2013  16:40:00       12.381       61.528      -12.283       13.941       11.584        8.146      194.365      134.187       66.365        0.224        0.020       62.761        6.302        0.010      342.154       17.365      864.252
11/01/2013  16:41:00       12.491       31.954       -9.630       13.073       21.351        8.351      170.899      455.872       69.737        0.098        0.035       34.308        3.865        0.013      342.198       17.440      864.234
11/01/2013  16:42:00       -0.151        6.657       -4.057        8.593       10.803        7.944       73.843      116.710       63.114        0.016        0.013        6.659        7.498        1.268      342.448       17.865      864.218
11/01/2013  16:43:00        1.461       27.597       -8.368       12.194       12.805        5.631      148.695      163.979       31.709        0.059        0.017       27.635        5.482        0.039      342.193       17.432      864.203
11/01/2013  16:44:00        9.520       -0.855        5.911       11.838        9.889       10.369      140.143       97.787      107.522        0.024        0.017        9.559        3.262        0.116      342.424       17.823      864.201
11/01/2013  16:45:00       16.553        9.012       -8.336        5.779        5.639       10.346       33.398       31.803      107.032        0.030        0.009       18.848        4.579        0.059      342.217       17.472      864.189
11/01/2013  16:46:00       11.280        9.415       16.736       14.739        8.213        7.152      217.247       67.461       51.153        0.042        0.017       14.693        5.624        0.147      342.380       17.750      864.181
11/01/2013  16:47:00       20.627        8.959       20.151       12.762       10.503        9.407      162.878      110.305       88.493        0.064        0.018       22.488        4.635        0.042      342.347       17.694      864.181
11/01/2013  16:48:00       33.091       10.367       10.916       13.510       13.924       11.597      182.529      193.889      134.485        0.092        0.026       34.676        8.613        0.062      342.196       17.438      864.180
11/01/2013  16:49:00        2.931       -4.573       -8.210       16.428       11.720       13.291      269.879      137.348      176.640        0.034        0.029        5.432       11.114        4.187      342.401       17.785      864.172
11/01/2013  16:50:00       46.755       21.010       16.282       16.175       10.066       14.120      261.646      101.330      199.385        0.173        0.028       51.259        9.715        0.036      342.187       17.423      864.176
11/01/2013  16:51:00       45.189       17.501        4.952       14.091       14.156        9.298      198.558      200.378       86.456        0.143        0.024       48.459        8.278        0.029      342.156       17.368      864.175
11/01/2013  16:52:00       23.913       -8.450        3.185       21.021        9.469        9.998      441.874       89.671       99.956        0.064        0.032       25.362        5.901        0.054      342.305       17.622      864.173
11/01/2013  16:53:00       22.935       17.040        5.203       15.647       13.507        8.439      244.821      182.432       71.222        0.067        0.025       28.573        4.193        0.022      342.269       17.563      864.178
11/01/2013  16:54:00       52.768       24.254        7.230       24.297       14.533       10.108      590.336      211.214      102.170        0.216        0.045       58.075        2.471        0.002      342.174       17.399      864.179
11/01/2013  16:55:00       46.054       21.335        4.714       20.363       11.795        9.846      414.643      139.130       96.953        0.162        0.033       50.755        3.748        0.005      342.128       17.322      864.179
11/01/2013  16:56:00       13.232       11.703        4.614        9.044       10.400        8.619       81.790      108.155       74.282        0.030        0.013       17.665        5.915        0.112      342.233       17.500      864.168
11/01/2013  16:57:00       37.774       12.223        7.562       27.490       22.314       12.464      755.684      497.927      155.343        0.152        0.070       39.702        7.563        0.036      342.209       17.458      864.159
11/01/2013  16:58:00       59.967       34.069       22.984       16.615       15.816       17.229      276.073      250.142      296.852        0.305        0.041       68.969       10.425        0.023      342.110       17.290      864.147
11/01/2013  16:59:00       50.941       32.419        4.493       18.576       16.810       12.994      345.056      282.568      168.849        0.223        0.040       60.382        9.355        0.024      342.099       17.271      864.139
11/01/2013  17:00:00       25.029       40.334       -1.231       13.444       19.305       14.495      180.738      372.668      210.097        0.151        0.038       47.468        9.208        0.038      342.091       17.257      864.132
11/01/2013  17:01:00       20.981       46.189      -10.629       12.236       17.614        8.048      149.727      310.254       64.775        0.161        0.026       50.731        4.602        0.008      342.140       17.340      864.129
11/01/2013  17:02:00       12.549       67.096      -12.340       12.941       11.437        5.988      167.477      130.805       35.860        0.257        0.017       68.260        3.797        0.003      342.131       17.328      864.122
11/01/2013  17:03:00        2.424       76.326      -15.311       15.547       15.003        7.566      241.705      225.080       57.249        0.329        0.026       76.364        6.176        0.007      342.147       17.353      864.110
11/01/2013  17:04:00      -13.581       76.472      -15.149       14.440       14.895        7.393      208.501      221.874       54.660        0.337        0.024       77.669        3.823        0.002      342.145       17.350      864.095
11/01/2013  17:05:00      -17.689       55.448      -14.609       13.059       23.670        8.035      170.533      560.268       64.568        0.220        0.040       58.201        7.953        0.019      342.190       17.425      864.077
11/01/2013  17:06:00      -10.123       55.494      -13.150       13.557       14.624        7.152      183.792      213.868       51.154        0.190        0.022       56.410        6.138        0.012      342.176       17.404      864.072
11/01/2013  17:07:00      -21.291       44.272       -6.094       12.484       19.347       14.078      155.861      374.311      198.191        0.159        0.036       49.126        6.279        0.016      342.273       17.567      864.064
11/01/2013  17:08:00      -21.796       16.968        6.814       22.616       19.919       15.409      511.502      396.767      237.427        0.098        0.057       27.622       14.521        0.276      342.456       17.879      864.062
11/01/2013  17:09:00      -37.345       16.699        2.259       24.406       15.682       13.819      595.643      245.931      190.962        0.136        0.052       40.908       13.088        0.102      342.430       17.833      864.057
11/01/2013  17:10:00      -44.674       13.121        0.205       25.615       17.039       13.262      656.109      290.319      175.876        0.164        0.056       46.561       11.196        0.058      342.435       17.843      864.055
11/01/2013  17:11:00      -14.652       23.749       12.596       20.800       25.223       13.950      432.638      636.202      194.599        0.110        0.063       27.905       11.044        0.157      342.441       17.853      864.041
11/01/2013  17:12:00      -16.802        8.280        5.949       21.234       13.433       10.699      450.902      180.432      114.461        0.057        0.037       18.732       12.076        0.416      342.373       17.737      864.033
11/01/2013  17:13:00      -19.842      -11.438        6.767       14.931       16.218       10.951      222.945      263.022      119.930        0.059        0.030       22.903        7.957        0.121      342.477       17.914      864.024
11/01/2013  17:14:00       13.241       24.617        8.694       13.801       12.640       13.334      190.469      159.765      177.808        0.069        0.026       27.952       11.391        0.166      342.252       17.533      864.012
11/01/2013  17:15:00       -1.655       27.130       -0.235       13.771       15.332       10.017      189.638      235.064      100.344        0.063        0.026       27.180        7.983        0.086      342.270       17.562      864.007
11/01/2013  17:16:00      -13.044       62.611      -10.249        9.746       22.467        8.696       94.975      504.760       75.624        0.244        0.034       63.955       10.528        0.027      342.229       17.492      863.997
11/01/2013  17:17:00      -13.871       68.317      -15.822        9.533       11.484        7.017       90.880      131.893       49.242        0.269        0.014       69.711        2.658        0.001      342.200       17.446      863.988
11/01/2013  17:18:00      -13.178       42.765       -9.883       11.901       13.732        8.040      141.641      188.561       64.644        0.125        0.020       44.749        6.442        0.021      342.238       17.509      863.975
11/01/2013  17:19:00      -11.817       65.048       -9.483       10.787       10.558        8.669      116.350      111.465       75.151        0.238        0.015       66.113        1.073        0.000      342.289       17.593      863.964
11/01/2013  17:20:00       -5.373       40.986      -10.487        5.520       11.125        6.094       30.472      123.756       37.132        0.101        0.010       41.337        2.431        0.003      342.222       17.479      863.963
11/01/2013  17:21:00       -0.763       43.407      -10.750        3.209        7.995        4.496       10.296       63.923       20.216        0.105        0.005       43.413        3.461        0.006      342.219       17.473      863.959
11/01/2013  17:22:00        3.324       26.591       -6.514        6.098        9.474        5.653       37.183       89.762       31.954        0.046        0.008       26.798        5.062        0.036      342.201       17.446      863.966
11/01/2013  17:23:00       10.056       24.098       -5.759       14.959       10.329        4.294      223.785      106.681       18.435        0.053        0.017       26.112        3.298        0.016      342.168       17.388      863.980
11/01/2013  17:24:00       24.063       18.972        2.824       13.066        7.653        6.410      170.730       58.563       41.092        0.061        0.014       30.643        5.463        0.032      342.126       17.317      863.989
11/01/2013  17:25:00       33.064        4.129        3.392        8.950       22.246       11.525       80.095      494.906      132.828        0.091        0.035       33.321        7.656        0.053      342.205       17.453      863.989
11/01/2013  17:26:00       21.333        6.940        1.743        9.150       10.999       15.826       83.726      120.974      250.467        0.048        0.023       22.434        9.503        0.179      342.188       17.424      863.988
11/01/2013  17:27:00       22.175        9.082       -9.671        6.195        7.003        8.983       38.378       49.037       80.686        0.042        0.008       23.962        5.554        0.054      342.187       17.425      863.972
11/01/2013  17:28:00       13.041       10.565       -0.935        5.615        7.546        7.583       31.530       56.937       57.501        0.021        0.007       16.784        4.108        0.060      342.187       17.424      863.965
11/01/2013  17:29:00       15.334        6.340       -3.009        4.672        5.182        5.375       21.823       26.851       28.894        0.018        0.004       16.593        3.428        0.043      342.186       17.423      863.958
11/01/2013  17:30:00        1.965       13.072        3.149        6.212        9.265        5.863       38.593       85.833       34.370        0.017        0.008       13.219        4.208        0.101      342.202       17.449      863.950
11/01/2013  17:31:00       18.131       38.627       -0.282       13.830       15.215        9.837      191.278      231.502       96.760        0.117        0.026       42.670        6.910        0.026      342.157       17.371      863.933
11/01/2013  17:32:00       15.936       41.226       -4.935       14.872        9.690        8.250      221.180       93.892       68.071        0.118        0.019       44.199        5.308        0.014      342.137       17.334      863.921
11/01/2013  17:33:00       -1.105       48.817       -8.200        5.149        8.958        6.071       26.507       80.250       36.861        0.130        0.007       48.829        4.701        0.009      342.204       17.452      863.912
11/01/2013  17:34:00       -4.916       38.676       -8.569        8.000        7.189        7.058       64.003       51.684       49.818        0.088        0.008       38.987        3.689        0.009      342.198       17.441      863.903
11/01/2013  17:35:00       -3.190       34.326       -8.207        5.459        9.594        4.568       29.798       92.042       20.866        0.070        0.007       34.474        3.302        0.009      342.193       17.436      863.906
11/01/2013  17:36:00       -4.465       41.157      -12.951        6.688       11.013        4.699       44.724      121.288       22.082        0.103        0.009       41.398        1.339        0.001      342.189       17.428      863.915
11/01/2013  17:37:00       -0.847       10.823        2.352        6.138        7.391        7.754       37.669       54.624       60.120        0.014        0.008       10.856        5.074        0.218      342.177       17.404      863.928
11/01/2013  17:38:00        7.151        4.877       -4.486        3.175        4.097        3.917       10.082       16.782       15.340        0.007        0.002        8.656        2.324        0.072      342.111       17.297      863.931
11/01/2013  17:39:00       15.432        3.319       -1.016        5.493        3.184        2.708       30.168       10.135        7.335        0.015        0.002       15.785        1.685        0.011      342.081       17.243      863.934
11/01/2013  17:40:00       22.672       11.289        2.847        5.490        4.311        5.025       30.141       18.581       25.251        0.036        0.004       25.327        4.114        0.026      342.079       17.238      863.930
11/01/2013  17:41:00       26.798        9.551        1.836        3.348        3.683        2.489       11.210       13.561        6.194        0.042        0.002       28.449        2.407        0.007      342.099       17.266      863.926
11/01/2013  17:42:00       17.227       13.204        1.492        6.312        5.675        4.825       39.837       32.202       23.285        0.028        0.005       21.705        2.529        0.014      342.046       17.182      863.919
11/01/2013  17:43:00       11.778       11.933       -5.224        6.926        7.963        6.345       47.970       63.402       40.257        0.023        0.008       16.766        2.738        0.027      341.966       17.048      863.900
11/01/2013  17:44:00       31.479       20.252        2.419        9.323        7.594        5.548       86.925       57.663       30.780        0.079        0.009       37.431        1.449        0.001      342.026       17.149      863.890
11/01/2013  17:45:00       39.191       26.909        0.520        4.611        5.318        3.076       21.260       28.280        9.464        0.116        0.003       47.540        2.925        0.004      342.015       17.128      863.880
11/01/2013  17:46:00       52.527       17.480        3.064       24.177       27.294       18.454      584.503      744.989      340.539        0.237        0.084       55.359        8.252        0.022      341.702       16.597      863.877
11/01/2013  17:47:00      132.193       53.290       18.256       43.922       36.283       24.779     1929.135     1316.422      613.992        1.225        0.193      142.529       11.440        0.006      341.418       16.117      863.879
11/01/2013  17:48:00      158.307       87.014       38.626       48.124       35.375       33.175     2315.893     1251.417     1100.554        1.940        0.233      180.644       14.378        0.006      341.546       16.333      863.890
11/01/2013  17:49:00       94.604       43.121       38.980       38.000       37.673       30.785     1443.978     1419.279      947.741        0.807        0.191      103.968       21.046        0.041      341.366       16.029      863.895
11/01/2013  17:50:00       93.601       44.137       41.013       57.238       39.518       39.569     3276.202     1561.644     1565.718        0.940        0.320      103.485       11.846        0.013      341.309       15.932      863.899
11/01/2013  17:51:00       96.524       41.282       59.563       52.724       50.208       43.434     2779.863     2520.850     1886.547        1.088        0.359      104.981       30.525        0.085      341.317       15.947      863.900
11/01/2013  17:52:00       65.428       49.894       41.925       49.268       38.427       25.942     2427.288     1476.662      672.982        0.655        0.229       82.281       19.754        0.058      341.255       15.840      863.914
11/01/2013  17:53:00       82.966       60.956       37.223       23.957       26.051       23.314      573.947      678.647      543.564        0.689        0.090      102.951       10.863        0.011      341.205       15.756      863.928
11/01/2013  17:54:00       74.501       67.951       54.557       28.844       34.618       24.190      831.949     1198.384      585.148        0.788        0.131      100.835       19.503        0.037      341.222       15.786      863.940
11/01/2013  17:55:00       99.852       26.579       19.577       40.860       42.190       32.424     1669.548     1780.025     1051.291        0.778        0.225      103.329       22.193        0.046      341.244       15.823      863.949
11/01/2013  17:56:00       86.352       29.497       10.183       44.840       36.025       25.990     2010.647     1297.834      675.494        0.621        0.199       91.251       23.069        0.064      341.144       15.653      863.964
11/01/2013  17:57:00      139.636       84.469       23.927       45.484       50.372       31.382     2068.773     2537.307      984.813        1.640        0.280      163.197       24.028        0.022      341.217       15.775      863.979
11/01/2013  17:58:00      113.000       64.442       46.107       59.401       54.793       56.419     3528.523     3002.263     3183.052        1.438        0.486      130.083       36.125        0.077      341.192       15.733      863.977
11/01/2013  17:59:00      119.123       40.343       38.985       68.743       53.385       39.861     4725.606     2849.974     1588.866        1.325        0.458      125.769       20.685        0.027      341.162       15.682      863.971
11/01/2013  18:00:00      108.156       27.648        3.133       58.237       48.933       38.726     3391.554     2394.442     1499.718        0.988        0.364      111.634       22.730        0.041      341.179       15.712      863.970
11/01/2013  18:01:00       66.707       50.972       32.735       55.217       40.422       28.237     3048.914     1633.903      797.321        0.680        0.274       83.952       22.036        0.069      341.078       15.541      863.959
11/01/2013  18:02:00       84.477       13.863       10.370       46.088       34.182       33.633     2124.104     1168.421     1131.174        0.593        0.221       85.607       20.122        0.055      341.136       15.639      863.959
11/01/2013  18:03:00      125.647       41.440       15.453       47.416       34.265       30.740     2248.254     1174.083      944.958        1.105        0.218      132.304       24.406        0.034      341.177       15.708      863.948
11/01/2013  18:04:00       36.604       25.821       21.827       40.251       28.684       20.768     1620.111      822.763      431.304        0.268        0.144       44.795       17.193        0.147      341.074       15.533      863.950
11/01/2013  18:05:00       83.336       45.361       14.109       30.633       26.652       30.610      938.378      710.348      936.971        0.589        0.129       94.882       23.857        0.063      341.065       15.519      863.950
11/01/2013  18:06:00       53.330       11.634        5.195       35.317       31.163       24.530     1247.299      971.121      601.733        0.291        0.141       54.584       13.719        0.063      341.077       15.540      863.953
11/01/2013  18:07:00       58.679       31.619        2.440       21.046       12.351       16.419      442.919      152.535      269.576        0.266        0.043       66.656        9.127        0.019      341.012       15.429      863.963
11/01/2013  18:08:00       78.286       27.395       11.056       28.730       15.112       15.218      825.411      228.362      231.585        0.414        0.064       82.941        9.725        0.014      340.975       15.366      863.973
11/01/2013  18:09:00       85.244       38.809       14.248       40.986       30.065       20.957     1679.884      903.919      439.191        0.600        0.151       93.663        9.442        0.010      340.953       15.331      863.967
11/01/2013  18:10:00       80.469       63.184       15.710       38.203       25.217       22.597     1459.432      635.892      510.619        0.666        0.130      102.310       17.320        0.029      340.958       15.336      863.966
11/01/2013  18:11:00       93.392       60.348       17.447       31.142       25.876       24.241      969.798      669.568      587.622        0.745        0.111      111.193       13.071        0.014      340.917       15.268      863.948
11/01/2013  18:12:00      111.912       67.653        5.648       43.347       29.211       21.376     1878.997      853.283      456.923        1.016        0.159      130.772       16.080        0.015      340.920       15.273      863.940
11/01/2013  18:13:00       41.236       19.888       18.305       21.437       13.581       17.972      459.534      184.452      322.980        0.170        0.048       45.782       11.572        0.064      340.754       14.994      863.938
11/01/2013  18:14:00       73.118       43.933       16.174       30.861       22.986       25.136      952.385      528.369      631.835        0.482        0.106       85.302       17.928        0.044      340.843       15.144      863.949
11/01/2013  18:15:00       81.568       55.859       27.233       49.280       27.284       29.955     2428.522      744.408      897.302        0.729        0.204       98.861       26.733        0.073      340.825       15.112      863.966
11/01/2013  18:16:00       39.157       28.156       35.409       34.300       23.853       27.895     1176.458      568.948      778.114        0.305        0.126       48.229       14.081        0.085      340.796       15.063      863.975
11/01/2013  18:17:00       40.873       23.962       14.467       22.035       16.900       20.042      485.562      285.613      401.684        0.181        0.059       47.379       12.375        0.068      340.700       14.903      863.999
11/01/2013  18:18:00       93.697       43.009       12.289       27.617       23.006       22.511      762.678      529.274      506.734        0.629        0.090      103.097       16.366        0.025      340.766       15.012      864.012
11/01/2013  18:19:00       49.464       23.198        8.575       22.454       21.895       15.907      504.161      479.404      253.017        0.215        0.062       54.634       13.399        0.060      340.661       14.837      864.015
11/01/2013  18:20:00       61.533       19.957       -0.003       25.796       19.261       13.841      665.458      371.001      191.569        0.271        0.061       64.689        9.291        0.021      340.600       14.732      864.024
11/01/2013  18:21:00       83.575       53.700       22.738       41.814       35.278       27.945     1748.372     1244.510      780.911        0.708        0.189       99.340       16.727        0.028      340.677       14.862      864.021
11/01/2013  18:22:00      105.160       63.667       14.693       30.274       30.552       23.445      916.512      933.418      549.655        0.886        0.120      122.931       20.317        0.027      340.738       14.966      864.022
11/01/2013  18:23:00       88.815       54.895       39.680       33.778       39.709       26.630     1140.961     1576.789      709.160        0.795        0.171      104.410       20.718        0.039      340.641       14.802      864.022
11/01/2013  18:24:00       95.782       50.935       26.381       34.202       31.794       22.481     1169.786     1010.851      505.407        0.757        0.134      108.483       15.830        0.021      340.623       14.771      864.025
11/01/2013  18:25:00       96.962       55.035       40.120       40.578       28.007       29.275     1646.586      784.410      857.045        0.866        0.164      111.492       21.918        0.039      340.598       14.730      864.033
11/01/2013  18:26:00       89.931       44.072       18.162       32.938       22.977       24.679     1084.926      527.937      609.052        0.629        0.111      100.149       19.455        0.038      340.590       14.715      864.044
11/01/2013  18:27:00       83.945       43.943       19.573       21.303       20.653       23.773      453.829      426.530      565.151        0.540        0.072       94.751       10.893        0.013      340.539       14.629      864.039
11/01/2013  18:28:00       64.590       37.592       33.958       43.807       30.747       18.330     1919.091      945.370      335.981        0.497        0.160       74.733       15.598        0.044      340.460       14.496      864.050
11/01/2013  18:29:00      119.280       55.579       13.443       19.368       24.319       16.101      375.120      591.425      259.246        0.936        0.061      131.593        9.603        0.005      340.546       14.642      864.056
11/01/2013  18:30:00       89.785       43.875       21.990       31.174       25.772       23.432      971.800      664.218      549.073        0.633        0.109       99.932       11.977        0.014      340.516       14.590      864.070
11/01/2013  18:31:00       94.718       38.919       30.592       32.925       26.157       19.864     1084.061      684.213      394.581        0.679        0.108      102.402       17.372        0.029      340.529       14.612      864.080
11/01/2013  18:32:00       46.421       20.508       33.624       44.756       27.874       18.284     2003.127      776.968      334.312        0.341        0.156       50.749       17.669        0.121      340.497       14.558      864.091
11/01/2013  18:33:00       44.709       28.633       35.940       32.552       17.613       19.666     1059.617      310.224      386.759        0.293        0.088       53.092       21.816        0.169      340.446       14.472      864.106
11/01/2013  18:34:00       85.617       39.886       10.447       19.567       18.339       13.942      382.850      336.332      194.391        0.497        0.046       94.452       10.032        0.011      340.515       14.589      864.127
11/01/2013  18:35:00       58.996       25.227       31.615       30.131       22.461       24.585      907.891      504.487      604.439        0.357        0.101       64.164       16.152        0.063      340.493       14.552      864.141
11/01/2013  18:36:00       61.614       56.132       47.991       28.269       20.473       17.555      799.142      419.125      308.162        0.539        0.076       83.349       10.646        0.016      340.504       14.571      864.161
11/01/2013  18:37:00       53.125       62.420       54.508       46.009       35.295       28.877     2116.843     1245.705      833.874        0.694        0.210       81.967       19.843        0.059      340.567       14.677      864.187
11/01/2013  18:38:00       54.321       61.309       68.731       27.215       34.396       15.711      740.640     1183.076      246.820        0.680        0.109       81.912       15.013        0.034      340.606       14.742      864.196
11/01/2013  18:39:00       26.407       35.598       48.326       28.521       28.602       22.399      813.432      818.051      501.736        0.322        0.107       44.324       22.633        0.261      340.503       14.569      864.216
11/01/2013  18:40:00       11.335       39.034       47.445       34.473       25.516       22.555     1188.396      651.043      508.724        0.313        0.117       40.647       25.023        0.379      340.367       14.338      864.227
11/01/2013  18:41:00       43.324       14.522       38.784       36.165       26.602       21.972     1307.942      707.669      482.773        0.304        0.125       45.693       18.064        0.156      340.466       14.507      864.222
11/01/2013  18:42:00       67.492       37.454       41.132       24.751       23.927       24.652      612.601      572.510      607.707        0.472        0.090       77.188       16.006        0.043      340.468       14.510      864.217
11/01/2013  18:43:00       54.507       38.583       38.488       27.407       24.531       29.853      751.154      601.766      891.193        0.409        0.112       66.781       13.119        0.039      340.482       14.534      864.212
11/01/2013  18:44:00       64.180        4.078       18.339       34.671       36.745       25.050     1202.061     1350.205      627.496        0.383        0.159       64.310       22.760        0.125      340.534       14.621      864.202
11/01/2013  18:45:00       50.070       23.066       29.285       31.286       26.808       25.412      978.819      718.688      645.746        0.312        0.117       55.128       18.237        0.109      340.424       14.435      864.205
11/01/2013  18:46:00       33.351       21.440       33.581       29.975       18.515       17.601      898.475      342.792      309.800        0.213        0.078       39.648       16.626        0.176      340.401       14.395      864.217
11/01/2013  18:47:00       34.204       35.035       34.442       27.455       15.662       13.519      753.764      245.297      182.756        0.238        0.059       48.963        3.270        0.004      340.412       14.414      864.221
11/01/2013  18:48:00       12.770       19.708       32.514       13.454       16.034        9.796      181.006      257.087       95.963        0.107        0.027       23.484        6.271        0.071      340.364       14.333      864.232
11/01/2013  18:49:00       18.143       28.053       30.399       19.298       13.564       15.185      372.411      183.989      230.588        0.141        0.039       33.409       12.857        0.148      340.410       14.413      864.224
11/01/2013  18:50:00       36.029        4.901       26.463       24.282       30.871       16.944      589.616      953.032      287.094        0.193        0.091       36.361       19.668        0.293      340.373       14.348      864.228
11/01/2013  18:51:00       22.730       28.144       37.378       28.440       24.621       20.343      808.807      606.196      413.827        0.227        0.091       36.176       18.221        0.254      340.372       14.348      864.235
11/01/2013  18:52:00       12.615        9.055       24.180       19.400       11.743       11.460      376.379      137.899      131.324        0.074        0.032       15.528        5.596        0.130      340.273       14.179      864.237
11/01/2013  18:53:00       49.558       15.824       10.278       16.396       17.332       14.819      268.840      300.384      219.614        0.180        0.039       52.023        8.851        0.029      340.351       14.313      864.239
11/01/2013  18:54:00       35.703       10.403       22.659       18.776       17.462       15.586      352.522      304.915      242.914        0.140        0.045       37.188       10.967        0.087      340.289       14.208      864.246
11/01/2013  18:55:00       37.746       -0.117       20.552       26.836       14.823       13.730      720.179      219.716      188.512        0.149        0.056       37.746       12.235        0.105      340.339       14.289      864.243
11/01/2013  18:56:00       49.015      -12.695        8.727       17.139       13.311       13.416      293.731      177.191      180.001        0.165        0.033       50.632        9.086        0.032      340.362       14.331      864.246
11/01/2013  18:57:00       19.899      -13.269        9.263       24.137       17.390       11.305      582.588      302.414      127.793        0.084        0.051       23.917       14.009        0.343      340.210       14.073      864.243
11/01/2013  18:58:00       30.533      -21.765        2.619       15.759       13.764        8.964      248.331      189.447       80.353        0.097        0.026       37.496        8.286        0.049      340.400       14.394      864.249
11/01/2013  18:59:00        3.800       -9.539        3.927       19.902       12.440       11.028      396.086      154.752      121.610        0.040        0.034       10.268       13.113        1.631      340.151       13.972      864.246
11/01/2013  19:00:00      -31.977      -12.159       -7.051       10.590        8.519        7.815      112.149       72.572       61.071        0.073        0.012       34.211        7.646        0.050      339.601       13.047      864.268
11/01/2013  19:01:00      -27.844      -13.928       -8.402       11.860       10.213        8.262      140.670      104.316       68.262        0.068        0.016       31.133        5.072        0.027      339.514       12.900      864.274
11/01/2013  19:02:00      -40.110      -25.796       -9.257       15.194       10.246        8.295      230.862      104.990       68.804        0.138        0.020       47.689        3.557        0.006      339.558       12.974      864.288
11/01/2013  19:03:00      -67.830      -16.355      -15.713        7.588       12.895        7.867       57.582      166.278       61.886        0.270        0.014       69.774        5.310        0.006      339.288       12.519      864.294
11/01/2013  19:04:00      -45.491       -1.139       -9.770       17.688       11.489        8.630      312.870      132.008       74.482        0.134        0.026       45.505        7.783        0.029      339.400       12.706      864.313
11/01/2013  19:05:00      -11.670        8.727       -2.715       12.559       17.488        9.250      157.721      305.830       85.565        0.038        0.027       14.572        8.551        0.344      339.875       13.508      864.314
11/01/2013  19:06:00       -7.563       -2.495       -2.213       11.391       17.071        8.259      129.764      291.411       68.213        0.028        0.024        7.964        7.290        0.838      339.801       13.385      864.325
11/01/2013  19:07:00      -19.409      -30.099       -2.418       18.901       13.651       11.619      357.230      186.355      134.995        0.098        0.034       35.814        7.619        0.045      339.772       13.334      864.313
11/01/2013  19:08:00      -26.334      -23.977      -11.738       12.916       10.969       10.688      166.827      120.314      114.232        0.090        0.020       35.615        4.222        0.014      339.494       12.866      864.322
11/01/2013  19:09:00      -44.974      -20.881      -15.866       19.080       13.838       11.295      364.058      191.496      127.577        0.170        0.034       49.585        7.457        0.023      339.384       12.682      864.322
11/01/2013  19:10:00      -56.790      -15.134       -9.582       19.497       15.653        9.130      380.122      245.027       83.350        0.213        0.035       58.772       10.183        0.030      339.509       12.892      864.323
11/01/2013  19:11:00      -35.108      -27.018      -12.512       21.159       20.029       13.521      447.701      401.151      182.820        0.158        0.052       44.301        9.253        0.044      339.281       12.506      864.323
11/01/2013  19:12:00      -77.084       -0.637      -17.489       12.786        9.103        8.644      163.470       82.872       74.711        0.328        0.016       77.087        3.841        0.002      338.997       12.029      864.317
11/01/2013  19:13:00      -74.906      -10.306      -14.143       16.521       12.584       10.222      272.927      158.349      104.486        0.323        0.027       75.611        6.706        0.008      338.870       11.815      864.314
11/01/2013  19:14:00      -68.273      -13.715      -19.155       14.311       11.850        9.629      204.803      140.431       92.713        0.283        0.022       69.637        4.214        0.004      339.003       12.039      864.306
11/01/2013  19:15:00      -62.778      -17.642      -16.502       11.579       11.242       11.290      134.077      126.378      127.466        0.246        0.019       65.210        5.560        0.007      338.906       11.875      864.296
11/01/2013  19:16:00      -79.220      -13.073      -13.065       13.155       12.281       11.131      173.046      150.828      123.903        0.353        0.022       80.291        6.858        0.007      338.949       11.948      864.289
11/01/2013  19:17:00      -71.205      -23.433      -14.609       12.855       22.598       12.995      165.252      510.648      168.863        0.334        0.042       74.962       10.115        0.018      338.792       11.684      864.290
11/01/2013  19:18:00      -77.880      -24.452      -14.342       17.636       13.379       12.399      311.014      178.985      153.728        0.376        0.032       81.629        8.040        0.010      338.819       11.730      864.280
11/01/2013  19:19:00      -78.848      -36.718      -22.224       18.923       20.946       13.128      358.079      438.754      172.351        0.451        0.048       86.978       10.657        0.015      338.654       11.452      864.289
11/01/2013  19:20:00      -57.742      -19.840      -15.266       11.395       19.821       10.625      129.839      392.880      112.895        0.230        0.032       61.055        4.472        0.005      338.654       11.454      864.294
11/01/2013  19:21:00      -72.054      -30.525      -13.626       26.675       18.007       11.057      711.554      324.244      122.249        0.373        0.058       78.253        6.817        0.008      338.729       11.578      864.304
11/01/2013  19:22:00      -92.254      -19.675      -12.501       21.177       29.181       14.549      448.456      851.551      211.667        0.528        0.076       94.329        8.395        0.008      338.592       11.348      864.299
11/01/2013  19:23:00      -78.263       -6.430      -13.997       46.165       30.352       21.346     2131.210      921.258      455.658        0.493        0.175       78.527       19.718        0.063      338.555       11.285      864.308
11/01/2013  19:24:00      -82.470      -23.486      -14.159       27.303       27.692       16.765      745.466      766.826      281.073        0.467        0.090       85.749       15.987        0.035      338.451       11.111      864.315
11/01/2013  19:25:00     -120.002       -8.659       -7.425       38.230       31.767       23.270     1461.541     1009.159      541.490        0.877        0.151      120.314       22.483        0.035      338.434       11.083      864.323
11/01/2013  19:26:00      -88.565      -16.968       -4.355       43.634       29.736       22.711     1903.886      884.208      515.793        0.573        0.165       90.176       23.296        0.067      338.374       10.983      864.338
11/01/2013  19:27:00      -95.969       -1.944      -10.669       35.877       25.949       17.595     1287.166      673.328      309.591        0.580        0.114       95.989       18.376        0.037      338.375       10.984      864.354
11/01/2013  19:28:00      -96.661      -10.638      -13.939       34.971       24.012       16.661     1223.005      576.595      277.575        0.586        0.104       97.244       18.065        0.035      338.386       11.002      864.364
11/01/2013  19:29:00     -119.817      -12.433      -13.737       30.515       23.926       15.534      931.160      572.475      241.305        0.822        0.087      120.460       13.682        0.013      338.376       10.986      864.375
11/01/2013  19:30:00      -89.830      -24.199      -13.603       22.722       24.416       19.838      516.310      596.140      393.543        0.517        0.075       93.032        9.653        0.011      338.391       11.011      864.386
11/01/2013  19:31:00      -63.455      -51.031      -12.949       24.974       17.720       18.123      623.688      314.002      328.441        0.403        0.063       81.429       12.038        0.022      338.509       11.209      864.402
11/01/2013  19:32:00      -75.652      -29.574      -10.488       21.834       28.213       20.710      476.709      795.967      428.908        0.420        0.085       81.228       15.754        0.038      338.580       11.329      864.410
11/01/2013  19:33:00      -72.406      -42.707      -20.910       16.857       17.868       11.895      284.149      319.249      141.493        0.412        0.037       84.062        6.732        0.006      338.627       11.407      864.413
11/01/2013  19:34:00      -66.780      -32.889      -16.582       11.865       12.917       14.483      140.786      166.836      209.759        0.317        0.026       74.440        8.605        0.013      338.561       11.297      864.419
11/01/2013  19:35:00      -66.878      -44.809      -17.521       15.559       13.068       17.657      242.069      170.765      311.787        0.376        0.036       80.502        8.428        0.011      338.536       11.254      864.410
11/01/2013  19:36:00      -82.189      -14.856      -15.606       13.162       12.146       12.990      173.237      147.521      168.744        0.385        0.024       83.521        7.711        0.009      338.516       11.221      864.407
11/01/2013  19:37:00      -98.014      -30.890      -15.996       18.142       14.168       13.605      329.144      200.735      185.109        0.577        0.036      102.766       11.935        0.013      338.495       11.187      864.408
11/01/2013  19:38:00      -83.101      -32.175      -21.152       18.207       18.112       13.099      331.486      328.043      171.582        0.461        0.042       89.112       10.505        0.014      338.433       11.081      864.420
11/01/2013  19:39:00      -99.578      -12.161      -23.255       25.237       17.977       10.138      636.908      323.186      102.779        0.583        0.053      100.317        8.858        0.008      338.353       10.946      864.424
11/01/2013  19:40:00     -110.965      -18.745      -15.821       19.409       18.475       12.560      376.710      341.317      157.750        0.690        0.044      112.537        8.760        0.006      338.431       11.077      864.433
11/01/2013  19:41:00      -65.993      -26.249      -12.160       12.866       15.656        9.055      165.530      245.122       81.990        0.284        0.025       71.022        6.865        0.009      338.390       11.010      864.429
11/01/2013  19:42:00      -73.665      -18.058      -20.995       20.373       15.680       10.398      415.060      245.854      108.116        0.348        0.038       75.846        9.613        0.016      338.316       10.883      864.438
11/01/2013  19:43:00      -85.956      -10.600      -17.272       21.402       14.294       12.117      458.043      204.307      146.816        0.430        0.040       86.607        8.397        0.009      338.289       10.839      864.435
11/01/2013  19:44:00      -90.319       -3.375      -26.890       16.414       13.383       11.742      269.421      179.105      137.864        0.474        0.029       90.382        6.786        0.006      338.397       11.021      864.442
11/01/2013  19:45:00      -76.899      -14.071      -14.713       20.555       17.085       12.307      422.524      291.904      151.469        0.360        0.043       78.175        7.466        0.009      338.343       10.931      864.444
11/01/2013  19:46:00      -78.097       -7.337      -25.547       15.156       15.967       11.922      229.702      254.932      142.123        0.372        0.031       78.441        8.419        0.012      338.372       10.978      864.446
11/01/2013  19:47:00      -76.518       -2.680      -20.231       13.525       11.281       10.512      182.921      127.255      110.512        0.335        0.021       76.564        7.107        0.009      338.311       10.877      864.448
11/01/2013  19:48:00      -75.167       -8.944      -10.658       14.377       21.188       12.044      206.712      448.927      145.055        0.332        0.040       75.698       12.109        0.026      338.270       10.806      864.439
11/01/2013  19:49:00      -81.074      -25.697      -16.610       13.701       20.976       15.081      187.707      440.006      227.439        0.418        0.043       85.049       10.536        0.015      338.177       10.652      864.426
11/01/2013  19:50:00      -80.042      -31.016      -11.149       18.196       21.420       14.122      331.087      458.835      199.428        0.424        0.049       85.842       10.286        0.014      338.176       10.650      864.410
11/01/2013  19:51:00     -101.380      -28.436      -15.125       17.926       17.535       18.495      321.342      307.461      342.047        0.614        0.049      105.292       15.366        0.021      338.102       10.525      864.402
11/01/2013  19:52:00     -102.405      -16.486      -19.897       11.721       11.054       11.337      137.375      122.186      128.533        0.577        0.019      103.724        2.788        0.001      338.039       10.421      864.384
11/01/2013  19:53:00      -84.884      -11.323      -18.541       17.478       16.678       12.807      305.482      278.160      164.028        0.421        0.037       85.636        8.694        0.010      338.125       10.564      864.375
11/01/2013  19:54:00      -72.589      -23.997      -11.209       17.728       15.752       12.814      314.285      248.118      164.208        0.335        0.036       76.452        8.718        0.013      338.095       10.513      864.357
11/01/2013  19:55:00      -98.112      -28.697      -22.131       10.148       11.296        9.755      102.980      127.603       95.164        0.563        0.016      102.223        7.703        0.006      338.132       10.575      864.354
11/01/2013  19:56:00      -85.951      -20.827      -19.341       15.796       16.218        8.048      249.502      263.036       64.771        0.439        0.029       88.438        5.388        0.004      338.132       10.576      864.341
11/01/2013  19:57:00      -98.720      -24.414      -21.922       12.905       13.509        9.112      166.536      182.490       83.034        0.563        0.022      101.694        7.438        0.005      338.156       10.616      864.338
11/01/2013  19:58:00     -106.666      -25.825      -10.902       21.904       26.913       15.109      479.773      724.314      228.294        0.680        0.072      109.748       12.993        0.014      338.146       10.599      864.336
11/01/2013  19:59:00     -132.764      -32.247      -18.000       16.711       16.212       14.689      279.247      262.818      215.772        0.987        0.038      136.624       11.751        0.007      338.139       10.587      864.337
11/01/2013  20:00:00     -115.385      -25.552      -18.060       30.666       17.707       17.474      940.392      313.552      305.346        0.793        0.078      118.181       17.449        0.022      338.125       10.564      864.339
11/01/2013  20:01:00     -118.232      -23.436      -18.115       21.237       20.005       13.041      451.003      400.193      170.059        0.794        0.051      120.533       10.272        0.007      338.134       10.578      864.341
11/01/2013  20:02:00     -138.215      -13.193      -21.389       13.098       12.323        9.885      171.556      151.863       97.720        1.008        0.021      138.844        5.163        0.001      338.046       10.431      864.344
11/01/2013  20:03:00     -147.086      -12.113      -23.896       14.017       12.412       11.355      196.471      154.055      128.933        1.142        0.024      147.584        4.878        0.001      337.999       10.353      864.361
11/01/2013  20:04:00     -120.395      -28.673      -15.139       28.714       19.461       15.038      824.479      378.736      226.156        0.849        0.071      123.762       12.509        0.010      337.844       10.091      864.363
11/01/2013  20:05:00     -111.844      -53.623       -9.702       32.191       24.344       14.210     1036.287      592.607      201.922        0.865        0.092      124.034       13.011        0.011      337.837       10.081      864.368
11/01/2013  20:06:00     -110.275      -36.068      -12.693       17.783       25.975       14.585      316.220      674.724      212.708        0.741        0.060      116.024        6.866        0.004      337.799       10.017      864.361
11/01/2013  20:07:00     -133.366      -43.017      -18.359       15.702       25.895       13.893      246.542      670.541      193.022        1.054        0.056      140.132        5.272        0.001      337.824       10.058      864.357
11/01/2013  20:08:00     -123.555      -57.523      -19.031       22.765       26.551       14.191      518.260      704.945      201.397        1.018        0.071      136.290       11.040        0.007      337.772        9.972      864.342
11/01/2013  20:09:00      -84.827      -59.006      -16.559       21.080       18.658       13.814      444.353      348.132      190.825        0.597        0.049      103.331        7.729        0.006      337.845       10.095      864.333
11/01/2013  20:10:00      -56.006      -43.144       -8.704       34.967       22.564       21.120     1222.694      509.142      446.035        0.363        0.109       70.697       21.893        0.096      337.825       10.062      864.322
11/01/2013  20:11:00      -96.031      -38.732      -16.444       24.128       25.795       15.481      582.158      665.402      239.668        0.624        0.074      103.548       10.561        0.010      337.800       10.018      864.319
11/01/2013  20:12:00     -104.022      -39.956      -20.103       22.659       17.405       11.790      513.438      302.923      139.002        0.689        0.048      111.432       11.246        0.010      337.813       10.039      864.309
11/01/2013  20:13:00     -100.749      -40.617      -17.613       21.816       24.077       14.578      475.933      579.691      212.528        0.669        0.063      108.628        8.759        0.007      337.827       10.064      864.298
11/01/2013  20:14:00     -105.557      -47.951      -15.383       18.663       22.579       13.959      348.302      509.795      194.850        0.737        0.053      115.938        8.297        0.005      337.787        9.995      864.293
11/01/2013  20:15:00     -112.921      -16.756      -21.057       20.278       22.164       14.693      411.188      491.243      215.872        0.730        0.056      114.157        7.602        0.004      337.707        9.862      864.278
11/01/2013  20:16:00     -119.827      -32.679      -23.926       19.351       20.476       17.534      374.460      419.266      307.458        0.855        0.055      124.203        3.683        0.001      337.726        9.896      864.276
11/01/2013  20:17:00     -106.960      -49.801      -12.317       26.141       20.696       16.532      683.349      428.318      273.292        0.773        0.069      117.985       12.092        0.011      337.645        9.759      864.265
11/01/2013  20:18:00      -95.797      -41.357      -21.305       32.605       26.956       16.669     1063.095      726.643      277.842        0.670        0.103      104.343       17.400        0.028      337.617        9.712      864.252
11/01/2013  20:19:00     -101.737      -24.890      -19.160       17.811       20.689       14.535      317.225      428.034      211.253        0.615        0.048      104.738        6.604        0.004      337.647        9.762      864.245
11/01/2013  20:20:00      -92.414      -31.088      -14.383       27.741       23.944       21.426      769.538      573.322      459.093        0.576        0.090       97.502       13.542        0.019      337.633        9.739      864.240
11/01/2013  20:21:00      -96.792      -26.079      -14.434       18.631       25.070       12.341      347.104      628.522      152.297        0.569        0.056      100.244       10.338        0.011      337.603        9.689      864.243
11/01/2013  20:22:00      -91.108      -26.748      -19.264       17.199       18.745       16.767      295.795      351.357      281.118        0.516        0.046       94.953       11.211        0.014      337.647        9.762      864.241
11/01/2013  20:23:00      -85.478      -34.090      -15.968       21.778       19.635       15.193      474.276      385.551      230.841        0.491        0.055       92.025       12.896        0.020      337.567        9.629      864.239
11/01/2013  20:24:00     -105.201       -8.905      -13.214       24.099       16.492       15.396      580.770      271.996      237.045        0.621        0.054      105.577       12.254        0.013      337.489        9.498      864.243
11/01/2013  20:25:00      -77.304      -36.245      -11.402       21.608       16.499       15.309      466.921      272.209      234.352        0.420        0.049       85.379       12.552        0.022      337.567        9.628      864.234
11/01/2013  20:26:00      -66.188      -19.881      -15.973       14.819       13.439       12.201      219.598      180.607      148.869        0.279        0.027       69.110        6.818        0.010      337.602        9.686      864.220
11/01/2013  20:27:00      -68.974      -12.453      -20.779       17.476       15.491        8.862      305.399      239.960       78.534        0.298        0.031       70.089        5.562        0.006      337.769        9.968      864.202
11/01/2013  20:28:00      -73.299      -30.375      -13.612       11.645       15.503        9.079      135.605      240.329       82.435        0.347        0.023       79.343        4.259        0.003      337.614        9.706      864.182
11/01/2013  20:29:00      -81.655      -24.633      -18.613       11.228       15.090        9.027      126.069      227.720       81.488        0.403        0.022       85.289        7.452        0.008      337.526        9.559      864.174
11/01/2013  20:30:00      -74.395      -32.707      -18.625       15.652       20.621       10.317      244.993      425.234      106.442        0.386        0.039       81.267        3.313        0.002      337.652        9.770      864.163
11/01/2013  20:31:00      -87.368      -26.593      -14.934       15.475       20.231       13.754      239.484      409.295      189.160        0.470        0.042       91.326       10.344        0.013      337.478        9.479      864.158
11/01/2013  20:32:00     -117.204      -21.655      -16.079       26.091       21.912       16.668      680.754      480.155      277.820        0.795        0.072      119.188       13.321        0.012      337.407        9.360      864.158
11/01/2013  20:33:00     -113.597      -21.230      -18.780       22.158       21.419       15.658      490.998      458.789      245.161        0.745        0.060      115.564       11.587        0.010      337.386        9.326      864.150
11/01/2013  20:34:00      -95.060      -45.482       -9.815       21.410       19.381       17.436      458.409      375.619      304.014        0.617        0.057      105.380       13.956        0.018      337.367        9.294      864.138
11/01/2013  20:35:00     -107.083      -25.341      -14.539       26.106       21.630       13.092      681.541      467.875      171.401        0.682        0.066      110.041        9.200        0.007      337.374        9.305      864.125
11/01/2013  20:36:00     -114.425      -27.964      -21.340       23.168       24.313       17.072      536.754      591.134      291.459        0.787        0.071      117.792       15.136        0.017      337.357        9.275      864.112
11/01/2013  20:37:00     -101.865      -22.032      -19.974       22.603       20.753       14.690      510.882      430.701      215.807        0.621        0.058      104.221       14.925        0.021      337.415        9.373      864.099
11/01/2013  20:38:00      -96.797      -26.890      -13.883       26.443       25.629       18.974      699.233      656.829      360.025        0.600        0.086      100.462       18.682        0.035      337.378        9.312      864.085
11/01/2013  20:39:00      -92.964      -20.833      -17.941       12.571       16.255       13.502      158.037      264.214      182.309        0.500        0.030       95.269        8.680        0.008      337.326        9.224      864.075
11/01/2013  20:40:00      -92.230      -21.086      -17.440       15.864       19.453       14.400      251.675      378.415      207.368        0.505        0.042       94.610        9.762        0.011      337.336        9.241      864.071
11/01/2013  20:41:00      -73.848      -27.632       -8.382       16.595       17.506       15.630      275.380      306.467      244.297        0.356        0.041       78.848        8.976        0.013      337.345        9.256      864.060
11/01/2013  20:42:00      -81.916      -22.426      -18.063       15.721       16.131       13.896      247.154      260.195      193.103        0.412        0.035       84.930       10.110        0.014      337.327        9.226      864.050
11/01/2013  20:43:00      -84.095      -19.866      -18.986       16.340       13.324       12.743      266.993      177.535      162.382        0.422        0.030       86.409        9.890        0.013      337.345        9.255      864.050
11/01/2013  20:44:00      -82.967       -9.745      -11.461       13.794       12.315       10.229      190.269      151.647      104.628        0.378        0.022       83.538        8.306        0.010      337.257        9.109      864.048
11/01/2013  20:45:00     -101.362       -8.206      -19.703       13.638       12.068        9.827      186.007      145.638       96.563        0.558        0.021      101.694        3.125        0.001      337.248        9.093      864.056
11/01/2013  20:46:00      -98.926       -8.714      -19.621       15.615       12.277       10.992      243.842      150.731      120.818        0.538        0.026       99.309        6.981        0.005      337.210        9.030      864.054
11/01/2013  20:47:00     -100.190       -2.596      -17.723       21.238       12.402       12.251      451.049      153.809      150.087        0.556        0.038      100.223       12.781        0.016      337.111        8.862      864.060
11/01/2013  20:48:00     -105.226       -6.588      -20.355       15.583        9.954        8.366      242.837       99.083       69.986        0.597        0.021      105.432        2.596        0.001      337.127        8.890      864.067
11/01/2013  20:49:00      -85.512      -24.456      -18.729       16.480       17.738       16.249      271.584      314.637      264.043        0.456        0.043       88.940       12.238        0.019      337.228        9.063      864.069
11/01/2013  20:50:00      -67.811      -29.886      -11.576       13.138       12.385       14.963      172.603      153.390      223.899        0.309        0.027       74.104        7.215        0.009      337.238        9.078      864.078
11/01/2013  20:51:00      -67.410       -6.758       -9.917       18.616       13.852       12.856      346.543      191.867      165.273        0.270        0.035       67.748        8.688        0.016      337.450        9.432      864.077
11/01/2013  20:52:00      -67.611        2.023      -12.733       11.913       11.375        9.973      141.926      129.394       99.456        0.255        0.019       67.641        5.646        0.007      337.348        9.261      864.060
11/01/2013  20:53:00      -50.429        2.680      -13.818       27.797       14.550       12.052      772.672      211.706      145.255        0.194        0.056       50.500       12.141        0.058      337.685        9.827      864.043
11/01/2013  20:54:00      -47.294       41.823      -11.094       25.951       41.564       14.484      673.469     1727.527      209.781        0.336        0.131       63.134       13.348        0.045      338.074       10.479      864.025
11/01/2013  20:55:00      -47.589      -20.764       -6.735       10.262       14.028       10.132      105.306      196.776      102.662        0.157        0.020       51.922        3.627        0.005      337.588        9.663      864.006
11/01/2013  20:56:00      -41.199      -21.487       -5.813       15.831       11.603       10.443      250.626      134.640      109.057        0.134        0.025       46.466        3.165        0.005      337.476        9.476      863.987
11/01/2013  20:57:00      -51.148      -30.844       -6.797       12.813       13.754        9.946      164.170      189.181       98.927        0.203        0.023       59.728        4.535        0.006      337.317        9.210      863.983
11/01/2013  20:58:00      -71.580      -37.933      -25.003       19.325       16.981       10.989      373.437      288.360      120.757        0.399        0.039       81.010        5.213        0.004      337.353        9.270      863.958
11/01/2013  20:59:00      -88.966      -34.079      -17.873       13.830       20.402       12.309      191.264      416.221      151.511        0.508        0.038       95.270        5.418        0.003      337.212        9.033      863.951
11/01/2013  21:00:00      -85.218      -12.634      -14.428       17.022       16.541       15.166      289.751      273.620      230.006        0.421        0.040       86.150       10.525        0.015      337.132        8.899      863.939
11/01/2013  21:01:00     -100.746       -2.421      -17.500       23.788       17.069       15.567      565.861      291.361      242.325        0.578        0.055      100.775       10.590        0.011      337.063        8.782      863.946
11/01/2013  21:02:00      -80.025       -0.301      -18.388       19.998       20.640       18.178      399.916      425.996      330.457        0.395        0.058       80.025       12.904        0.026      337.023        8.717      863.957
11/01/2013  21:03:00      -76.705      -15.734      -13.205       20.496       19.596       13.983      420.092      383.987      195.533        0.365        0.050       78.303       12.450        0.025      337.109        8.862      863.975
11/01/2013  21:04:00      -89.917      -37.916      -18.823       15.582       23.351       10.761      242.804      545.281      115.789        0.539        0.045       97.585        5.431        0.003      337.099        8.843      863.981
11/01/2013  21:05:00      -88.180      -28.362      -19.401       18.170       23.157       15.401      330.157      536.226      237.188        0.503        0.055       92.628       10.962        0.014      337.123        8.884      863.987
11/01/2013  21:06:00      -76.879      -32.201      -18.262       19.053       20.287       17.079      363.002      411.567      291.705        0.417        0.053       83.350       12.512        0.023      337.212        9.034      863.991
11/01/2013  21:07:00      -83.554      -36.898      -18.980       14.576       15.081        9.983      212.457      227.438       99.664        0.462        0.027       91.339        4.726        0.003      337.140        8.913      864.011
11/01/2013  21:08:00      -84.695      -39.590      -18.631       14.238       15.903       13.569      202.727      252.902      184.123        0.486        0.032       93.491       10.961        0.014      337.037        8.739      864.006
11/01/2013  21:09:00      -94.374      -44.106      -18.779       18.157       24.128       16.381      329.668      582.149      268.343        0.619        0.059      104.172        9.025        0.008      337.068        8.791      864.008
11/01/2013  21:10:00      -71.603      -33.399      -18.403       36.444       22.388       21.190     1328.187      501.229      449.008        0.443        0.114       79.010       19.728        0.062      337.031        8.732      863.997
11/01/2013  21:11:00      -74.501      -41.881      -10.966       37.810       27.016       19.384     1429.607      729.870      375.747        0.498        0.127       85.466       11.071        0.017      337.074        8.802      863.979
11/01/2013  21:12:00     -153.534      -44.218      -17.032       21.795       25.418       13.288      475.013      646.098      176.559        1.356        0.065      159.775        7.052        0.002      336.951        8.596      863.960
11/01/2013  21:13:00     -129.760      -35.736      -14.450       15.826       15.763       11.075      250.472      248.459      122.652        0.947        0.031      134.591        6.444        0.002      336.975        8.634      863.949
11/01/2013  21:14:00     -116.940      -27.856      -10.470       32.535       21.629       13.910     1058.512      467.799      193.482        0.814        0.086      120.212       13.720        0.013      336.958        8.608      863.937
11/01/2013  21:15:00     -110.987      -38.245      -13.675       21.825       18.317       14.361      476.322      335.529      206.230        0.749        0.051      117.391       10.341        0.008      337.052        8.765      863.937
11/01/2013  21:16:00     -107.247      -48.246       -7.461       17.449       13.413       12.211      304.477      179.920      149.118        0.726        0.032      117.599       10.524        0.008      337.172        8.966      863.941
11/01/2013  21:17:00      -86.706      -50.667        0.602       28.140       18.708       17.075      791.881      349.990      291.570        0.576        0.072      100.425       18.496        0.034      337.180        8.982      863.952
11/01/2013  21:18:00     -105.499      -44.271       -9.641       14.394       16.274        9.830      207.185      264.858       96.622        0.688        0.028      114.411        5.520        0.002      337.224        9.054      863.953
11/01/2013  21:19:00     -117.664      -33.967      -10.902       16.872       16.110       12.286      284.674      259.521      150.954        0.791        0.035      122.468       10.903        0.008      337.205        9.023      863.954
11/01/2013  21:20:00     -135.239      -59.803      -11.600       19.953       25.771       17.216      398.109      664.167      296.392        1.168        0.068      147.872       12.218        0.007      337.142        8.915      863.954
11/01/2013  21:21:00     -132.771      -46.364      -16.431       14.825       15.219       12.498      219.777      231.631      156.212        1.033        0.030      140.634        9.893        0.005      337.119        8.877      863.967
11/01/2013  21:22:00     -136.434      -52.620       -5.979       15.190       17.005       14.396      230.751      289.184      207.239        1.107        0.036      146.229       10.582        0.005      337.102        8.849      863.965
11/01/2013  21:23:00     -139.048      -56.865       -5.713       13.200       10.794        7.883      174.244      116.516       62.142        1.148        0.018      150.227        6.691        0.002      337.082        8.815      863.970
11/01/2013  21:24:00     -125.272      -45.778      -12.906        9.350        8.427        8.776       87.419       71.011       77.021        0.910        0.012      133.374        4.230        0.001      337.056        8.770      863.961
11/01/2013  21:25:00     -114.068      -46.851      -18.380        8.904        8.326        7.165       79.277       69.323       51.337        0.787        0.010      123.315        4.606        0.001      337.074        8.801      863.959
11/01/2013  21:26:00     -102.520      -51.791      -15.500       11.095       10.008        8.263      123.092      100.167       68.274        0.686        0.015      114.859        4.421        0.001      337.066        8.789      863.959
11/01/2013  21:27:00     -115.311      -42.872      -18.275       10.247       10.393        8.564      105.004      108.006       73.338        0.788        0.014      123.023        5.254        0.002      337.085        8.820      863.952
11/01/2013  21:28:00     -100.051      -41.573      -13.163       14.867       13.666       10.720      221.017      186.770      114.924        0.622        0.026      108.345        9.191        0.007      337.106        8.853      863.963
11/01/2013  21:29:00     -104.303      -47.080      -11.902       18.461       15.484        8.803      340.811      239.739       77.495        0.695        0.033      114.437        4.412        0.001      337.071        8.797      863.961
11/01/2013  21:30:00     -124.812      -68.025       -8.280       15.361       19.094       13.872      235.974      364.596      192.431        1.053        0.040      142.146       10.013        0.005      337.001        8.679      863.948
11/01/2013  21:31:00     -127.249      -71.660      -10.892       14.230       15.872       11.893      202.491      251.928      141.432        1.102        0.030      146.039        8.136        0.003      336.985        8.652      863.950
11/01/2013  21:32:00     -120.412      -60.439      -13.367       18.922       14.768       12.590      358.030      218.083      158.517        0.953        0.037      134.729        8.526        0.004      336.905        8.520      863.943
11/01/2013  21:33:00     -128.621      -47.963      -15.491       10.296       14.432        8.861      106.014      208.285       78.511        0.974        0.020      137.273        6.387        0.002      336.879        8.476      863.934
11/01/2013  21:34:00     -139.766      -33.348       -8.957       25.767       19.358       14.483      663.917      374.745      209.766        1.099        0.062      143.690       14.636        0.010      336.887        8.490      863.923
11/01/2013  21:35:00     -135.758      -54.883       -9.721       20.112       15.095       11.752      404.475      227.873      138.111        1.115        0.039      146.432        8.170        0.003      336.844        8.418      863.906
11/01/2013  21:36:00     -116.498      -42.301      -12.132       30.022       17.531       12.245      901.306      307.344      149.935        0.843        0.068      123.940        7.083        0.003      336.771        8.297      863.901
11/01/2013  21:37:00     -108.568      -54.967      -13.926       20.526       24.704       17.659      421.334      610.301      311.826        0.817        0.067      121.689        9.144        0.006      336.719        8.211      863.891
11/01/2013  21:38:00      -99.926      -46.182      -11.006       17.481       21.741       11.983      305.593      472.657      143.581        0.658        0.046      110.082        6.442        0.003      336.736        8.240      863.902
11/01/2013  21:39:00     -121.935      -45.909      -13.480       23.422       19.365       13.113      548.570      374.994      171.948        0.913        0.055      130.291        8.623        0.004      336.724        8.220      863.902
11/01/2013  21:40:00     -129.449      -31.057      -11.466       28.229       22.327       13.323      796.887      498.504      177.500        0.966        0.074      133.122        8.822        0.004      336.743        8.250      863.892
11/01/2013  21:41:00     -109.923      -38.649       -5.105       20.262       16.582       11.001      410.557      274.963      121.020        0.720        0.040      116.519        6.896        0.004      336.748        8.258      863.884
11/01/2013  21:42:00      -80.560      -59.815       -9.413       30.446       23.205       16.850      926.972      538.457      283.929        0.595        0.087      100.338       14.802        0.022      336.713        8.201      863.880
11/01/2013  21:43:00      -90.412      -54.943       -9.969       17.977       19.007       15.238      323.170      361.257      232.182        0.610        0.046      105.797        9.101        0.007      336.690        8.163      863.865
11/01/2013  21:44:00      -87.647      -50.638      -12.369       31.976       19.049       18.218     1022.467      362.850      331.885        0.606        0.086      101.224       15.081        0.022      336.706        8.189      863.860
11/01/2013  21:45:00      -92.627      -53.962      -18.310       24.912       32.003       17.495      620.601     1024.163      306.080        0.689        0.098      107.199       10.407        0.009      336.745        8.255      863.855
11/01/2013  21:46:00      -99.714      -35.979       -8.924       49.307       28.056       24.847     2431.164      787.140      617.377        0.758        0.192      106.007       20.476        0.037      336.684        8.153      863.844
11/01/2013  21:47:00     -106.292      -38.858      -11.349       26.038       32.255       15.855      677.993     1040.356      251.394        0.745        0.098      113.173        4.768        0.002      336.686        8.156      863.844
11/01/2013  21:48:00     -102.561      -13.391      -17.653       20.967       19.472       17.342      439.604      379.161      300.740        0.606        0.056      103.432       10.850        0.011      336.630        8.063      863.849
11/01/2013  21:49:00      -93.928      -27.301       -7.239       34.885       35.942       21.247     1216.989     1291.842      451.449        0.629        0.148       97.815       19.538        0.040      336.642        8.082      863.842
11/01/2013  21:50:00     -104.857      -25.370       -7.557       21.182       21.061       14.997      448.696      443.568      224.915        0.641        0.056      107.883       11.859        0.012      336.660        8.111      863.848
11/01/2013  21:51:00     -101.774      -25.460       -6.262       35.276       31.245       17.310     1244.401      976.268      299.651        0.678        0.126      104.910       14.794        0.020      336.674        8.136      863.860
11/01/2013  21:52:00     -107.188      -27.758      -13.128       20.832       20.216       14.921      433.951      408.696      222.623        0.675        0.053      110.724       11.378        0.011      336.695        8.170      863.852
11/01/2013  21:53:00      -89.932      -56.423      -19.193       22.020       18.438       18.750      484.897      339.955      351.559        0.641        0.059      106.167       12.778        0.014      336.719        8.211      863.859
11/01/2013  21:54:00      -58.669      -52.238       -3.405       39.075       23.393       27.534     1526.829      547.210      758.110        0.451        0.142       78.555       23.723        0.091      336.754        8.269      863.865
11/01/2013  21:55:00      -66.937      -59.583      -15.018       21.616       21.446       14.956      467.272      459.938      223.692        0.470        0.058       89.614        9.009        0.010      336.724        8.219      863.874
11/01/2013  21:56:00      -43.497      -57.218       -6.790       22.777       27.478       20.221      518.774      755.035      408.882        0.345        0.084       71.874       13.681        0.036      336.762        8.282      863.876
11/01/2013  21:57:00      -27.229      -33.433       -1.674       28.136       38.378       23.305      791.656     1472.889      543.137        0.233        0.140       43.118       16.441        0.145      336.681        8.147      863.876
11/01/2013  21:58:00      -76.768      -45.208      -21.497       21.890       23.540       14.838      479.177      554.122      220.180        0.483        0.063       89.091        9.894        0.012      336.802        8.349      863.880
11/01/2013  21:59:00      -87.249      -58.695      -14.626       27.812       22.668       17.743      773.531      513.840      314.818        0.644        0.080      105.155       10.821        0.011      336.735        8.238      863.892
11/01/2013  22:00:00     -140.692      -33.892      -16.076       14.737       12.172       10.584      217.192      148.164      112.015        1.084        0.024      144.717        5.123        0.001      336.728        8.225      863.893
11/01/2013  22:01:00     -110.455      -46.692      -18.387       22.092       16.946       17.032      488.071      287.151      290.073        0.789        0.053      119.918       12.088        0.010      336.653        8.101      863.898
11/01/2013  22:02:00      -99.670      -41.732      -11.827       27.010       18.263       15.009      729.516      333.551      225.267        0.655        0.064      108.054       13.155        0.015      336.624        8.051      863.906
11/01/2013  22:03:00     -128.194      -49.864      -14.546       15.553       12.610       14.209      241.892      159.021      201.887        0.987        0.030      137.551        7.964        0.003      336.607        8.024      863.901
11/01/2013  22:04:00     -110.357      -56.071      -13.145       18.345       20.429       14.318      336.536      417.353      204.998        0.823        0.048      123.785        7.506        0.004      336.602        8.014      863.900
11/01/2013  22:05:00      -93.773      -45.161       -6.060       24.971       24.870       17.431      623.531      618.525      303.837        0.621        0.077      104.081       14.987        0.021      336.528        7.891      863.907
11/01/2013  22:06:00     -117.766      -39.397       -6.934       26.736       20.642       14.270      714.814      426.072      203.621        0.841        0.067      124.181       13.811        0.012      336.536        7.905      863.908
11/01/2013  22:07:00     -111.851      -58.278      -10.715       25.146       20.170       15.746      632.320      406.833      247.932        0.865        0.064      126.123       11.669        0.009      336.524        7.885      863.924
11/01/2013  22:08:00     -114.131      -54.087       -4.206       18.626       21.141       13.109      346.923      446.940      171.857        0.847        0.048      126.298       12.668        0.010      336.505        7.852      863.925
11/01/2013  22:09:00     -122.618      -46.893       -7.700       12.772       11.160        8.652      163.120      124.550       74.862        0.883        0.018      131.279        2.618        0.000      336.514        7.867      863.935
11/01/2013  22:10:00     -112.421      -43.718      -14.914       20.669       16.427       11.712      427.194      269.857      137.175        0.780        0.042      120.623        7.339        0.004      336.527        7.890      863.945
11/01/2013  22:11:00     -109.924      -54.537       -2.104       25.987       22.292       18.030      675.348      496.936      325.085        0.828        0.075      122.710       14.003        0.013      336.446        7.754      863.934
11/01/2013  22:12:00     -106.269      -58.677        0.286       26.276       19.965       17.364      690.420      398.591      301.515        0.806        0.070      121.392       15.839        0.017      336.422        7.714      863.940
11/01/2013  22:13:00     -121.047      -56.197       -2.015       31.925       22.735       17.295     1019.195      516.893      299.126        0.982        0.092      133.456       13.870        0.011      336.397        7.671      863.942
11/01/2013  22:14:00     -110.497      -50.689        5.344       47.034       33.193       23.811     2212.235     1101.790      566.979        0.934        0.194      121.569       25.582        0.044      336.388        7.656      863.937
11/01/2013  22:15:00     -145.041      -46.015      -14.626       21.361       18.397       13.640      456.296      338.445      186.052        1.217        0.049      152.165        9.473        0.004      336.389        7.658      863.931
11/01/2013  22:16:00     -119.831      -55.880       -5.400       38.009       34.143       16.942     1444.650     1165.747      287.021        1.020        0.145      132.220       10.649        0.006      336.358        7.605      863.933
11/01/2013  22:17:00     -116.327      -49.559        2.635       42.882       31.546       19.166     1838.903      995.129      367.317        0.960        0.160      126.444       21.835        0.030      336.391        7.662      863.919
11/01/2013  22:18:00     -107.531      -43.955       -1.725       38.664       36.691       16.891     1494.942     1346.222      285.308        0.831        0.156      116.168       16.252        0.020      336.383        7.647      863.895
11/01/2013  22:19:00      -97.227      -29.899       -3.281       22.426       28.739       15.327      502.922      825.943      234.909        0.596        0.078      101.720        9.407        0.009      336.384        7.648      863.882
11/01/2013  22:20:00      -98.020      -41.229       -0.839       29.767       30.103       18.434      886.079      906.169      339.830        0.672        0.107      106.338       10.957        0.011      336.375        7.633      863.857
11/01/2013  22:21:00      -80.034      -53.446       -0.894       34.581       23.000       19.287     1195.871      528.980      371.981        0.568        0.105       96.239       15.406        0.026      336.370        7.627      863.836
11/01/2013  22:22:00      -42.696      -40.269       -1.499       30.449       25.780       19.717      927.115      664.612      388.749        0.271        0.099       58.690       16.465        0.079      336.370        7.626      863.831
11/01/2013  22:23:00      -68.155      -44.232       -6.661       36.082       22.248       19.338     1301.923      494.962      373.945        0.441        0.109       81.250       16.773        0.043      336.401        7.678      863.828
11/01/2013  22:24:00      -68.144      -54.921       -9.630       30.256       19.968       17.055      915.407      398.727      290.880        0.468        0.080       87.521        9.843        0.013      336.415        7.702      863.818
11/01/2013  22:25:00      -95.363      -54.077      -15.441       19.505       17.299       10.190      380.446      299.260      103.832        0.652        0.039      109.629        4.858        0.002      336.373        7.632      863.804
11/01/2013  22:26:00      -73.119      -32.617      -18.297       22.445       15.562       12.289      503.785      242.185      151.018        0.382        0.045       80.065       12.805        0.026      336.419        7.707      863.808
11/01/2013  22:27:00      -87.304      -35.507      -18.078       19.837       17.297       12.704      393.494      299.180      161.387        0.503        0.043       94.248       10.901        0.013      336.385        7.651      863.802
11/01/2013  22:28:00     -111.628      -20.232      -22.011       10.967       10.942       11.522      120.277      119.728      132.753        0.686        0.019      113.447        7.905        0.005      336.391        7.662      863.797
11/01/2013  22:29:00     -105.031      -24.219      -17.064       17.039       15.961       11.162      290.317      254.753      124.588        0.629        0.033      107.787       10.688        0.010      336.373        7.633      863.806
11/01/2013  22:30:00     -111.429      -25.781      -17.427        9.909       16.989       10.935       98.194      288.641      119.582        0.695        0.025      114.373        6.805        0.004      336.376        7.637      863.824
11/01/2013  22:31:00     -107.421      -36.275      -17.080       16.724       16.422       11.570      279.683      269.666      133.854        0.691        0.034      113.381        2.244        0.000      336.398        7.672      863.836
11/01/2013  22:32:00     -121.617      -32.968      -19.091       13.845       19.901       11.167      191.682      396.053      124.697        0.848        0.036      126.006        4.622        0.001      336.356        7.604      863.856
11/01/2013  22:33:00     -134.528      -39.915      -18.266       12.999       13.974        9.495      168.980      195.282       90.150        1.024        0.023      140.325        2.583        0.000      336.337        7.571      863.879
11/01/2013  22:34:00     -127.585      -46.534      -13.552       12.803       11.925       10.733      163.905      142.215      115.198        0.952        0.021      135.806        6.092        0.002      336.344        7.583      863.895
11/01/2013  22:35:00     -131.133      -47.306      -11.696       12.722       13.735       11.322      161.840      188.659      128.184        1.002        0.024      139.405        6.221        0.002      336.410        7.693      863.905
11/01/2013  22:36:00     -120.496      -58.698      -10.058       24.658       20.365       19.950      608.024      414.732      397.986        0.974        0.071      134.033        7.814        0.003      336.377        7.637      863.924
11/01/2013  22:37:00      -88.864      -74.571       -1.518       43.835       30.873       23.835     1921.537      953.159      568.125        0.845        0.172      116.007       11.688        0.010      336.302        7.511      863.917
11/01/2013  22:38:00     -111.184      -65.801       -0.221       48.877       42.536       27.175     2389.004     1809.307      738.503        1.081        0.247      129.196       24.833        0.037      336.312        7.529      863.908
11/01/2013  22:39:00     -110.523      -73.489       -3.929       57.472       41.234       27.706     3303.055     1700.221      767.619        1.170        0.289      132.725       24.653        0.035      336.350        7.592      863.902
11/01/2013  22:40:00      -83.836      -77.504        2.214       51.898       38.927       27.904     2693.386     1515.348      778.631        0.901        0.249      114.173       25.442        0.050      336.197        7.337      863.904
11/01/2013  22:41:00     -101.185      -87.299        5.839       53.369       35.758       27.596     2848.268     1278.654      761.540        1.139        0.244      133.639       28.335        0.045      336.212        7.361      863.898
11/01/2013  22:42:00     -100.032      -86.469        8.280       46.437       42.170       28.872     2156.391     1778.324      833.617        1.116        0.238      132.224       26.690        0.041      336.175        7.299      863.891
11/01/2013  22:43:00      -96.618      -71.121       -0.913       56.822       32.358       24.562     3228.718     1047.029      603.290        0.964        0.244      119.972       22.759        0.036      336.192        7.327      863.893
11/01/2013  22:44:00     -108.602      -69.734        8.140       50.292       30.781       23.641     2529.268      947.456      558.880        1.038        0.202      129.063       21.749        0.028      336.193        7.329      863.898
11/01/2013  22:45:00     -106.728      -73.347        3.550       42.822       34.792       29.449     1833.731     1210.468      867.271        1.035        0.196      129.502       25.227        0.038      336.179        7.306      863.909
11/01/2013  22:46:00     -101.038      -76.063        1.003       51.209       36.820       23.198     2622.327     1355.734      538.165        1.026        0.226      126.469       23.996        0.036      336.173        7.298      863.904
11/01/2013  22:47:00      -56.073      -54.648       11.350       46.830       33.394       25.618     2193.013     1115.141      656.269        0.511        0.198       78.298       26.769        0.117      336.131        7.227      863.899
11/01/2013  22:48:00     -104.799      -85.058       -0.440       54.255       32.234       25.051     2943.574     1039.049      627.539        1.141        0.231      134.973       21.763        0.026      336.127        7.217      863.901
11/01/2013  22:49:00      -87.237      -74.247        1.034       39.802       35.701       23.120     1584.220     1274.537      534.539        0.826        0.170      114.555       22.403        0.038      336.120        7.208      863.888
11/01/2013  22:50:00     -129.312      -78.341       -6.908       29.023       24.820       18.441      842.355      616.026      340.060        1.235        0.090      151.191       16.177        0.011      336.134        7.231      863.871
11/01/2013  22:51:00      -93.057      -54.537        1.970       41.685       26.271       21.110     1737.667      690.188      445.616        0.726        0.144      107.861       22.631        0.044      336.068        7.120      863.865
11/01/2013  22:52:00     -103.282      -68.043       -0.244       34.506       28.794       20.813     1190.673      829.114      433.191        0.887        0.123      123.681       17.324        0.020      336.096        7.168      863.867
11/01/2013  22:53:00      -84.021      -53.455       -6.579       41.341       28.064       16.737     1709.041      787.564      280.141        0.637        0.139       99.584       13.338        0.018      336.084        7.146      863.853
11/01/2013  22:54:00     -131.032      -63.538       -5.141       20.462       25.909       16.446      418.697      671.291      270.474        1.130        0.068      145.625       12.859        0.008      336.062        7.110      863.848
11/01/2013  22:55:00     -132.133      -43.115       -3.899       17.623       16.488       18.138      310.587      271.849      328.983        1.012        0.046      138.989        9.788        0.005      336.033        7.063      863.850
11/01/2013  22:56:00     -129.042      -44.605       -6.453       22.154       19.439       16.104      490.816      377.885      259.344        0.991        0.056      136.534       11.950        0.008      336.011        7.026      863.842
11/01/2013  22:57:00     -140.738      -44.633       -3.656       21.951       21.600       14.434      481.835      466.548      208.348        1.148        0.058      147.646        8.854        0.004      336.032        7.061      863.841
11/01/2013  22:58:00     -150.601      -59.220      -11.849       24.102       14.549       15.258      580.889      211.687      232.802        1.368        0.051      161.826        4.114        0.001      335.970        6.959      863.843
11/01/2013  22:59:00     -104.237      -44.031       -9.756       26.376       25.929       17.398      695.682      672.297      302.699        0.728        0.084      113.155        9.430        0.007      335.984        6.981      863.842
11/01/2013  23:00:00     -116.343      -16.769      -17.207       21.416       30.944       17.622      458.647      957.515      310.520        0.792        0.086      117.545       12.479        0.011      335.952        6.928      863.846
11/01/2013  23:01:00     -111.318      -55.664       -6.011       35.274       24.994       20.341     1244.227      624.716      413.739        0.890        0.114      124.459       16.229        0.017      335.909        6.857      863.850
11/01/2013  23:02:00     -113.710      -37.528      -14.204       48.770       47.234       21.410     2378.500     2231.058      458.368        0.980        0.253      119.743       22.899        0.037      335.949        6.924      863.844
11/01/2013  23:03:00      -98.207      -36.398      -12.081       44.294       42.760       26.643     1961.992     1828.414      709.858        0.781        0.225      104.735       25.961        0.061      335.912        6.861      863.829
11/01/2013  23:04:00      -72.513      -64.823      -11.748       52.397       47.240       23.185     2745.480     2231.592      537.548        0.756        0.276       97.263       20.555        0.045      335.890        6.824      863.822
11/01/2013  23:05:00      -34.773      -36.610       -0.858       55.469       35.543       29.089     3076.760     1263.309      846.184        0.387        0.259       50.492       23.869        0.223      335.869        6.789      863.813
11/01/2013  23:06:00      -76.289      -31.127      -21.104       26.323       35.049       16.714      692.893     1228.425      279.341        0.472        0.110       82.395        9.490        0.013      335.854        6.766      863.805
11/01/2013  23:07:00     -100.442      -16.573      -20.202       34.200       34.541       16.372     1169.651     1193.091      268.054        0.670        0.132      101.800       11.884        0.014      335.920        6.874      863.788
11/01/2013  23:08:00      -94.036      -16.768      -12.684       30.626       20.089       13.972      937.967      403.548      195.211        0.541        0.077       95.519       12.006        0.016      335.916        6.869      863.778
11/01/2013  23:09:00     -103.962      -18.564      -14.112       22.563       21.209       14.153      509.107      449.810      200.301        0.626        0.058      105.606        9.502        0.008      336.036        7.068      863.764
11/01/2013  23:10:00     -119.274      -26.387      -14.283       28.726       20.955       16.587      825.155      439.118      275.139        0.833        0.077      122.158        9.427        0.006      335.906        6.850      863.754
11/01/2013  23:11:00     -103.667      -23.190      -19.956       26.580       33.733       18.775      706.517     1137.890      352.486        0.694        0.110      106.229       11.693        0.012      335.858        6.770      863.754
11/01/2013  23:12:00      -64.834      -45.740       -8.777       46.733       33.670       30.023     2183.956     1133.694      901.372        0.530        0.211       79.345       30.241        0.145      335.855        6.766      863.745
11/01/2013  23:13:00      -70.324      -43.166      -16.794       40.489       32.599       21.022     1639.355     1062.692      441.906        0.512        0.157       82.515       14.470        0.031      335.892        6.828      863.746
11/01/2013  23:14:00       -9.400      -25.407        2.898       39.408       25.284       31.481     1552.985      639.259      991.083        0.196        0.159       27.090       18.086        0.446      335.865        6.783      863.748
11/01/2013  23:15:00      -72.485      -50.920      -10.910       36.533       34.585       26.669     1334.641     1196.117      711.235        0.560        0.162       88.583       18.535        0.044      335.885        6.817      863.759
11/01/2013  23:16:00      -29.180       -5.484       15.813       46.546       27.286       26.644     2166.498      744.543      709.915        0.238        0.181       29.691       22.914        0.596      335.803        6.681      863.763
11/01/2013  23:17:00      -79.804       11.009       -9.797       34.010       31.403       18.904     1156.686      986.162      357.367        0.454        0.125       80.560       12.735        0.025      335.788        6.655      863.769
11/01/2013  23:18:00      -85.899      -35.483      -14.012       31.903       24.362       17.999     1017.779      593.488      323.957        0.538        0.097       92.939        9.971        0.012      335.751        6.593      863.777
11/01/2013  23:19:00      -42.692       -9.206        7.383       43.760       29.039       24.100     1914.965      843.267      580.834        0.265        0.167       43.673       25.841        0.350      335.728        6.556      863.770
11/01/2013  23:20:00      -99.728        3.223      -17.010       23.876       26.643       17.348      570.087      709.834      300.961        0.591        0.079       99.780        9.260        0.009      335.787        6.654      863.764
11/01/2013  23:21:00      -97.522      -14.466      -12.108       26.233       23.695       17.423      688.181      561.463      303.548        0.571        0.078       98.589        9.752        0.010      335.809        6.690      863.748
11/01/2013  23:22:00      -85.855      -15.630       -9.985       20.008       32.195       19.839      400.320     1036.505      393.596        0.477        0.092       87.266        8.895        0.010      335.843        6.748      863.742
11/01/2013  23:23:00     -113.125      -34.803      -10.552       35.056       23.598       19.564     1228.953      556.872      382.764        0.814        0.108      118.358       19.101        0.026      335.811        6.692      863.732
11/01/2013  23:24:00     -105.549       -2.687      -12.499       30.549       20.179       17.823      933.219      407.186      317.665        0.648        0.083      105.584       16.089        0.023      335.762        6.613      863.723
11/01/2013  23:25:00      -74.321      -40.553       -0.540       26.477       24.608       19.489      701.023      605.544      379.828        0.443        0.084       84.665       14.221        0.028      335.858        6.773      863.716
11/01/2013  23:26:00      -90.035      -18.906      -15.071       30.858       26.617       15.627      952.228      708.469      244.215        0.530        0.095       91.998        5.533        0.004      335.944        6.914      863.720
11/01/2013  23:27:00      -69.485      -18.289      -13.338       17.023       21.351       16.185      289.767      455.869      261.959        0.317        0.050       71.851        7.910        0.012      336.023        7.047      863.717
11/01/2013  23:28:00      -60.443      -39.115       -7.429       27.858       18.159       17.711      776.058      329.742      313.681        0.333        0.071       71.996       13.184        0.034      335.865        6.783      863.702
11/01/2013  23:29:00      -69.736      -28.420       -5.949       42.130       16.273       13.313     1774.904      264.822      177.237        0.396        0.111       75.305       17.797        0.056      335.857        6.772      863.690
11/01/2013  23:30:00      -36.782      -22.939        1.365       37.737       13.101       17.055     1424.062      171.629      290.863        0.188        0.094       43.348       21.318        0.242      335.870        6.793      863.690
11/01/2013  23:31:00      -60.306      -31.224       -3.090       30.454       15.210       12.474      927.421      231.336      155.604        0.297        0.066       67.909        8.643        0.016      335.903        6.847      863.680
11/01/2013  23:32:00      -83.815      -39.454        0.734       27.525       16.569       11.517      757.652      274.544      132.639        0.487        0.058       92.637        9.472        0.010      335.877        6.802      863.672
11/01/2013  23:33:00      -66.794      -38.430       -5.727       37.967       19.053       16.164     1441.471      363.031      261.274        0.402        0.103       77.060        9.241        0.014      335.850        6.759      863.662
11/01/2013  23:34:00      -78.248      -42.968       -0.660       27.782       20.219        9.803      771.854      408.811       96.101        0.462        0.064       89.269        9.291        0.011      335.768        6.624      863.651
11/01/2013  23:35:00      -73.483      -49.220       -6.395       28.418       18.790       13.451      807.566      353.082      180.926        0.460        0.067       88.444        8.602        0.009      335.736        6.569      863.643
11/01/2013  23:36:00      -57.294      -45.819        0.734       34.436       22.977       18.545     1185.809      527.923      343.910        0.372        0.103       73.362       15.591        0.045      335.725        6.550      863.639
11/01/2013  23:37:00      -67.020      -47.692        2.341       46.097       27.285       20.561     2124.908      744.484      422.761        0.503        0.165       82.257       16.247        0.039      335.682        6.480      863.634
11/01/2013  23:38:00      -71.270      -51.740        7.666       38.756       28.149       17.969     1502.051      792.360      322.870        0.522        0.131       88.071       17.950        0.042      335.668        6.456      863.643
11/01/2013  23:39:00      -44.410      -46.827        5.347       39.710       25.419       20.718     1576.901      646.112      429.233        0.342        0.133       64.537       19.336        0.090      335.697        6.503      863.647
11/01/2013  23:40:00      -57.705      -50.186        2.799       40.301       31.555       18.418     1624.196      995.714      339.211        0.441        0.148       76.475       17.137        0.050      335.690        6.491      863.637
11/01/2013  23:41:00      -93.238      -77.476       -6.848       31.999       25.840       18.247     1023.913      667.730      332.942        0.838        0.101      121.226       11.366        0.009      335.754        6.599      863.630
11/01/2013  23:42:00      -86.453      -55.904        3.521       41.654       27.891       22.235     1735.040      777.922      494.375        0.681        0.150      102.953       16.396        0.025      335.720        6.542      863.635
11/01/2013  23:43:00      -97.452      -59.925       -7.051       43.297       29.416       18.503     1874.659      865.324      342.377        0.811        0.154      114.402       15.410        0.018      335.688        6.490      863.635
11/01/2013  23:44:00      -78.980      -53.023       -4.276       50.820       28.519       23.939     2582.656      813.352      573.098        0.652        0.198       95.128       22.552        0.056      335.620        6.376      863.633
11/01/2013  23:45:00      -64.689      -48.315       -0.656       44.921       31.528       22.339     2017.872      994.011      499.045        0.501        0.176       80.740       23.903        0.088      335.671        6.461      863.623
11/01/2013  23:46:00      -71.206      -74.792       -6.307       34.706       23.336       21.304     1204.516      544.570      453.841        0.645        0.110      103.268       20.729        0.040      335.652        6.429      863.613
11/01/2013  23:47:00      -80.010      -75.831       -5.311       32.703       28.206       18.801     1069.468      795.585      353.490        0.720        0.111      110.236       17.174        0.024      335.648        6.422      863.604
11/01/2013  23:48:00      -98.412      -74.610       -3.795       29.299       22.395       21.294      858.425      501.540      453.438        0.854        0.091      123.497       19.637        0.025      335.689        6.491      863.606
11/01/2013  23:49:00      -91.875      -56.368       -6.594       42.840       34.198       21.852     1835.252     1169.515      477.531        0.757        0.174      107.788       15.199        0.020      335.719        6.540      863.607
11/01/2013  23:50:00     -117.339      -54.691        1.543       36.893       27.042       20.045     1361.073      731.249      401.803        0.963        0.125      129.458       18.802        0.021      335.726        6.552      863.599
11/01/2013  23:51:00      -83.022      -51.769        2.528       41.083       26.798       20.883     1687.821      718.136      436.109        0.621        0.142       97.840       22.481        0.053      335.691        6.494      863.596
11/01/2013  23:52:00      -77.091      -55.709        4.054       44.773       31.683       16.984     2004.638     1003.841      288.465        0.618        0.165       95.113       14.210        0.022      335.605        6.350      863.595
11/01/2013  23:53:00     -101.862      -58.436        1.984       44.669       32.884       21.068     1995.340     1081.354      443.854        0.866        0.176      117.433       20.826        0.031      335.620        6.376      863.603
11/01/2013  23:54:00     -114.469      -45.190       -4.749       29.389       27.118       16.362      863.717      735.368      267.731        0.852        0.093      123.066       12.476        0.010      335.570        6.292      863.609
11/01/2013  23:55:00     -127.974      -41.862      -13.602       26.631       17.824       12.764      709.215      317.693      162.931        0.975        0.059      134.647       12.821        0.009      335.541        6.244      863.608
11/01/2013  23:56:00     -119.898      -23.395      -10.399       22.133       19.436       12.582      489.871      377.756      158.317        0.803        0.051      122.159       10.386        0.007      335.568        6.288      863.603
11/01/2013  23:57:00      -93.575      -21.915       -6.556       26.838       18.473       16.541      720.265      341.240      273.619        0.531        0.067       96.107       17.125        0.032      335.594        6.333      863.613
11/01/2013  23:58:00     -101.493      -31.543       -7.303       28.755       19.413       14.457      826.829      376.877      209.010        0.638        0.071      106.282       13.609        0.016      335.532        6.228      863.629
11/01/2013  23:59:00     -126.149      -32.126       -6.196       19.093       16.549       15.596      364.535      273.860      243.244        0.893        0.044      130.175        9.985        0.006      335.517        6.205      863.649
